| time (UTC) | temp F | wind direction | speed MPH | gust MPH | rain 1hr in | rain 24hr in | rain mn in | humidity % | barometer mb |
| 20260831023552 | 89 | 207 | 3.0 | 0.0 | 0.00 | 0.00 | 0.00 | 69 | 1006.8 |
| 20260831023447 | 89 | 212 | 3.0 | 0.0 | 0.00 | 0.00 | 0.00 | 69 | 1006.7 |
| 20260831023411 | 89 | 140 | 3.0 | 0.0 | 0.00 | 0.00 | 0.00 | 69 | 1006.7 |
| 20260831023333 | 89 | 202 | 3.0 | 0.0 | 0.00 | 0.00 | 0.00 | 69 | 1006.7 |
| 20260831023143 | 89 | 221 | 3.0 | 0.0 | 0.00 | 0.00 | 0.00 | 69 | 1006.7 |
| 20260831023055 | 89 | 225 | 3.0 | 0.0 | 0.00 | 0.00 | 0.00 | 69 | 1006.7 |
| 20260831022956 | 89 | 193 | 3.0 | 0.0 | 0.00 | 0.00 | 0.00 | 69 | 1006.7 |
| 20260831022852 | 89 | 205 | 2.0 | 0.0 | 0.00 | 0.00 | 0.00 | 69 | 1006.7 |
| 20260831022814 | 89 | 231 | 2.0 | 0.0 | 0.00 | 0.00 | 0.00 | 69 | 1006.7 |
| 20260831022646 | 89 | 189 | 2.0 | 0.0 | 0.00 | 0.00 | 0.00 | 69 | 1006.7 |
| 20260831022558 | 89 | 180 | 2.0 | 0.0 | 0.00 | 0.00 | 0.00 | 69 | 1006.7 |
| 20260831022459 | 89 | 215 | 2.0 | 0.0 | 0.00 | 0.00 | 0.00 | 69 | 1006.7 |
| 20260831022354 | 89 | 184 | 2.0 | 0.0 | 0.00 | 0.00 | 0.00 | 69 | 1006.7 |
| 20260831022315 | 89 | 215 | 2.0 | 0.0 | 0.00 | 0.00 | 0.00 | 69 | 1006.7 |
| 20260831022150 | 89 | 228 | 2.0 | 0.0 | 0.00 | 0.00 | 0.00 | 68 | 1006.7 |
| 20260831022040 | 89 | 210 | 2.0 | 0.0 | 0.00 | 0.00 | 0.00 | 68 | 1006.3 |
| 20260831022008 | 89 | 227 | 2.0 | 0.0 | 0.00 | 0.00 | 0.00 | 68 | 1006.3 |
| 20260831021929 | 89 | 215 | 2.0 | 0.0 | 0.00 | 0.00 | 0.00 | 68 | 1006.3 |
| 20260831021743 | 89 | 172 | 2.0 | 0.0 | 0.00 | 0.00 | 0.00 | 68 | 1006.3 |
| 20260831021656 | 89 | 219 | 2.0 | 0.0 | 0.00 | 0.00 | 0.00 | 68 | 1006.3 |
| 20260831021557 | 89 | 195 | 2.0 | 0.0 | 0.00 | 0.00 | 0.00 | 68 | 1006.3 |
| 20260831021449 | 89 | 192 | 2.0 | 0.0 | 0.00 | 0.00 | 0.00 | 68 | 1006.3 |
| 20260831021414 | 90 | 203 | 2.0 | 0.0 | 0.00 | 0.00 | 0.00 | 68 | 1006.3 |
| 20260831021248 | 90 | 197 | 2.0 | 0.0 | 0.00 | 0.00 | 0.00 | 68 | 1006.3 |
| 20260831021213 | 90 | 223 | 2.0 | 0.0 | 0.00 | 0.00 | 0.00 | 68 | 1006.3 |
| 20260831021124 | 90 | 172 | 2.0 | 0.0 | 0.00 | 0.00 | 0.00 | 68 | 1006.3 |
| 20260831021003 | 90 | 213 | 2.0 | 0.0 | 0.00 | 0.00 | 0.00 | 68 | 1006.3 |
| 20260831020853 | 90 | 221 | 2.0 | 0.0 | 0.00 | 0.00 | 0.00 | 68 | 1006.3 |
| 20260831020757 | 90 | 192 | 2.0 | 0.0 | 0.00 | 0.00 | 0.00 | 68 | 1006.3 |
| 20260831020649 | 90 | 225 | 2.0 | 0.0 | 0.00 | 0.00 | 0.00 | 68 | 1006.3 |
| 20260831020554 | 90 | 188 | 3.0 | 0.0 | 0.00 | 0.00 | 0.00 | 68 | 1006.3 |
| 20260831020446 | 90 | 188 | 3.0 | 0.0 | 0.00 | 0.00 | 0.00 | 68 | 1006.1 |
| 20260831020408 | 90 | 226 | 3.0 | 0.0 | 0.00 | 0.00 | 0.00 | 68 | 1006.1 |
| 20260831020323 | 90 | 194 | 3.0 | 0.0 | 0.00 | 0.00 | 0.00 | 68 | 1006.1 |
| 20260831020203 | 90 | 246 | 3.0 | 0.0 | 0.00 | 0.00 | 0.00 | 68 | 1006.1 |
| 20260831020115 | 90 | 151 | 3.0 | 0.0 | 0.00 | 0.00 | 0.00 | 68 | 1006.1 |
| 20260831020001 | 90 | 184 | 3.0 | 0.0 | 0.00 | 0.00 | 0.00 | 67 | 1006.1 |
| 20260831015851 | 90 | 128 | 3.0 | 0.0 | 0.00 | 0.00 | 0.00 | 67 | 1006.1 |
| 20260831015755 | 90 | 216 | 3.0 | 0.0 | 0.00 | 0.00 | 0.00 | 67 | 1006.1 |
| 20260831015653 | 90 | 201 | 3.0 | 0.0 | 0.00 | 0.00 | 0.00 | 67 | 1006.1 |
| 20260831015549 | 90 | 243 | 3.0 | 0.0 | 0.00 | 0.00 | 0.00 | 67 | 1006.1 |
| 20260831015450 | 90 | 176 | 3.0 | 0.0 | 0.00 | 0.00 | 0.00 | 67 | 1006.1 |
| 20260831015408 | 90 | 201 | 2.0 | 0.0 | 0.00 | 0.00 | 0.00 | 67 | 1006.1 |
| 20260831015330 | 90 | 193 | 3.0 | 0.0 | 0.00 | 0.00 | 0.00 | 67 | 1006.1 |
| 20260831015231 | 90 | 202 | 3.0 | 0.0 | 0.00 | 0.00 | 0.00 | 67 | 1006.1 |
| 20260831015106 | 91 | 272 | 3.0 | 0.0 | 0.00 | 0.00 | 0.00 | 66 | 1006.1 |
| 20260831015006 | 91 | 159 | 3.0 | 0.0 | 0.00 | 0.00 | 0.00 | 66 | 1006.0 |
| 20260831014845 | 91 | 38 | 2.0 | 0.0 | 0.00 | 0.00 | 0.00 | 66 | 1006.0 |
| 20260831014758 | 91 | 203 | 2.0 | 0.0 | 0.00 | 0.00 | 0.00 | 66 | 1006.0 |
| 20260831014702 | 91 | 186 | 2.0 | 0.0 | 0.00 | 0.00 | 0.00 | 66 | 1006.0 |
| 20260831014557 | 91 | 219 | 2.0 | 0.0 | 0.00 | 0.00 | 0.00 | 66 | 1006.0 |
| 20260831014452 | 91 | 210 | 2.0 | 0.0 | 0.00 | 0.00 | 0.00 | 66 | 1006.0 |
| 20260831014353 | 91 | 196 | 2.0 | 0.0 | 0.00 | 0.00 | 0.00 | 66 | 1006.0 |
| 20260831014247 | 91 | 207 | 2.0 | 0.0 | 0.00 | 0.00 | 0.00 | 66 | 1006.0 |
| 20260831014153 | 91 | 175 | 2.0 | 0.0 | 0.00 | 0.00 | 0.00 | 65 | 1006.0 |
| 20260831014044 | 91 | 142 | 3.0 | 0.0 | 0.00 | 0.00 | 0.00 | 65 | 1006.0 |
| 20260831014008 | 91 | 189 | 3.0 | 0.0 | 0.00 | 0.00 | 0.00 | 65 | 1006.0 |
| 20260831013903 | 91 | 198 | 2.0 | 0.0 | 0.00 | 0.00 | 0.00 | 65 | 1006.0 |
| 20260831013803 | 91 | 221 | 3.0 | 0.0 | 0.00 | 0.00 | 0.00 | 65 | 1006.0 |
| 20260831013723 | 91 | 225 | 3.0 | 0.0 | 0.00 | 0.00 | 0.00 | 65 | 1006.0 |
| 20260831013557 | 92 | 225 | 3.0 | 0.0 | 0.00 | 0.00 | 0.00 | 65 | 1006.0 |
| 20260831013500 | 92 | 175 | 3.0 | 0.0 | 0.00 | 0.00 | 0.00 | 64 | 1006.1 |
| 20260831013350 | 92 | 199 | 3.0 | 0.0 | 0.00 | 0.00 | 0.00 | 64 | 1006.1 |
| 20260831013245 | 92 | 234 | 3.0 | 0.0 | 0.00 | 0.00 | 0.00 | 64 | 1006.1 |
| 20260831013212 | 92 | 194 | 3.0 | 0.0 | 0.00 | 0.00 | 0.00 | 64 | 1006.1 |
| 20260831013115 | 92 | 167 | 3.0 | 0.0 | 0.00 | 0.00 | 0.00 | 63 | 1006.1 |
| 20260831012946 | 92 | 288 | 3.0 | 0.0 | 0.00 | 0.00 | 0.00 | 63 | 1006.1 |
| 20260831012900 | 92 | 197 | 3.0 | 0.0 | 0.00 | 0.00 | 0.00 | 63 | 1006.1 |
| 20260831012801 | 92 | 170 | 3.0 | 0.0 | 0.00 | 0.00 | 0.00 | 63 | 1006.1 |
| 20260831012657 | 92 | 171 | 3.0 | 0.0 | 0.00 | 0.00 | 0.00 | 62 | 1006.1 |
| 20260831012620 | 92 | 154 | 3.0 | 0.0 | 0.00 | 0.00 | 0.00 | 62 | 1006.1 |
| 20260831012457 | 92 | 203 | 3.0 | 0.0 | 0.00 | 0.00 | 0.00 | 62 | 1006.1 |
| 20260831012351 | 92 | 174 | 3.0 | 0.0 | 0.00 | 0.00 | 0.00 | 62 | 1006.1 |
| 20260831012313 | 92 | 169 | 4.0 | 0.0 | 0.00 | 0.00 | 0.00 | 61 | 1006.1 |
| 20260831012213 | 92 | 94 | 3.0 | 0.0 | 0.00 | 0.00 | 0.00 | 61 | 1006.1 |
| 20260831012101 | 92 | 205 | 4.0 | 0.0 | 0.00 | 0.00 | 0.00 | 61 | 1006.0 |
| 20260831012005 | 93 | 159 | 3.0 | 0.0 | 0.00 | 0.00 | 0.00 | 61 | 1006.0 |
| 20260831011901 | 93 | 69 | 3.0 | 0.0 | 0.00 | 0.00 | 0.00 | 60 | 1006.0 |
| 20260831011754 | 93 | 235 | 3.0 | 0.0 | 0.00 | 0.00 | 0.00 | 60 | 1006.0 |
| 20260831011658 | 93 | 178 | 2.0 | 0.0 | 0.00 | 0.00 | 0.00 | 60 | 1006.0 |
| 20260831011555 | 93 | 221 | 2.0 | 0.0 | 0.00 | 0.00 | 0.00 | 59 | 1006.0 |
| 20260831011447 | 93 | 210 | 2.0 | 0.0 | 0.00 | 0.00 | 0.00 | 59 | 1006.0 |
| 20260831011349 | 93 | 55 | 2.0 | 0.0 | 0.00 | 0.00 | 0.00 | 59 | 1006.0 |
| 20260831011241 | 93 | 22 | 1.0 | 0.0 | 0.00 | 0.00 | 0.00 | 59 | 1006.0 |
| 20260831011208 | 93 | 222 | 1.0 | 0.0 | 0.00 | 0.00 | 0.00 | 58 | 1006.0 |
| 20260831011040 | 93 | 231 | 1.0 | 0.0 | 0.00 | 0.00 | 0.00 | 58 | 1006.0 |
| 20260831011012 | 93 | 189 | 1.0 | 0.0 | 0.00 | 0.00 | 0.00 | 58 | 1006.0 |
| 20260831010903 | 93 | 108 | 2.0 | 0.0 | 0.00 | 0.00 | 0.00 | 58 | 1006.0 |
| 20260831010807 | 93 | 171 | 2.0 | 0.0 | 0.00 | 0.00 | 0.00 | 58 | 1006.0 |
| 20260831010705 | 93 | 198 | 2.0 | 0.0 | 0.00 | 0.00 | 0.00 | 58 | 1006.0 |
| 20260831010629 | 93 | 165 | 2.0 | 0.0 | 0.00 | 0.00 | 0.00 | 58 | 1006.0 |
| 20260831010446 | 93 | 159 | 1.0 | 0.0 | 0.00 | 0.00 | 0.00 | 57 | 1005.6 |
| 20260831010358 | 93 | 326 | 1.0 | 0.0 | 0.00 | 0.00 | 0.00 | 57 | 1005.6 |
| 20260831010302 | 93 | 205 | 1.0 | 0.0 | 0.00 | 0.00 | 0.00 | 57 | 1005.6 |
| 20260831010201 | 94 | 159 | 2.0 | 0.0 | 0.00 | 0.00 | 0.00 | 57 | 1005.6 |
| 20260831010056 | 94 | 198 | 1.0 | 0.0 | 0.00 | 0.00 | 0.00 | 57 | 1005.6 |
| 20260831010002 | 94 | 198 | 1.0 | 0.0 | 0.00 | 0.00 | 0.00 | 57 | 1005.6 |
| 20260831005854 | 94 | 172 | 1.0 | 0.0 | 0.00 | 0.00 | 0.00 | 57 | 1005.6 |
| 20260831005756 | 94 | 257 | 2.0 | 0.0 | 0.00 | 0.00 | 0.00 | 57 | 1005.6 |
| 20260831005649 | 94 | 218 | 2.0 | 0.0 | 0.00 | 0.00 | 0.00 | 57 | 1005.6 |
| 20260831005610 | 94 | 155 | 2.0 | 0.0 | 0.00 | 0.00 | 0.00 | 57 | 1005.6 |
| 20260831005447 | 94 | 214 | 2.0 | 0.0 | 0.00 | 0.00 | 0.00 | 56 | 1005.6 |
| 20260831005409 | 94 | 134 | 2.0 | 0.0 | 0.00 | 0.00 | 0.00 | 56 | 1005.6 |
| 20260831005300 | 94 | 213 | 3.0 | 0.0 | 0.00 | 0.00 | 0.00 | 56 | 1005.6 |
| 20260831005155 | 94 | 209 | 3.0 | 0.0 | 0.00 | 0.00 | 0.00 | 56 | 1005.6 |
| 20260831005056 | 94 | 92 | 3.0 | 0.0 | 0.00 | 0.00 | 0.00 | 56 | 1005.6 |
| 20260831004950 | 94 | 252 | 3.0 | 0.0 | 0.00 | 0.00 | 0.00 | 56 | 1005.3 |
| 20260831004911 | 94 | 251 | 3.0 | 0.0 | 0.00 | 0.00 | 0.00 | 56 | 1005.3 |
| 20260831004745 | 94 | 219 | 3.0 | 0.0 | 0.00 | 0.00 | 0.00 | 56 | 1005.3 |
| 20260831004700 | 94 | 159 | 3.0 | 0.0 | 0.00 | 0.00 | 0.00 | 56 | 1005.3 |
| 20260831004622 | 94 | 168 | 3.0 | 0.0 | 0.00 | 0.00 | 0.00 | 56 | 1005.3 |
| 20260831004453 | 94 | 234 | 3.0 | 0.0 | 0.00 | 0.00 | 0.00 | 55 | 1005.3 |
| 20260831004354 | 95 | 178 | 3.0 | 0.0 | 0.00 | 0.00 | 0.00 | 55 | 1005.3 |
| 20260831004247 | 95 | 196 | 2.0 | 0.0 | 0.00 | 0.00 | 0.00 | 55 | 1005.3 |
| 20260831004208 | 95 | 166 | 3.0 | 0.0 | 0.00 | 0.00 | 0.00 | 55 | 1005.3 |
| 20260831004047 | 95 | 211 | 3.0 | 0.0 | 0.00 | 0.00 | 0.00 | 55 | 1005.3 |
| 20260831003959 | 95 | 152 | 3.0 | 0.0 | 0.00 | 0.00 | 0.00 | 55 | 1005.3 |
| 20260831003901 | 95 | 199 | 3.0 | 0.0 | 0.00 | 0.00 | 0.00 | 55 | 1005.3 |
| 20260831003752 | 95 | 103 | 3.0 | 0.0 | 0.00 | 0.00 | 0.00 | 55 | 1005.3 |
| 20260831003659 | 95 | 146 | 3.0 | 0.0 | 0.00 | 0.00 | 0.00 | 55 | 1005.3 |
| 20260831003551 | 95 | 216 | 3.0 | 0.0 | 0.00 | 0.00 | 0.00 | 55 | 1005.3 |
| 20260831003516 | 95 | 190 | 3.0 | 0.0 | 0.00 | 0.00 | 0.00 | 55 | 1005.1 |
| 20260831003407 | 95 | 294 | 3.0 | 0.0 | 0.00 | 0.00 | 0.00 | 55 | 1005.1 |
| 20260831003251 | 95 | 134 | 3.0 | 0.0 | 0.00 | 0.00 | 0.00 | 55 | 1005.1 |
| 20260831003148 | 95 | 208 | 3.0 | 0.0 | 0.00 | 0.00 | 0.00 | 55 | 1005.1 |
| 20260831003110 | 95 | 192 | 3.0 | 0.0 | 0.00 | 0.00 | 0.00 | 55 | 1005.1 |
| 20260831003003 | 95 | 159 | 4.0 | 0.0 | 0.00 | 0.00 | 0.00 | 55 | 1005.1 |
| 20260831002930 | 96 | 199 | 4.0 | 0.0 | 0.00 | 0.00 | 0.00 | 55 | 1005.1 |
| 20260831002831 | 96 | 214 | 4.0 | 0.0 | 0.00 | 0.00 | 0.00 | 55 | 1005.1 |
| 20260831002644 | 96 | 201 | 3.0 | 0.0 | 0.00 | 0.00 | 0.00 | 55 | 1005.1 |
| 20260831002559 | 96 | 247 | 3.0 | 0.0 | 0.00 | 0.00 | 0.00 | 55 | 1005.1 |
| 20260831002501 | 96 | 221 | 3.0 | 0.0 | 0.00 | 0.00 | 0.00 | 55 | 1005.1 |
| 20260831002412 | 96 | 168 | 3.0 | 0.0 | 0.00 | 0.00 | 0.00 | 55 | 1005.1 |
| 20260831002256 | 96 | 94 | 3.0 | 0.0 | 0.00 | 0.00 | 0.00 | 55 | 1005.1 |
| 20260831002217 | 96 | 225 | 3.0 | 0.0 | 0.00 | 0.00 | 0.00 | 54 | 1005.1 |
| 20260831002049 | 96 | 155 | 3.0 | 0.0 | 0.00 | 0.00 | 0.00 | 54 | 1005.1 |
| 20260831002010 | 96 | 161 | 3.0 | 0.0 | 0.00 | 0.00 | 0.00 | 55 | 1005.0 |
| 20260831001902 | 96 | 200 | 3.0 | 0.0 | 0.00 | 0.00 | 0.00 | 54 | 1005.0 |
| 20260831001757 | 96 | 207 | 3.0 | 0.0 | 0.00 | 0.00 | 0.00 | 54 | 1005.0 |
| 20260831001658 | 96 | 188 | 3.0 | 0.0 | 0.00 | 0.00 | 0.00 | 55 | 1005.0 |
| 20260831001558 | 96 | 175 | 3.0 | 0.0 | 0.00 | 0.00 | 0.00 | 54 | 1005.0 |
| 20260831001450 | 96 | 174 | 3.0 | 0.0 | 0.00 | 0.00 | 0.00 | 54 | 1005.0 |
| 20260831001355 | 96 | 150 | 3.0 | 0.0 | 0.00 | 0.00 | 0.00 | 55 | 1005.0 |
| 20260831001247 | 97 | 175 | 3.0 | 0.0 | 0.00 | 0.00 | 0.00 | 55 | 1005.0 |
| 20260831001208 | 97 | 207 | 3.0 | 0.0 | 0.00 | 0.00 | 0.00 | 55 | 1005.0 |
| 20260831001103 | 97 | 190 | 3.0 | 0.0 | 0.00 | 0.00 | 0.00 | 55 | 1005.0 |
| 20260831001024 | 97 | 75 | 3.0 | 0.0 | 0.00 | 0.00 | 0.00 | 54 | 1005.0 |
| 20260831000855 | 97 | 149 | 3.0 | 0.0 | 0.00 | 0.00 | 0.00 | 54 | 1005.0 |
| 20260831000803 | 97 | 234 | 3.0 | 0.0 | 0.00 | 0.00 | 0.00 | 54 | 1005.0 |
| 20260831000715 | 97 | 247 | 3.0 | 0.0 | 0.00 | 0.00 | 0.00 | 54 | 1005.0 |
| 20260831000559 | 97 | 205 | 3.0 | 0.0 | 0.00 | 0.00 | 0.00 | 54 | 1005.0 |
| 20260831000452 | 97 | 229 | 3.0 | 0.0 | 0.00 | 0.00 | 0.00 | 54 | 1004.9 |
| 20260831000344 | 97 | 209 | 2.0 | 0.0 | 0.00 | 0.00 | 0.00 | 54 | 1004.9 |
| 20260831000310 | 97 | 188 | 2.0 | 0.0 | 0.00 | 0.00 | 0.00 | 54 | 1004.9 |
| 20260831000229 | 97 | 155 | 2.0 | 0.0 | 0.00 | 0.00 | 0.00 | 54 | 1004.9 |
| 20260831000103 | 97 | 198 | 2.0 | 0.0 | 0.00 | 0.00 | 0.00 | 54 | 1004.9 |
| 20260831000002 | 97 | 51 | 2.0 | 0.0 | 0.00 | 0.00 | 0.00 | 54 | 1004.9 |
| 20260830235907 | 97 | 122 | 2.0 | 0.0 | 0.00 | 0.00 | 0.00 | 54 | 1004.9 |
| 20260830235758 | 98 | 197 | 2.0 | 0.0 | 0.00 | 0.00 | 0.00 | 54 | 1004.9 |
| 20260830235650 | 98 | 211 | 2.0 | 0.0 | 0.00 | 0.00 | 0.00 | 54 | 1004.9 |
| 20260830235553 | 98 | 200 | 2.0 | 0.0 | 0.00 | 0.00 | 0.00 | 54 | 1004.9 |
| 20260830235447 | 98 | 212 | 2.0 | 0.0 | 0.00 | 0.00 | 0.00 | 53 | 1004.9 |
| 20260830235415 | 98 | 219 | 2.0 | 0.0 | 0.00 | 0.00 | 0.00 | 53 | 1004.9 |
| 20260830235251 | 98 | 217 | 3.0 | 0.0 | 0.00 | 0.00 | 0.00 | 53 | 1004.9 |
| 20260830235214 | 98 | 153 | 3.0 | 0.0 | 0.00 | 0.00 | 0.00 | 53 | 1004.9 |
| 20260830235102 | 98 | 209 | 3.0 | 0.0 | 0.00 | 0.00 | 0.00 | 53 | 1004.9 |
| 20260830234957 | 98 | 136 | 3.0 | 0.0 | 0.00 | 0.00 | 0.00 | 53 | 1004.7 |
| 20260830234850 | 98 | 208 | 3.0 | 0.0 | 0.00 | 0.00 | 0.00 | 53 | 1004.7 |
| 20260830234754 | 98 | 222 | 3.0 | 0.0 | 0.00 | 0.00 | 0.00 | 53 | 1004.7 |
| 20260830234649 | 98 | 214 | 4.0 | 0.0 | 0.00 | 0.00 | 0.00 | 53 | 1004.7 |
| 20260830234554 | 98 | 151 | 4.0 | 0.0 | 0.00 | 0.00 | 0.00 | 53 | 1004.7 |
| 20260830234447 | 98 | 173 | 4.0 | 0.0 | 0.00 | 0.00 | 0.00 | 52 | 1004.7 |
| 20260830234348 | 98 | 217 | 4.0 | 0.0 | 0.00 | 0.00 | 0.00 | 52 | 1004.7 |
| 20260830234302 | 98 | 198 | 4.0 | 0.0 | 0.00 | 0.00 | 0.00 | 52 | 1004.7 |
| 20260830234207 | 98 | 217 | 4.0 | 0.0 | 0.00 | 0.00 | 0.00 | 52 | 1004.7 |
| 20260830234058 | 98 | 177 | 4.0 | 0.0 | 0.00 | 0.00 | 0.00 | 52 | 1004.7 |
| 20260830233954 | 98 | 105 | 4.0 | 0.0 | 0.00 | 0.00 | 0.00 | 52 | 1004.7 |
| 20260830233859 | 98 | 190 | 4.0 | 0.0 | 0.00 | 0.00 | 0.00 | 52 | 1004.7 |
| 20260830233753 | 99 | 209 | 4.0 | 0.0 | 0.00 | 0.00 | 0.00 | 52 | 1004.7 |
| 20260830233648 | 99 | 232 | 4.0 | 0.0 | 0.00 | 0.00 | 0.00 | 52 | 1004.7 |
| 20260830233555 | 99 | 181 | 3.0 | 0.0 | 0.00 | 0.00 | 0.00 | 52 | 1004.7 |
| 20260830233450 | 99 | 168 | 3.0 | 0.0 | 0.00 | 0.00 | 0.00 | 51 | 1004.6 |
| 20260830233344 | 99 | 164 | 3.0 | 0.0 | 0.00 | 0.00 | 0.00 | 51 | 1004.6 |
| 20260830233252 | 99 | 150 | 3.0 | 0.0 | 0.00 | 0.00 | 0.00 | 51 | 1004.6 |
| 20260830233147 | 99 | 213 | 3.0 | 0.0 | 0.00 | 0.00 | 0.00 | 51 | 1004.6 |
| 20260830233108 | 99 | 192 | 3.0 | 0.0 | 0.00 | 0.00 | 0.00 | 51 | 1004.6 |
| 20260830233004 | 99 | 207 | 3.0 | 0.0 | 0.00 | 0.00 | 0.00 | 51 | 1004.6 |
| 20260830232926 | 99 | 161 | 3.0 | 0.0 | 0.00 | 0.00 | 0.00 | 51 | 1004.6 |
| 20260830232821 | 99 | 146 | 3.0 | 0.0 | 0.00 | 0.00 | 0.00 | 50 | 1004.6 |
| 20260830232704 | 99 | 159 | 3.0 | 0.0 | 0.00 | 0.00 | 0.00 | 50 | 1004.6 |
| 20260830232556 | 99 | 175 | 3.0 | 0.0 | 0.00 | 0.00 | 0.00 | 50 | 1004.6 |
| 20260830232448 | 99 | 212 | 3.0 | 0.0 | 0.00 | 0.00 | 0.00 | 50 | 1004.6 |
| 20260830232357 | 99 | 191 | 3.0 | 0.0 | 0.00 | 0.00 | 0.00 | 50 | 1004.6 |
| 20260830232251 | 99 | 211 | 2.0 | 0.0 | 0.00 | 0.00 | 0.00 | 50 | 1004.6 |
| 20260830232213 | 99 | 88 | 2.0 | 0.0 | 0.00 | 0.00 | 0.00 | 50 | 1004.6 |
| 20260830232104 | 99 | 212 | 2.0 | 0.0 | 0.00 | 0.00 | 0.00 | 50 | 1004.6 |
| 20260830232004 | 99 | 277 | 2.0 | 0.0 | 0.00 | 0.00 | 0.00 | 50 | 1004.5 |
| 20260830231859 | 99 | 189 | 2.0 | 0.0 | 0.00 | 0.00 | 0.00 | 50 | 1004.5 |
| 20260830231751 | 99 | 163 | 2.0 | 0.0 | 0.00 | 0.00 | 0.00 | 50 | 1004.5 |
| 20260830231656 | 100 | 190 | 2.0 | 0.0 | 0.00 | 0.00 | 0.00 | 50 | 1004.5 |
| 20260830231552 | 100 | 219 | 2.0 | 0.0 | 0.00 | 0.00 | 0.00 | 50 | 1004.5 |
| 20260830231513 | 100 | 121 | 2.0 | 0.0 | 0.00 | 0.00 | 0.00 | 49 | 1004.5 |
| 20260830231405 | 100 | 81 | 2.0 | 0.0 | 0.00 | 0.00 | 0.00 | 49 | 1004.5 |
| 20260830231312 | 100 | 165 | 2.0 | 0.0 | 0.00 | 0.00 | 0.00 | 49 | 1004.5 |
| 20260830231227 | 100 | 106 | 2.0 | 0.0 | 0.00 | 0.00 | 0.00 | 49 | 1004.5 |
| 20260830231107 | 100 | 177 | 2.0 | 0.0 | 0.00 | 0.00 | 0.00 | 49 | 1004.5 |
| 20260830231000 | 100 | 190 | 2.0 | 0.0 | 0.00 | 0.00 | 0.00 | 49 | 1004.5 |
| 20260830230856 | 100 | 196 | 2.0 | 0.0 | 0.00 | 0.00 | 0.00 | 49 | 1004.5 |
| 20260830230758 | 100 | 166 | 2.0 | 0.0 | 0.00 | 0.00 | 0.00 | 48 | 1004.5 |
| 20260830230654 | 100 | 107 | 2.0 | 0.0 | 0.00 | 0.00 | 0.00 | 47 | 1004.5 |
| 20260830230554 | 100 | 228 | 3.0 | 0.0 | 0.00 | 0.00 | 0.00 | 47 | 1004.5 |
| 20260830230449 | 100 | 156 | 3.0 | 0.0 | 0.00 | 0.00 | 0.00 | 47 | 1004.5 |
| 20260830230414 | 100 | 142 | 3.0 | 0.0 | 0.00 | 0.00 | 0.00 | 47 | 1004.5 |
| 20260830230246 | 101 | 150 | 2.0 | 0.0 | 0.00 | 0.00 | 0.00 | 47 | 1004.5 |
| 20260830230212 | 101 | 236 | 2.0 | 0.0 | 0.00 | 0.00 | 0.00 | 47 | 1004.5 |
| 20260830230126 | 101 | 186 | 2.0 | 0.0 | 0.00 | 0.00 | 0.00 | 47 | 1004.5 |
| 20260830230006 | 101 | 158 | 2.0 | 0.0 | 0.00 | 0.00 | 0.00 | 47 | 1004.5 |
| 20260830225857 | 101 | 198 | 2.0 | 0.0 | 0.00 | 0.00 | 0.00 | 46 | 1004.5 |
| 20260830225818 | 101 | 111 | 2.0 | 0.0 | 0.00 | 0.00 | 0.00 | 46 | 1004.5 |
| 20260830225649 | 101 | 228 | 2.0 | 0.0 | 0.00 | 0.00 | 0.00 | 47 | 1004.5 |
| 20260830225614 | 101 | 228 | 2.0 | 0.0 | 0.00 | 0.00 | 0.00 | 47 | 1004.5 |
| 20260830225515 | 101 | 221 | 2.0 | 0.0 | 0.00 | 0.00 | 0.00 | 47 | 1004.5 |
| 20260830225347 | 101 | 211 | 2.0 | 0.0 | 0.00 | 0.00 | 0.00 | 47 | 1004.5 |
| 20260830225305 | 101 | 274 | 1.0 | 0.0 | 0.00 | 0.00 | 0.00 | 47 | 1004.5 |
| 20260830225205 | 101 | 261 | 2.0 | 0.0 | 0.00 | 0.00 | 0.00 | 47 | 1004.5 |
| 20260830225056 | 101 | 221 | 2.0 | 0.0 | 0.00 | 0.00 | 0.00 | 46 | 1004.5 |
| 20260830224956 | 101 | 174 | 1.0 | 0.0 | 0.00 | 0.00 | 0.00 | 46 | 1004.5 |
| 20260830224849 | 101 | 189 | 1.0 | 0.0 | 0.00 | 0.00 | 0.00 | 47 | 1004.5 |
| 20260830224743 | 101 | 171 | 1.0 | 0.0 | 0.00 | 0.00 | 0.00 | 47 | 1004.5 |
| 20260830224647 | 101 | 188 | 1.0 | 0.0 | 0.00 | 0.00 | 0.00 | 47 | 1004.5 |
| 20260830224606 | 101 | 170 | 1.0 | 0.0 | 0.00 | 0.00 | 0.00 | 46 | 1004.5 |
| 20260830224512 | 101 | 208 | 1.0 | 0.0 | 0.00 | 0.00 | 0.00 | 46 | 1004.5 |
| 20260830224344 | 101 | 215 | 1.0 | 0.0 | 0.00 | 0.00 | 0.00 | 46 | 1004.5 |
| 20260830224254 | 101 | 147 | 1.0 | 0.0 | 0.00 | 0.00 | 0.00 | 46 | 1004.5 |
| 20260830224201 | 101 | 205 | 1.0 | 0.0 | 0.00 | 0.00 | 0.00 | 46 | 1004.5 |
| 20260830224057 | 101 | 157 | 1.0 | 0.0 | 0.00 | 0.00 | 0.00 | 46 | 1004.5 |
| 20260830223959 | 101 | 178 | 1.0 | 0.0 | 0.00 | 0.00 | 0.00 | 46 | 1004.5 |
| 20260830223850 | 101 | 194 | 2.0 | 0.0 | 0.00 | 0.00 | 0.00 | 47 | 1004.5 |
| 20260830223749 | 101 | 209 | 2.0 | 0.0 | 0.00 | 0.00 | 0.00 | 46 | 1004.5 |
| 20260830223657 | 101 | 97 | 3.0 | 0.0 | 0.00 | 0.00 | 0.00 | 47 | 1004.5 |
| 20260830223549 | 101 | 173 | 3.0 | 0.0 | 0.00 | 0.00 | 0.00 | 47 | 1004.5 |
| 20260830223509 | 101 | 241 | 3.0 | 0.0 | 0.00 | 0.00 | 0.00 | 47 | 1004.5 |
| 20260830223408 | 101 | 222 | 4.0 | 0.0 | 0.00 | 0.00 | 0.00 | 47 | 1004.5 |
| 20260830223329 | 101 | 169 | 4.0 | 0.0 | 0.00 | 0.00 | 0.00 | 46 | 1004.5 |
| 20260830223203 | 101 | 179 | 4.0 | 0.0 | 0.00 | 0.00 | 0.00 | 46 | 1004.5 |
| 20260830223130 | 101 | 211 | 4.0 | 0.0 | 0.00 | 0.00 | 0.00 | 46 | 1004.5 |
| 20260830222951 | 101 | 155 | 4.0 | 0.0 | 0.00 | 0.00 | 0.00 | 46 | 1004.5 |
| 20260830222851 | 101 | 206 | 4.0 | 0.0 | 0.00 | 0.00 | 0.00 | 46 | 1004.5 |
| 20260830222742 | 101 | 230 | 4.0 | 0.0 | 0.00 | 0.00 | 0.00 | 46 | 1004.5 |
| 20260830222648 | 101 | 170 | 3.0 | 0.0 | 0.00 | 0.00 | 0.00 | 46 | 1004.5 |
| 20260830222558 | 101 | 199 | 3.0 | 0.0 | 0.00 | 0.00 | 0.00 | 46 | 1004.5 |
| 20260830222500 | 102 | 165 | 3.0 | 0.0 | 0.00 | 0.00 | 0.00 | 46 | 1004.5 |
| 20260830222353 | 102 | 188 | 3.0 | 0.0 | 0.00 | 0.00 | 0.00 | 46 | 1004.5 |
| 20260830222248 | 102 | 190 | 2.0 | 0.0 | 0.00 | 0.00 | 0.00 | 46 | 1004.5 |
| 20260830222153 | 102 | 183 | 2.0 | 0.0 | 0.00 | 0.00 | 0.00 | 46 | 1004.5 |
| 20260830222103 | 102 | 244 | 2.0 | 0.0 | 0.00 | 0.00 | 0.00 | 46 | 1004.5 |
| 20260830222007 | 101 | 239 | 2.0 | 0.0 | 0.00 | 0.00 | 0.00 | 46 | 1004.4 |
| 20260830221903 | 101 | 240 | 2.0 | 0.0 | 0.00 | 0.00 | 0.00 | 46 | 1004.4 |
| 20260830221757 | 101 | 148 | 1.0 | 0.0 | 0.00 | 0.00 | 0.00 | 47 | 1004.4 |
| 20260830221725 | 101 | 181 | 1.0 | 0.0 | 0.00 | 0.00 | 0.00 | 46 | 1004.4 |
| 20260830221556 | 101 | 235 | 1.0 | 0.0 | 0.00 | 0.00 | 0.00 | 46 | 1004.4 |
| 20260830221501 | 101 | 217 | 1.0 | 0.0 | 0.00 | 0.00 | 0.00 | 46 | 1004.4 |
| 20260830221416 | 101 | 198 | 1.0 | 0.0 | 0.00 | 0.00 | 0.00 | 46 | 1004.4 |
| 20260830221316 | 101 | 271 | 1.0 | 0.0 | 0.00 | 0.00 | 0.00 | 46 | 1004.4 |
| 20260830221150 | 101 | 192 | 1.0 | 0.0 | 0.00 | 0.00 | 0.00 | 46 | 1004.4 |
| 20260830221051 | 102 | 188 | 1.0 | 0.0 | 0.00 | 0.00 | 0.00 | 46 | 1004.4 |
| 20260830220943 | 102 | 256 | 1.0 | 0.0 | 0.00 | 0.00 | 0.00 | 46 | 1004.4 |
| 20260830220911 | 102 | 259 | 1.0 | 0.0 | 0.00 | 0.00 | 0.00 | 46 | 1004.4 |
| 20260830220746 | 102 | 219 | 1.0 | 0.0 | 0.00 | 0.00 | 0.00 | 46 | 1004.4 |
| 20260830220703 | 102 | 217 | 1.0 | 0.0 | 0.00 | 0.00 | 0.00 | 46 | 1004.4 |
| 20260830220604 | 102 | 97 | 2.0 | 0.0 | 0.00 | 0.00 | 0.00 | 46 | 1004.4 |
| 20260830220458 | 102 | 123 | 2.0 | 0.0 | 0.00 | 0.00 | 0.00 | 46 | 1004.4 |
| 20260830220418 | 102 | 150 | 2.0 | 0.0 | 0.00 | 0.00 | 0.00 | 46 | 1004.4 |
| 20260830220252 | 102 | 112 | 2.0 | 0.0 | 0.00 | 0.00 | 0.00 | 46 | 1004.4 |
| 20260830220146 | 102 | 328 | 2.0 | 0.0 | 0.00 | 0.00 | 0.00 | 46 | 1004.4 |
| 20260830220051 | 102 | 142 | 2.0 | 0.0 | 0.00 | 0.00 | 0.00 | 46 | 1004.4 |
| 20260830215946 | 102 | 145 | 2.0 | 0.0 | 0.00 | 0.00 | 0.00 | 46 | 1004.4 |
| 20260830215910 | 102 | 222 | 2.0 | 0.0 | 0.00 | 0.00 | 0.00 | 46 | 1004.4 |
| 20260830215802 | 102 | 221 | 2.0 | 0.0 | 0.00 | 0.00 | 0.00 | 47 | 1004.4 |
| 20260830215657 | 102 | 221 | 2.0 | 0.0 | 0.00 | 0.00 | 0.00 | 46 | 1004.4 |
| 20260830215601 | 102 | 218 | 1.0 | 0.0 | 0.00 | 0.00 | 0.00 | 46 | 1004.4 |
| 20260830215451 | 102 | 219 | 1.0 | 0.0 | 0.00 | 0.00 | 0.00 | 45 | 1004.4 |
| 20260830215359 | 102 | 68 | 2.0 | 0.0 | 0.00 | 0.00 | 0.00 | 45 | 1004.4 |
| 20260830215253 | 102 | 349 | 2.0 | 0.0 | 0.00 | 0.00 | 0.00 | 45 | 1004.4 |
| 20260830215154 | 102 | 126 | 2.0 | 0.0 | 0.00 | 0.00 | 0.00 | 45 | 1004.4 |
| 20260830215113 | 102 | 225 | 2.0 | 0.0 | 0.00 | 0.00 | 0.00 | 45 | 1004.4 |
| 20260830215014 | 102 | 202 | 2.0 | 0.0 | 0.00 | 0.00 | 0.00 | 45 | 1004.5 |
| 20260830214846 | 102 | 223 | 1.0 | 0.0 | 0.00 | 0.00 | 0.00 | 45 | 1004.5 |
| 20260830214758 | 103 | 149 | 1.0 | 0.0 | 0.00 | 0.00 | 0.00 | 45 | 1004.5 |
| 20260830214659 | 103 | 225 | 1.0 | 0.0 | 0.00 | 0.00 | 0.00 | 44 | 1004.5 |
| 20260830214552 | 103 | 211 | 1.0 | 0.0 | 0.00 | 0.00 | 0.00 | 44 | 1004.5 |
| 20260830214458 | 103 | 169 | 1.0 | 0.0 | 0.00 | 0.00 | 0.00 | 44 | 1004.5 |
| 20260830214356 | 103 | 169 | 1.0 | 0.0 | 0.00 | 0.00 | 0.00 | 44 | 1004.5 |
| 20260830214249 | 103 | 98 | 1.0 | 0.0 | 0.00 | 0.00 | 0.00 | 44 | 1004.5 |
| 20260830214151 | 103 | 79 | 1.0 | 0.0 | 0.00 | 0.00 | 0.00 | 44 | 1004.5 |
| 20260830214041 | 103 | 254 | 2.0 | 0.0 | 0.00 | 0.00 | 0.00 | 43 | 1004.5 |
| 20260830214008 | 103 | 53 | 2.0 | 0.0 | 0.00 | 0.00 | 0.00 | 43 | 1004.5 |
| 20260830213854 | 103 | 170 | 2.0 | 0.0 | 0.00 | 0.00 | 0.00 | 43 | 1004.5 |
| 20260830213051 | 103 | 182 | 2.0 | 0.0 | 0.00 | 0.00 | 0.00 | 43 | 1004.5 |
| 20260830213012 | 103 | 188 | 2.0 | 0.0 | 0.00 | 0.00 | 0.00 | 43 | 1004.5 |
| 20260830212903 | 103 | 211 | 2.0 | 0.0 | 0.00 | 0.00 | 0.00 | 43 | 1004.5 |
| 20260830212807 | 103 | 199 | 1.0 | 0.0 | 0.00 | 0.00 | 0.00 | 42 | 1004.5 |
| 20260830212719 | 103 | 163 | 1.0 | 0.0 | 0.00 | 0.00 | 0.00 | 42 | 1004.5 |
| 20260830212604 | 103 | 180 | 1.0 | 0.0 | 0.00 | 0.00 | 0.00 | 41 | 1004.5 |
| 20260830212455 | 104 | 191 | 0.0 | 0.0 | 0.00 | 0.00 | 0.00 | 41 | 1004.5 |
| 20260830212355 | 104 | 304 | 0.0 | 0.0 | 0.00 | 0.00 | 0.00 | 41 | 1004.5 |
| 20260830212316 | 104 | 292 | 1.0 | 0.0 | 0.00 | 0.00 | 0.00 | 41 | 1004.5 |
| 20260830212206 | 104 | 212 | 1.0 | 0.0 | 0.00 | 0.00 | 0.00 | 41 | 1004.5 |
| 20260830212113 | 104 | 136 | 1.0 | 0.0 | 0.00 | 0.00 | 0.00 | 41 | 1004.5 |
| 20260830212007 | 104 | 157 | 1.0 | 0.0 | 0.00 | 0.00 | 0.00 | 41 | 1005.0 |
| 20260830211910 | 103 | 14 | 1.0 | 0.0 | 0.00 | 0.00 | 0.00 | 41 | 1005.0 |
| 20260830211810 | 103 | 87 | 1.0 | 0.0 | 0.00 | 0.00 | 0.00 | 41 | 1005.0 |
| 20260830211713 | 103 | 65 | 1.0 | 0.0 | 0.00 | 0.00 | 0.00 | 41 | 1005.0 |
| 20260830211545 | 103 | 192 | 1.0 | 0.0 | 0.00 | 0.00 | 0.00 | 40 | 1005.0 |
| 20260830211456 | 103 | 181 | 2.0 | 0.0 | 0.00 | 0.00 | 0.00 | 40 | 1005.0 |
| 20260830211400 | 103 | 250 | 2.0 | 0.0 | 0.00 | 0.00 | 0.00 | 40 | 1005.0 |
| 20260830211252 | 103 | 196 | 2.0 | 0.0 | 0.00 | 0.00 | 0.00 | 40 | 1005.0 |
| 20260830211144 | 103 | 50 | 2.0 | 0.0 | 0.00 | 0.00 | 0.00 | 40 | 1005.0 |
| 20260830211054 | 103 | 91 | 2.0 | 0.0 | 0.00 | 0.00 | 0.00 | 40 | 1005.0 |
| 20260830211007 | 103 | 211 | 2.0 | 0.0 | 0.00 | 0.00 | 0.00 | 40 | 1005.0 |
| 20260830210908 | 103 | 192 | 2.0 | 0.0 | 0.00 | 0.00 | 0.00 | 40 | 1005.0 |
| 20260830210800 | 103 | 243 | 1.0 | 0.0 | 0.00 | 0.00 | 0.00 | 40 | 1005.0 |
| 20260830210701 | 103 | 71 | 1.0 | 0.0 | 0.00 | 0.00 | 0.00 | 40 | 1005.0 |
| 20260830210619 | 103 | 207 | 1.0 | 0.0 | 0.00 | 0.00 | 0.00 | 40 | 1005.0 |
| 20260830210458 | 103 | 209 | 1.0 | 0.0 | 0.00 | 0.00 | 0.00 | 40 | 1005.1 |
| 20260830210354 | 103 | 178 | 1.0 | 0.0 | 0.00 | 0.00 | 0.00 | 40 | 1005.1 |
| 20260830210315 | 103 | 343 | 1.0 | 0.0 | 0.00 | 0.00 | 0.00 | 40 | 1005.1 |
| 20260830210150 | 103 | 114 | 1.0 | 0.0 | 0.00 | 0.00 | 0.00 | 40 | 1005.1 |
| 20260830210117 | 103 | 199 | 1.0 | 0.0 | 0.00 | 0.00 | 0.00 | 40 | 1005.1 |
| 20260830205948 | 103 | 197 | 2.0 | 0.0 | 0.00 | 0.00 | 0.00 | 40 | 1005.1 |
| 20260830205846 | 103 | 215 | 2.0 | 0.0 | 0.00 | 0.00 | 0.00 | 40 | 1005.1 |
| 20260830205750 | 103 | 319 | 2.0 | 0.0 | 0.00 | 0.00 | 0.00 | 40 | 1005.1 |
| 20260830205705 | 103 | 258 | 2.0 | 0.0 | 0.00 | 0.00 | 0.00 | 40 | 1005.1 |
| 20260830205606 | 104 | 186 | 2.0 | 0.0 | 0.00 | 0.00 | 0.00 | 40 | 1005.1 |
| 20260830205503 | 103 | 180 | 2.0 | 0.0 | 0.00 | 0.00 | 0.00 | 40 | 1005.1 |
| 20260830205424 | 103 | 171 | 2.0 | 0.0 | 0.00 | 0.00 | 0.00 | 40 | 1005.1 |
| 20260830205259 | 103 | 202 | 2.0 | 0.0 | 0.00 | 0.00 | 0.00 | 41 | 1005.1 |
| 20260830205155 | 103 | 161 | 1.0 | 0.0 | 0.00 | 0.00 | 0.00 | 40 | 1005.1 |
| 20260830205056 | 103 | 178 | 1.0 | 0.0 | 0.00 | 0.00 | 0.00 | 40 | 1005.1 |
| 20260830204949 | 103 | 209 | 1.0 | 0.0 | 0.00 | 0.00 | 0.00 | 40 | 1005.5 |
| 20260830204914 | 103 | 117 | 1.0 | 0.0 | 0.00 | 0.00 | 0.00 | 40 | 1005.5 |
| 20260830204805 | 103 | 175 | 1.0 | 0.0 | 0.00 | 0.00 | 0.00 | 41 | 1005.5 |
| 20260830204711 | 103 | 243 | 1.0 | 0.0 | 0.00 | 0.00 | 0.00 | 41 | 1005.5 |
| 20260830204603 | 103 | 191 | 1.0 | 0.0 | 0.00 | 0.00 | 0.00 | 41 | 1005.5 |
| 20260830204506 | 103 | 66 | 1.0 | 0.0 | 0.00 | 0.00 | 0.00 | 41 | 1005.5 |
| 20260830204356 | 103 | 95 | 1.0 | 0.0 | 0.00 | 0.00 | 0.00 | 41 | 1005.5 |
| 20260830204248 | 103 | 229 | 1.0 | 0.0 | 0.00 | 0.00 | 0.00 | 41 | 1005.5 |
| 20260830204148 | 103 | 237 | 1.0 | 0.0 | 0.00 | 0.00 | 0.00 | 41 | 1005.5 |
| 20260830204109 | 103 | 269 | 1.0 | 0.0 | 0.00 | 0.00 | 0.00 | 41 | 1005.5 |
| 20260830204004 | 103 | 216 | 1.0 | 0.0 | 0.00 | 0.00 | 0.00 | 41 | 1005.5 |
| 20260830203933 | 103 | 225 | 1.0 | 0.0 | 0.00 | 0.00 | 0.00 | 41 | 1005.5 |
| 20260830203745 | 103 | 130 | 2.0 | 0.0 | 0.00 | 0.00 | 0.00 | 41 | 1005.5 |
| 20260830203657 | 103 | 76 | 2.0 | 0.0 | 0.00 | 0.00 | 0.00 | 41 | 1005.5 |
| 20260830203558 | 104 | 242 | 2.0 | 0.0 | 0.00 | 0.00 | 0.00 | 41 | 1005.5 |
| 20260830203456 | 104 | 101 | 2.0 | 0.0 | 0.00 | 0.00 | 0.00 | 41 | 1005.6 |
| 20260830203348 | 103 | 255 | 2.0 | 0.0 | 0.00 | 0.00 | 0.00 | 41 | 1005.6 |
| 20260830203252 | 103 | 100 | 2.0 | 0.0 | 0.00 | 0.00 | 0.00 | 41 | 1005.6 |
| 20260830203148 | 104 | 215 | 2.0 | 0.0 | 0.00 | 0.00 | 0.00 | 41 | 1005.6 |
| 20260830203112 | 104 | 90 | 2.0 | 0.0 | 0.00 | 0.00 | 0.00 | 41 | 1005.6 |
| 20260830202944 | 104 | 218 | 2.0 | 0.0 | 0.00 | 0.00 | 0.00 | 40 | 1005.6 |
| 20260830202858 | 104 | 181 | 2.0 | 0.0 | 0.00 | 0.00 | 0.00 | 41 | 1005.6 |
| 20260830202806 | 104 | 201 | 1.0 | 0.0 | 0.00 | 0.00 | 0.00 | 41 | 1005.6 |
| 20260830202700 | 104 | 219 | 1.0 | 0.0 | 0.00 | 0.00 | 0.00 | 41 | 1005.6 |
| 20260830202601 | 104 | 205 | 1.0 | 0.0 | 0.00 | 0.00 | 0.00 | 40 | 1005.7 |
| 20260830202506 | 105 | 165 | 1.0 | 0.0 | 0.00 | 0.00 | 0.00 | 40 | 1005.7 |
| 20260830202358 | 105 | 111 | 1.0 | 0.0 | 0.00 | 0.00 | 0.00 | 41 | 1005.7 |
| 20260830202250 | 105 | 176 | 1.0 | 0.0 | 0.00 | 0.00 | 0.00 | 41 | 1005.7 |
| 20260830202152 | 104 | 156 | 1.0 | 0.0 | 0.00 | 0.00 | 0.00 | 41 | 1005.6 |
| 20260830202103 | 104 | 184 | 1.0 | 0.0 | 0.00 | 0.00 | 0.00 | 41 | 1005.6 |
| 20260830202005 | 104 | 166 | 1.0 | 0.0 | 0.00 | 0.00 | 0.00 | 41 | 1006.1 |
| 20260830201857 | 104 | 207 | 1.0 | 0.0 | 0.00 | 0.00 | 0.00 | 41 | 1006.1 |
| 20260830201822 | 104 | 207 | 1.0 | 0.0 | 0.00 | 0.00 | 0.00 | 41 | 1006.1 |
| 20260830201654 | 104 | 210 | 1.0 | 0.0 | 0.00 | 0.00 | 0.00 | 41 | 1006.1 |
| 20260830201616 | 104 | 186 | 1.0 | 0.0 | 0.00 | 0.00 | 0.00 | 41 | 1006.1 |
| 20260830201447 | 104 | 115 | 2.0 | 0.0 | 0.00 | 0.00 | 0.00 | 40 | 1006.1 |
| 20260830201404 | 104 | 238 | 2.0 | 0.0 | 0.00 | 0.00 | 0.00 | 40 | 1006.1 |
| 20260830201251 | 104 | 71 | 2.0 | 0.0 | 0.00 | 0.00 | 0.00 | 40 | 1006.1 |
| 20260830201203 | 104 | 104 | 2.0 | 0.0 | 0.00 | 0.00 | 0.00 | 40 | 1006.1 |
| 20260830201104 | 104 | 161 | 2.0 | 0.0 | 0.00 | 0.00 | 0.00 | 40 | 1006.1 |
| 20260830201000 | 104 | 79 | 2.0 | 0.0 | 0.00 | 0.00 | 0.00 | 40 | 1006.1 |
| 20260830200856 | 105 | 215 | 2.0 | 0.0 | 0.00 | 0.00 | 0.00 | 40 | 1006.1 |
| 20260830200758 | 105 | 202 | 2.0 | 0.0 | 0.00 | 0.00 | 0.00 | 40 | 1006.1 |
| 20260830200649 | 105 | 165 | 1.0 | 0.0 | 0.00 | 0.00 | 0.00 | 40 | 1006.1 |
| 20260830200613 | 105 | 214 | 1.0 | 0.0 | 0.00 | 0.00 | 0.00 | 40 | 1006.1 |
| 20260830200508 | 105 | 186 | 1.0 | 0.0 | 0.00 | 0.00 | 0.00 | 40 | 1006.5 |
| 20260830200411 | 105 | 197 | 1.0 | 0.0 | 0.00 | 0.00 | 0.00 | 40 | 1006.5 |
| 20260830200247 | 104 | 225 | 1.0 | 0.0 | 0.00 | 0.00 | 0.00 | 40 | 1006.5 |
| 20260830200201 | 104 | 102 | 1.0 | 0.0 | 0.00 | 0.00 | 0.00 | 40 | 1006.5 |
| 20260830200106 | 104 | 102 | 1.0 | 0.0 | 0.00 | 0.00 | 0.00 | 40 | 1006.5 |
| 20260830195958 | 104 | 222 | 1.0 | 0.0 | 0.00 | 0.00 | 0.00 | 40 | 1006.5 |
| 20260830195854 | 104 | 178 | 1.0 | 0.0 | 0.00 | 0.00 | 0.00 | 40 | 1006.5 |
| 20260830195759 | 104 | 238 | 1.0 | 0.0 | 0.00 | 0.00 | 0.00 | 40 | 1006.5 |
| 20260830195711 | 104 | 194 | 1.0 | 0.0 | 0.00 | 0.00 | 0.00 | 40 | 1006.5 |
| 20260830195612 | 104 | 96 | 1.0 | 0.0 | 0.00 | 0.00 | 0.00 | 40 | 1006.5 |
| 20260830195448 | 105 | 184 | 2.0 | 0.0 | 0.00 | 0.00 | 0.00 | 40 | 1006.5 |
| 20260830195355 | 105 | 176 | 1.0 | 0.0 | 0.00 | 0.00 | 0.00 | 40 | 1006.5 |
| 20260830195318 | 104 | 186 | 1.0 | 0.0 | 0.00 | 0.00 | 0.00 | 40 | 1006.5 |
| 20260830195208 | 104 | 184 | 1.0 | 0.0 | 0.00 | 0.00 | 0.00 | 41 | 1006.5 |
| 20260830195101 | 104 | 213 | 1.0 | 0.0 | 0.00 | 0.00 | 0.00 | 40 | 1006.5 |
| 20260830194953 | 105 | 279 | 1.0 | 0.0 | 0.00 | 0.00 | 0.00 | 40 | 1006.6 |
| 20260830194858 | 105 | 76 | 1.0 | 0.0 | 0.00 | 0.00 | 0.00 | 41 | 1006.6 |
| 20260830194754 | 105 | 135 | 1.0 | 0.0 | 0.00 | 0.00 | 0.00 | 40 | 1006.6 |
| 20260830194656 | 105 | 151 | 1.0 | 0.0 | 0.00 | 0.00 | 0.00 | 41 | 1006.6 |
| 20260830194547 | 104 | 205 | 1.0 | 0.0 | 0.00 | 0.00 | 0.00 | 40 | 1006.6 |
| 20260830194515 | 104 | 222 | 1.0 | 0.0 | 0.00 | 0.00 | 0.00 | 40 | 1006.6 |
| 20260830194348 | 104 | 180 | 1.0 | 0.0 | 0.00 | 0.00 | 0.00 | 41 | 1006.6 |
| 20260830194302 | 104 | 214 | 1.0 | 0.0 | 0.00 | 0.00 | 0.00 | 41 | 1006.6 |
| 20260830194204 | 104 | 173 | 1.0 | 0.0 | 0.00 | 0.00 | 0.00 | 41 | 1006.6 |
| 20260830194059 | 104 | 226 | 1.0 | 0.0 | 0.00 | 0.00 | 0.00 | 40 | 1006.6 |
| 20260830193955 | 104 | 199 | 1.0 | 0.0 | 0.00 | 0.00 | 0.00 | 40 | 1006.6 |
| 20260830193857 | 104 | 227 | 1.0 | 0.0 | 0.00 | 0.00 | 0.00 | 41 | 1006.6 |
| 20260830193750 | 104 | 177 | 1.0 | 0.0 | 0.00 | 0.00 | 0.00 | 41 | 1006.6 |
| 20260830193711 | 104 | 229 | 1.0 | 0.0 | 0.00 | 0.00 | 0.00 | 41 | 1006.6 |
| 20260830193543 | 104 | 178 | 1.0 | 0.0 | 0.00 | 0.00 | 0.00 | 41 | 1007.1 |
| 20260830193459 | 104 | 233 | 1.0 | 0.0 | 0.00 | 0.00 | 0.00 | 41 | 1007.1 |
| 20260830193405 | 104 | 205 | 1.0 | 0.0 | 0.00 | 0.00 | 0.00 | 41 | 1007.1 |
| 20260830193301 | 104 | 192 | 1.0 | 0.0 | 0.00 | 0.00 | 0.00 | 41 | 1007.1 |
| 20260830193153 | 104 | 177 | 1.0 | 0.0 | 0.00 | 0.00 | 0.00 | 41 | 1007.1 |
| 20260830193055 | 104 | 146 | 1.0 | 0.0 | 0.00 | 0.00 | 0.00 | 41 | 1007.1 |
| 20260830192948 | 104 | 226 | 1.0 | 0.0 | 0.00 | 0.00 | 0.00 | 41 | 1007.1 |
| 20260830192909 | 104 | 242 | 1.0 | 0.0 | 0.00 | 0.00 | 0.00 | 41 | 1007.1 |
| 20260830192800 | 104 | 84 | 1.0 | 0.0 | 0.00 | 0.00 | 0.00 | 40 | 1007.1 |
| 20260830192706 | 104 | 119 | 1.0 | 0.0 | 0.00 | 0.00 | 0.00 | 40 | 1007.1 |
| 20260830192558 | 104 | 87 | 1.0 | 0.0 | 0.00 | 0.00 | 0.00 | 39 | 1007.1 |
| 20260830192450 | 105 | 215 | 1.0 | 0.0 | 0.00 | 0.00 | 0.00 | 39 | 1007.1 |
| 20260830192351 | 105 | 102 | 1.0 | 0.0 | 0.00 | 0.00 | 0.00 | 39 | 1007.1 |
| 20260830192305 | 105 | 178 | 1.0 | 0.0 | 0.00 | 0.00 | 0.00 | 39 | 1007.1 |
| 20260830192225 | 105 | 127 | 1.0 | 0.0 | 0.00 | 0.00 | 0.00 | 39 | 1007.1 |
| 20260830192058 | 105 | 199 | 1.0 | 0.0 | 0.00 | 0.00 | 0.00 | 40 | 1007.1 |
| 20260830192002 | 105 | 226 | 1.0 | 0.0 | 0.00 | 0.00 | 0.00 | 40 | 1007.2 |
| 20260830191859 | 105 | 180 | 1.0 | 0.0 | 0.00 | 0.00 | 0.00 | 41 | 1007.2 |
| 20260830191751 | 105 | 224 | 1.0 | 0.0 | 0.00 | 0.00 | 0.00 | 40 | 1007.2 |
| 20260830191655 | 105 | 163 | 1.0 | 0.0 | 0.00 | 0.00 | 0.00 | 41 | 1007.2 |
| 20260830191550 | 105 | 228 | 1.0 | 0.0 | 0.00 | 0.00 | 0.00 | 41 | 1007.2 |
| 20260830191510 | 104 | 215 | 1.0 | 0.0 | 0.00 | 0.00 | 0.00 | 41 | 1007.2 |
| 20260830191346 | 104 | 227 | 1.0 | 0.0 | 0.00 | 0.00 | 0.00 | 42 | 1007.2 |
| 20260830191258 | 104 | 200 | 1.0 | 0.0 | 0.00 | 0.00 | 0.00 | 41 | 1007.2 |
| 20260830191204 | 104 | 200 | 1.0 | 0.0 | 0.00 | 0.00 | 0.00 | 41 | 1007.2 |
| 20260830191056 | 104 | 140 | 1.0 | 0.0 | 0.00 | 0.00 | 0.00 | 41 | 1007.2 |
| 20260830190947 | 104 | 174 | 1.0 | 0.0 | 0.00 | 0.00 | 0.00 | 41 | 1007.2 |
| 20260830190911 | 104 | 169 | 1.0 | 0.0 | 0.00 | 0.00 | 0.00 | 41 | 1007.2 |
| 20260830190812 | 104 | 117 | 0.0 | 0.0 | 0.00 | 0.00 | 0.00 | 41 | 1007.2 |
| 20260830190645 | 104 | 236 | 0.0 | 0.0 | 0.00 | 0.00 | 0.00 | 42 | 1007.2 |
| 20260830190559 | 104 | 294 | 1.0 | 0.0 | 0.00 | 0.00 | 0.00 | 43 | 1007.2 |
| 20260830190448 | 104 | 213 | 1.0 | 0.0 | 0.00 | 0.00 | 0.00 | 42 | 1007.6 |
| 20260830190358 | 104 | 204 | 1.0 | 0.0 | 0.00 | 0.00 | 0.00 | 43 | 1007.6 |
| 20260830190259 | 103 | 217 | 1.0 | 0.0 | 0.00 | 0.00 | 0.00 | 42 | 1007.6 |
| 20260830190210 | 103 | 261 | 1.0 | 0.0 | 0.00 | 0.00 | 0.00 | 43 | 1007.6 |
| 20260830190051 | 103 | 167 | 1.0 | 0.0 | 0.00 | 0.00 | 0.00 | 43 | 1007.6 |
| 20260830190004 | 103 | 201 | 1.0 | 0.0 | 0.00 | 0.00 | 0.00 | 43 | 1007.6 |
| 20260830185906 | 103 | 220 | 1.0 | 0.0 | 0.00 | 0.00 | 0.00 | 43 | 1007.6 |
| 20260830185759 | 103 | 200 | 1.0 | 0.0 | 0.00 | 0.00 | 0.00 | 43 | 1007.6 |
| 20260830185724 | 103 | 215 | 1.0 | 0.0 | 0.00 | 0.00 | 0.00 | 43 | 1007.6 |
| 20260830185554 | 103 | 209 | 1.0 | 0.0 | 0.00 | 0.00 | 0.00 | 44 | 1007.6 |
| 20260830185522 | 103 | 113 | 1.0 | 0.0 | 0.00 | 0.00 | 0.00 | 43 | 1007.6 |
| 20260830185351 | 103 | 173 | 1.0 | 0.0 | 0.00 | 0.00 | 0.00 | 43 | 1007.6 |
| 20260830185259 | 103 | 174 | 1.0 | 0.0 | 0.00 | 0.00 | 0.00 | 43 | 1007.6 |
| 20260830185152 | 103 | 166 | 1.0 | 0.0 | 0.00 | 0.00 | 0.00 | 44 | 1007.6 |
| 20260830185116 | 103 | 197 | 1.0 | 0.0 | 0.00 | 0.00 | 0.00 | 44 | 1007.6 |
| 20260830184947 | 102 | 103 | 1.0 | 0.0 | 0.00 | 0.00 | 0.00 | 44 | 1007.8 |
| 20260830184911 | 102 | 103 | 1.0 | 0.0 | 0.00 | 0.00 | 0.00 | 44 | 1007.8 |
| 20260830184816 | 102 | 103 | 1.0 | 0.0 | 0.00 | 0.00 | 0.00 | 44 | 1007.8 |
| 20260830184722 | 102 | 103 | 2.0 | 0.0 | 0.00 | 0.00 | 0.00 | 44 | 1007.8 |
| 20260830184602 | 102 | 103 | 1.0 | 0.0 | 0.00 | 0.00 | 0.00 | 44 | 1007.8 |
| 20260830184503 | 102 | 103 | 2.0 | 0.0 | 0.00 | 0.00 | 0.00 | 44 | 1007.8 |
| 20260830184404 | 102 | 88 | 2.0 | 0.0 | 0.00 | 0.00 | 0.00 | 44 | 1007.8 |
| 20260830184302 | 103 | 101 | 2.0 | 0.0 | 0.00 | 0.00 | 0.00 | 44 | 1007.8 |
| 20260830184202 | 103 | 232 | 1.0 | 0.0 | 0.00 | 0.00 | 0.00 | 44 | 1007.8 |
| 20260830184057 | 103 | 227 | 1.0 | 0.0 | 0.00 | 0.00 | 0.00 | 45 | 1007.8 |
| 20260830184024 | 103 | 205 | 2.0 | 0.0 | 0.00 | 0.00 | 0.00 | 44 | 1007.8 |
| 20260830183915 | 103 | 60 | 1.0 | 0.0 | 0.00 | 0.00 | 0.00 | 44 | 1007.8 |
| 20260830183758 | 103 | 242 | 1.0 | 0.0 | 0.00 | 0.00 | 0.00 | 44 | 1007.8 |
| 20260830183712 | 103 | 176 | 1.0 | 0.0 | 0.00 | 0.00 | 0.00 | 45 | 1007.8 |
| 20260830183556 | 102 | 205 | 1.0 | 0.0 | 0.00 | 0.00 | 0.00 | 45 | 1007.8 |
| 20260830183449 | 102 | 217 | 1.0 | 0.0 | 0.00 | 0.00 | 0.00 | 45 | 1008.2 |
| 20260830183414 | 102 | 175 | 1.0 | 0.0 | 0.00 | 0.00 | 0.00 | 45 | 1008.2 |
| 20260830183253 | 102 | 215 | 1.0 | 0.0 | 0.00 | 0.00 | 0.00 | 45 | 1008.2 |
| 20260830183204 | 102 | 202 | 2.0 | 0.0 | 0.00 | 0.00 | 0.00 | 45 | 1008.2 |
| 20260830183109 | 102 | 201 | 2.0 | 0.0 | 0.00 | 0.00 | 0.00 | 45 | 1008.2 |
| 20260830183001 | 102 | 192 | 2.0 | 0.0 | 0.00 | 0.00 | 0.00 | 45 | 1008.2 |
| 20260830182854 | 102 | 175 | 2.0 | 0.0 | 0.00 | 0.00 | 0.00 | 46 | 1008.2 |
| 20260830182816 | 102 | 211 | 2.0 | 0.0 | 0.00 | 0.00 | 0.00 | 46 | 1008.2 |
| 20260830182648 | 102 | 165 | 2.0 | 0.0 | 0.00 | 0.00 | 0.00 | 46 | 1008.2 |
| 20260830182550 | 102 | 106 | 2.0 | 0.0 | 0.00 | 0.00 | 0.00 | 46 | 1008.2 |
| 20260830182452 | 102 | 169 | 2.0 | 0.0 | 0.00 | 0.00 | 0.00 | 46 | 1008.2 |
| 20260830182400 | 102 | 169 | 2.0 | 0.0 | 0.00 | 0.00 | 0.00 | 46 | 1008.2 |
| 20260830182318 | 102 | 169 | 2.0 | 0.0 | 0.00 | 0.00 | 0.00 | 46 | 1008.2 |
| 20260830182203 | 102 | 169 | 2.0 | 0.0 | 0.00 | 0.00 | 0.00 | 46 | 1008.2 |
| 20260830182057 | 102 | 171 | 2.0 | 0.0 | 0.00 | 0.00 | 0.00 | 46 | 1008.2 |
| 20260830181959 | 102 | 185 | 1.0 | 0.0 | 0.00 | 0.00 | 0.00 | 45 | 1008.3 |
| 20260830181850 | 102 | 233 | 1.0 | 0.0 | 0.00 | 0.00 | 0.00 | 45 | 1008.3 |
| 20260830181751 | 102 | 205 | 1.0 | 0.0 | 0.00 | 0.00 | 0.00 | 46 | 1008.3 |
| 20260830181652 | 102 | 190 | 1.0 | 0.0 | 0.00 | 0.00 | 0.00 | 46 | 1008.3 |
| 20260830181608 | 102 | 205 | 1.0 | 0.0 | 0.00 | 0.00 | 0.00 | 47 | 1008.3 |
| 20260830181508 | 102 | 174 | 1.0 | 0.0 | 0.00 | 0.00 | 0.00 | 47 | 1008.3 |
| 20260830181430 | 102 | 180 | 1.0 | 0.0 | 0.00 | 0.00 | 0.00 | 47 | 1008.3 |
| 20260830181301 | 102 | 199 | 1.0 | 0.0 | 0.00 | 0.00 | 0.00 | 47 | 1008.3 |
| 20260830181221 | 102 | 171 | 1.0 | 0.0 | 0.00 | 0.00 | 0.00 | 47 | 1008.3 |
| 20260830181055 | 102 | 205 | 1.0 | 0.0 | 0.00 | 0.00 | 0.00 | 47 | 1008.3 |
| 20260830181017 | 102 | 205 | 1.0 | 0.0 | 0.00 | 0.00 | 0.00 | 47 | 1008.3 |
| 20260830180856 | 102 | 218 | 1.0 | 0.0 | 0.00 | 0.00 | 0.00 | 48 | 1008.3 |
| 20260830180751 | 102 | 212 | 1.0 | 0.0 | 0.00 | 0.00 | 0.00 | 48 | 1008.3 |
| 20260830180652 | 102 | 186 | 1.0 | 0.0 | 0.00 | 0.00 | 0.00 | 48 | 1008.3 |
| 20260830180543 | 101 | 205 | 1.0 | 0.0 | 0.00 | 0.00 | 0.00 | 48 | 1008.5 |
| 20260830180511 | 101 | 119 | 2.0 | 0.0 | 0.00 | 0.00 | 0.00 | 48 | 1008.5 |
| 20260830180403 | 101 | 80 | 2.0 | 0.0 | 0.00 | 0.00 | 0.00 | 48 | 1008.5 |
| 20260830180254 | 101 | 284 | 2.0 | 0.0 | 0.00 | 0.00 | 0.00 | 48 | 1008.5 |
| 20260830180221 | 101 | 107 | 3.0 | 0.0 | 0.00 | 0.00 | 0.00 | 47 | 1008.5 |
| 20260830180056 | 101 | 153 | 3.0 | 0.0 | 0.00 | 0.00 | 0.00 | 48 | 1008.5 |
| 20260830180004 | 101 | 198 | 2.0 | 0.0 | 0.00 | 0.00 | 0.00 | 48 | 1008.5 |
| 20260830175916 | 101 | 185 | 2.0 | 0.0 | 0.00 | 0.00 | 0.00 | 48 | 1008.5 |
| 20260830175756 | 101 | 103 | 3.0 | 0.0 | 0.00 | 0.00 | 0.00 | 49 | 1008.5 |
| 20260830175649 | 101 | 145 | 3.0 | 0.0 | 0.00 | 0.00 | 0.00 | 49 | 1008.5 |
| 20260830175609 | 101 | 157 | 2.0 | 0.0 | 0.00 | 0.00 | 0.00 | 49 | 1008.5 |
| 20260830175507 | 101 | 168 | 2.0 | 0.0 | 0.00 | 0.00 | 0.00 | 49 | 1008.5 |
| 20260830175352 | 101 | 229 | 2.0 | 0.0 | 0.00 | 0.00 | 0.00 | 49 | 1008.5 |
| 20260830175306 | 101 | 226 | 1.0 | 0.0 | 0.00 | 0.00 | 0.00 | 49 | 1008.5 |
| 20260830175207 | 101 | 93 | 1.0 | 0.0 | 0.00 | 0.00 | 0.00 | 48 | 1008.5 |
| 20260830175058 | 101 | 98 | 1.0 | 0.0 | 0.00 | 0.00 | 0.00 | 48 | 1008.5 |
| 20260830174952 | 101 | 186 | 1.0 | 0.0 | 0.00 | 0.00 | 0.00 | 49 | 1008.8 |
| 20260830174858 | 101 | 184 | 1.0 | 0.0 | 0.00 | 0.00 | 0.00 | 49 | 1008.8 |
| 20260830174749 | 101 | 167 | 1.0 | 0.0 | 0.00 | 0.00 | 0.00 | 49 | 1008.8 |
| 20260830174651 | 101 | 188 | 1.0 | 0.0 | 0.00 | 0.00 | 0.00 | 50 | 1008.8 |
| 20260830174607 | 101 | 189 | 1.0 | 0.0 | 0.00 | 0.00 | 0.00 | 50 | 1008.8 |
| 20260830174509 | 101 | 201 | 1.0 | 0.0 | 0.00 | 0.00 | 0.00 | 50 | 1008.8 |
| 20260830174401 | 100 | 180 | 1.0 | 0.0 | 0.00 | 0.00 | 0.00 | 50 | 1008.8 |
| 20260830174301 | 100 | 132 | 1.0 | 0.0 | 0.00 | 0.00 | 0.00 | 51 | 1008.8 |
| 20260830174155 | 100 | 183 | 2.0 | 0.0 | 0.00 | 0.00 | 0.00 | 51 | 1008.8 |
| 20260830174115 | 100 | 224 | 1.0 | 0.0 | 0.00 | 0.00 | 0.00 | 50 | 1008.8 |
| 20260830173949 | 100 | 224 | 2.0 | 0.0 | 0.00 | 0.00 | 0.00 | 50 | 1008.8 |
| 20260830173909 | 100 | 180 | 2.0 | 0.0 | 0.00 | 0.00 | 0.00 | 50 | 1008.8 |
| 20260830173749 | 100 | 203 | 2.0 | 0.0 | 0.00 | 0.00 | 0.00 | 49 | 1008.8 |
| 20260830173701 | 100 | 223 | 2.0 | 0.0 | 0.00 | 0.00 | 0.00 | 49 | 1008.8 |
| 20260830173602 | 100 | 217 | 2.0 | 0.0 | 0.00 | 0.00 | 0.00 | 50 | 1008.8 |
| 20260830173453 | 100 | 154 | 2.0 | 0.0 | 0.00 | 0.00 | 0.00 | 50 | 1009.2 |
| 20260830173351 | 100 | 173 | 2.0 | 0.0 | 0.00 | 0.00 | 0.00 | 50 | 1009.2 |
| 20260830173250 | 100 | 224 | 2.0 | 0.0 | 0.00 | 0.00 | 0.00 | 50 | 1009.2 |
| 20260830173218 | 100 | 229 | 2.0 | 0.0 | 0.00 | 0.00 | 0.00 | 50 | 1009.2 |
| 20260830173108 | 100 | 186 | 2.0 | 0.0 | 0.00 | 0.00 | 0.00 | 50 | 1009.2 |
| 20260830173014 | 99 | 198 | 2.0 | 0.0 | 0.00 | 0.00 | 0.00 | 50 | 1009.2 |
| 20260830172924 | 99 | 205 | 2.0 | 0.0 | 0.00 | 0.00 | 0.00 | 50 | 1009.2 |
| 20260830172755 | 99 | 194 | 1.0 | 0.0 | 0.00 | 0.00 | 0.00 | 51 | 1009.2 |
| 20260830172717 | 99 | 244 | 2.0 | 0.0 | 0.00 | 0.00 | 0.00 | 51 | 1009.2 |
| 20260830172549 | 99 | 221 | 2.0 | 0.0 | 0.00 | 0.00 | 0.00 | 51 | 1009.2 |
| 20260830172509 | 99 | 238 | 2.0 | 0.0 | 0.00 | 0.00 | 0.00 | 51 | 1009.2 |
| 20260830172414 | 99 | 152 | 2.0 | 0.0 | 0.00 | 0.00 | 0.00 | 51 | 1009.2 |
| 20260830172245 | 99 | 244 | 2.0 | 0.0 | 0.00 | 0.00 | 0.00 | 51 | 1009.2 |
| 20260830172214 | 99 | 178 | 2.0 | 0.0 | 0.00 | 0.00 | 0.00 | 51 | 1009.2 |
| 20260830172048 | 99 | 208 | 2.0 | 0.0 | 0.00 | 0.00 | 0.00 | 52 | 1009.2 |
| 20260830172001 | 99 | 181 | 2.0 | 0.0 | 0.00 | 0.00 | 0.00 | 52 | 1009.3 |
| 20260830171902 | 99 | 163 | 2.0 | 0.0 | 0.00 | 0.00 | 0.00 | 52 | 1009.3 |
| 20260830171753 | 99 | 171 | 2.0 | 0.0 | 0.00 | 0.00 | 0.00 | 52 | 1009.3 |
| 20260830171718 | 99 | 215 | 2.0 | 0.0 | 0.00 | 0.00 | 0.00 | 52 | 1009.3 |
| 20260830171549 | 99 | 197 | 1.0 | 0.0 | 0.00 | 0.00 | 0.00 | 52 | 1009.3 |
| 20260830171511 | 99 | 254 | 1.0 | 0.0 | 0.00 | 0.00 | 0.00 | 52 | 1009.3 |
| 20260830171405 | 99 | 186 | 1.0 | 0.0 | 0.00 | 0.00 | 0.00 | 52 | 1009.3 |
| 20260830171306 | 99 | 171 | 1.0 | 0.0 | 0.00 | 0.00 | 0.00 | 52 | 1009.3 |
| 20260830171148 | 99 | 158 | 1.0 | 0.0 | 0.00 | 0.00 | 0.00 | 53 | 1009.3 |
| 20260830171059 | 99 | 175 | 1.0 | 0.0 | 0.00 | 0.00 | 0.00 | 53 | 1009.3 |
| 20260830171006 | 98 | 156 | 2.0 | 0.0 | 0.00 | 0.00 | 0.00 | 53 | 1009.2 |
| 20260830170900 | 98 | 221 | 2.0 | 0.0 | 0.00 | 0.00 | 0.00 | 53 | 1009.2 |
| 20260830170755 | 98 | 185 | 2.0 | 0.0 | 0.00 | 0.00 | 0.00 | 53 | 1009.2 |
| 20260830170656 | 98 | 211 | 2.0 | 0.0 | 0.00 | 0.00 | 0.00 | 53 | 1009.2 |
| 20260830170551 | 98 | 207 | 3.0 | 0.0 | 0.00 | 0.00 | 0.00 | 53 | 1009.2 |
| 20260830170459 | 98 | 207 | 3.0 | 0.0 | 0.00 | 0.00 | 0.00 | 54 | 1009.5 |
| 20260830170411 | 98 | 159 | 3.0 | 0.0 | 0.00 | 0.00 | 0.00 | 53 | 1009.5 |
| 20260830170258 | 98 | 238 | 2.0 | 0.0 | 0.00 | 0.00 | 0.00 | 53 | 1009.5 |
| 20260830170213 | 98 | 180 | 2.0 | 0.0 | 0.00 | 0.00 | 0.00 | 54 | 1009.5 |
| 20260830170054 | 98 | 173 | 2.0 | 0.0 | 0.00 | 0.00 | 0.00 | 53 | 1009.5 |
| 20260830170007 | 98 | 238 | 2.0 | 0.0 | 0.00 | 0.00 | 0.00 | 54 | 1009.5 |
| 20260830165846 | 98 | 66 | 2.0 | 0.0 | 0.00 | 0.00 | 0.00 | 54 | 1009.5 |
| 20260830165800 | 98 | 231 | 2.0 | 0.0 | 0.00 | 0.00 | 0.00 | 54 | 1009.5 |
| 20260830165705 | 98 | 202 | 2.0 | 0.0 | 0.00 | 0.00 | 0.00 | 54 | 1009.5 |
| 20260830165621 | 98 | 163 | 1.0 | 0.0 | 0.00 | 0.00 | 0.00 | 54 | 1009.5 |
| 20260830165502 | 98 | 225 | 1.0 | 0.0 | 0.00 | 0.00 | 0.00 | 54 | 1009.5 |
| 20260830165425 | 98 | 186 | 1.0 | 0.0 | 0.00 | 0.00 | 0.00 | 53 | 1009.5 |
| 20260830165254 | 98 | 213 | 1.0 | 0.0 | 0.00 | 0.00 | 0.00 | 55 | 1009.5 |
| 20260830165151 | 98 | 210 | 1.0 | 0.0 | 0.00 | 0.00 | 0.00 | 55 | 1009.5 |
| 20260830165056 | 98 | 242 | 1.0 | 0.0 | 0.00 | 0.00 | 0.00 | 55 | 1009.5 |
| 20260830165006 | 98 | 189 | 1.0 | 0.0 | 0.00 | 0.00 | 0.00 | 55 | 1009.6 |
| 20260830164911 | 98 | 188 | 1.0 | 0.0 | 0.00 | 0.00 | 0.00 | 55 | 1009.6 |
| 20260830164803 | 98 | 159 | 1.0 | 0.0 | 0.00 | 0.00 | 0.00 | 54 | 1009.6 |
| 20260830164654 | 98 | 218 | 1.0 | 0.0 | 0.00 | 0.00 | 0.00 | 55 | 1009.6 |
| 20260830164616 | 98 | 222 | 1.0 | 0.0 | 0.00 | 0.00 | 0.00 | 56 | 1009.6 |
| 20260830164447 | 98 | 153 | 1.0 | 0.0 | 0.00 | 0.00 | 0.00 | 56 | 1009.6 |
| 20260830164351 | 97 | 153 | 1.0 | 0.0 | 0.00 | 0.00 | 0.00 | 56 | 1009.6 |
| 20260830164306 | 97 | 213 | 1.0 | 0.0 | 0.00 | 0.00 | 0.00 | 56 | 1009.6 |
| 20260830164145 | 97 | 189 | 1.0 | 0.0 | 0.00 | 0.00 | 0.00 | 56 | 1009.6 |
| 20260830164104 | 97 | 217 | 1.0 | 0.0 | 0.00 | 0.00 | 0.00 | 56 | 1009.6 |
| 20260830164005 | 97 | 221 | 1.0 | 0.0 | 0.00 | 0.00 | 0.00 | 56 | 1009.6 |
| 20260830163901 | 97 | 213 | 1.0 | 0.0 | 0.00 | 0.00 | 0.00 | 57 | 1009.6 |
| 20260830163752 | 97 | 243 | 1.0 | 0.0 | 0.00 | 0.00 | 0.00 | 56 | 1009.6 |
| 20260830163652 | 97 | 177 | 1.0 | 0.0 | 0.00 | 0.00 | 0.00 | 57 | 1009.6 |
| 20260830163612 | 97 | 180 | 1.0 | 0.0 | 0.00 | 0.00 | 0.00 | 57 | 1009.6 |
| 20260830163447 | 97 | 200 | 1.0 | 0.0 | 0.00 | 0.00 | 0.00 | 57 | 1009.7 |
| 20260830163346 | 97 | 217 | 1.0 | 0.0 | 0.00 | 0.00 | 0.00 | 57 | 1009.7 |
| 20260830163311 | 97 | 206 | 1.0 | 0.0 | 0.00 | 0.00 | 0.00 | 57 | 1009.7 |
| 20260830163206 | 97 | 211 | 1.0 | 0.0 | 0.00 | 0.00 | 0.00 | 57 | 1009.7 |
| 20260830163130 | 97 | 96 | 1.0 | 0.0 | 0.00 | 0.00 | 0.00 | 58 | 1009.7 |
| 20260830162959 | 97 | 205 | 1.0 | 0.0 | 0.00 | 0.00 | 0.00 | 58 | 1009.7 |
| 20260830162904 | 96 | 229 | 1.0 | 0.0 | 0.00 | 0.00 | 0.00 | 59 | 1009.7 |
| 20260830162759 | 96 | 173 | 2.0 | 0.0 | 0.00 | 0.00 | 0.00 | 59 | 1009.7 |
| 20260830162654 | 96 | 227 | 2.0 | 0.0 | 0.00 | 0.00 | 0.00 | 59 | 1009.7 |
| 20260830162619 | 96 | 194 | 2.0 | 0.0 | 0.00 | 0.00 | 0.00 | 59 | 1009.7 |
| 20260830162523 | 96 | 224 | 2.0 | 0.0 | 0.00 | 0.00 | 0.00 | 59 | 1009.7 |
| 20260830162353 | 96 | 173 | 2.0 | 0.0 | 0.00 | 0.00 | 0.00 | 59 | 1009.7 |
| 20260830162249 | 96 | 190 | 2.0 | 0.0 | 0.00 | 0.00 | 0.00 | 59 | 1009.7 |
| 20260830162151 | 96 | 195 | 2.0 | 0.0 | 0.00 | 0.00 | 0.00 | 59 | 1009.7 |
| 20260830162104 | 96 | 299 | 2.0 | 0.0 | 0.00 | 0.00 | 0.00 | 59 | 1009.7 |
| 20260830162005 | 96 | 159 | 2.0 | 0.0 | 0.00 | 0.00 | 0.00 | 59 | 1009.8 |
| 20260830161857 | 95 | 215 | 2.0 | 0.0 | 0.00 | 0.00 | 0.00 | 59 | 1009.7 |
| 20260830161758 | 95 | 180 | 2.0 | 0.0 | 0.00 | 0.00 | 0.00 | 60 | 1009.7 |
| 20260830161654 | 95 | 148 | 2.0 | 0.0 | 0.00 | 0.00 | 0.00 | 60 | 1009.7 |
| 20260830161616 | 95 | 232 | 2.0 | 0.0 | 0.00 | 0.00 | 0.00 | 60 | 1009.7 |
| 20260830161458 | 95 | 191 | 2.0 | 0.0 | 0.00 | 0.00 | 0.00 | 60 | 1009.7 |
| 20260830161354 | 95 | 205 | 2.0 | 0.0 | 0.00 | 0.00 | 0.00 | 60 | 1009.7 |
| 20260830161314 | 95 | 74 | 2.0 | 0.0 | 0.00 | 0.00 | 0.00 | 60 | 1009.7 |
| 20260830161211 | 95 | 211 | 2.0 | 0.0 | 0.00 | 0.00 | 0.00 | 61 | 1009.7 |
| 20260830161050 | 95 | 209 | 1.0 | 0.0 | 0.00 | 0.00 | 0.00 | 61 | 1009.7 |
| 20260830161005 | 95 | 277 | 1.0 | 0.0 | 0.00 | 0.00 | 0.00 | 60 | 1009.7 |
| 20260830160906 | 95 | 215 | 1.0 | 0.0 | 0.00 | 0.00 | 0.00 | 61 | 1009.7 |
| 20260830160802 | 95 | 140 | 1.0 | 0.0 | 0.00 | 0.00 | 0.00 | 61 | 1009.7 |
| 20260830160654 | 95 | 212 | 1.0 | 0.0 | 0.00 | 0.00 | 0.00 | 62 | 1009.7 |
| 20260830160559 | 95 | 184 | 1.0 | 0.0 | 0.00 | 0.00 | 0.00 | 62 | 1009.7 |
| 20260830160451 | 95 | 169 | 1.0 | 0.0 | 0.00 | 0.00 | 0.00 | 62 | 1009.8 |
| 20260830160342 | 95 | 213 | 1.0 | 0.0 | 0.00 | 0.00 | 0.00 | 63 | 1009.8 |
| 20260830160249 | 95 | 167 | 1.0 | 0.0 | 0.00 | 0.00 | 0.00 | 63 | 1009.8 |
| 20260830160201 | 95 | 166 | 1.0 | 0.0 | 0.00 | 0.00 | 0.00 | 63 | 1009.8 |
| 20260830160107 | 94 | 180 | 1.0 | 0.0 | 0.00 | 0.00 | 0.00 | 63 | 1009.8 |
| 20260830160001 | 94 | 221 | 1.0 | 0.0 | 0.00 | 0.00 | 0.00 | 63 | 1009.8 |
| 20260830155900 | 94 | 209 | 1.0 | 0.0 | 0.00 | 0.00 | 0.00 | 64 | 1009.8 |
| 20260830155802 | 94 | 192 | 1.0 | 0.0 | 0.00 | 0.00 | 0.00 | 64 | 1009.8 |
| 20260830155657 | 94 | 173 | 1.0 | 0.0 | 0.00 | 0.00 | 0.00 | 64 | 1009.8 |
| 20260830155552 | 94 | 161 | 1.0 | 0.0 | 0.00 | 0.00 | 0.00 | 64 | 1009.8 |
| 20260830155458 | 94 | 180 | 1.0 | 0.0 | 0.00 | 0.00 | 0.00 | 64 | 1009.8 |
| 20260830155350 | 94 | 56 | 1.0 | 0.0 | 0.00 | 0.00 | 0.00 | 63 | 1009.8 |
| 20260830155311 | 94 | 85 | 1.0 | 0.0 | 0.00 | 0.00 | 0.00 | 63 | 1009.8 |
| 20260830155222 | 94 | 183 | 1.0 | 0.0 | 0.00 | 0.00 | 0.00 | 64 | 1009.8 |
| 20260830155103 | 94 | 83 | 1.0 | 0.0 | 0.00 | 0.00 | 0.00 | 64 | 1009.7 |
| 20260830154958 | 94 | 132 | 1.0 | 0.0 | 0.00 | 0.00 | 0.00 | 65 | 1009.7 |
| 20260830154900 | 94 | 217 | 1.0 | 0.0 | 0.00 | 0.00 | 0.00 | 64 | 1009.7 |
| 20260830154751 | 94 | 210 | 1.0 | 0.0 | 0.00 | 0.00 | 0.00 | 64 | 1009.7 |
| 20260830154715 | 94 | 204 | 1.0 | 0.0 | 0.00 | 0.00 | 0.00 | 64 | 1009.7 |
| 20260830154621 | 94 | 188 | 1.0 | 0.0 | 0.00 | 0.00 | 0.00 | 65 | 1009.7 |
| 20260830154454 | 94 | 58 | 1.0 | 0.0 | 0.00 | 0.00 | 0.00 | 65 | 1009.7 |
| 20260830154416 | 94 | 195 | 1.0 | 0.0 | 0.00 | 0.00 | 0.00 | 65 | 1009.7 |
| 20260830154307 | 93 | 194 | 1.0 | 0.0 | 0.00 | 0.00 | 0.00 | 65 | 1009.7 |
| 20260830154209 | 93 | 200 | 1.0 | 0.0 | 0.00 | 0.00 | 0.00 | 65 | 1009.7 |
| 20260830154104 | 93 | 171 | 1.0 | 0.0 | 0.00 | 0.00 | 0.00 | 65 | 1009.7 |
| 20260830154007 | 93 | 203 | 1.0 | 0.0 | 0.00 | 0.00 | 0.00 | 66 | 1009.7 |
| 20260830153901 | 93 | 74 | 1.0 | 0.0 | 0.00 | 0.00 | 0.00 | 67 | 1009.7 |
| 20260830153757 | 93 | 209 | 1.0 | 0.0 | 0.00 | 0.00 | 0.00 | 67 | 1009.7 |
| 20260830153702 | 93 | 85 | 1.0 | 0.0 | 0.00 | 0.00 | 0.00 | 67 | 1009.7 |
| 20260830153554 | 93 | 185 | 1.0 | 0.0 | 0.00 | 0.00 | 0.00 | 68 | 1009.7 |
| 20260830153448 | 93 | 200 | 1.0 | 0.0 | 0.00 | 0.00 | 0.00 | 68 | 1009.7 |
| 20260830153353 | 93 | 217 | 1.0 | 0.0 | 0.00 | 0.00 | 0.00 | 68 | 1009.7 |
| 20260830153244 | 93 | 212 | 1.0 | 0.0 | 0.00 | 0.00 | 0.00 | 68 | 1009.7 |
| 20260830153211 | 92 | 155 | 1.0 | 0.0 | 0.00 | 0.00 | 0.00 | 68 | 1009.7 |
| 20260830153049 | 92 | 172 | 1.0 | 0.0 | 0.00 | 0.00 | 0.00 | 69 | 1009.7 |
| 20260830153003 | 92 | 142 | 1.0 | 0.0 | 0.00 | 0.00 | 0.00 | 68 | 1009.7 |
| 20260830152904 | 92 | 158 | 1.0 | 0.0 | 0.00 | 0.00 | 0.00 | 69 | 1009.7 |
| 20260830152822 | 92 | 155 | 1.0 | 0.0 | 0.00 | 0.00 | 0.00 | 69 | 1009.7 |
| 20260830152701 | 92 | 153 | 1.0 | 0.0 | 0.00 | 0.00 | 0.00 | 69 | 1009.7 |
| 20260830152556 | 92 | 167 | 1.0 | 0.0 | 0.00 | 0.00 | 0.00 | 69 | 1009.7 |
| 20260830152450 | 91 | 225 | 1.0 | 0.0 | 0.00 | 0.00 | 0.00 | 69 | 1009.7 |
| 20260830152356 | 91 | 177 | 1.0 | 0.0 | 0.00 | 0.00 | 0.00 | 70 | 1009.7 |
| 20260830152249 | 91 | 147 | 1.0 | 0.0 | 0.00 | 0.00 | 0.00 | 70 | 1009.7 |
| 20260830152211 | 91 | 168 | 2.0 | 0.0 | 0.00 | 0.00 | 0.00 | 70 | 1009.7 |
| 20260830152124 | 91 | 160 | 2.0 | 0.0 | 0.00 | 0.00 | 0.00 | 70 | 1009.7 |
| 20260830152004 | 91 | 198 | 2.0 | 0.0 | 0.00 | 0.00 | 0.00 | 70 | 1009.7 |
| 20260830151902 | 91 | 238 | 2.0 | 0.0 | 0.00 | 0.00 | 0.00 | 70 | 1009.7 |
| 20260830151829 | 91 | 238 | 2.0 | 0.0 | 0.00 | 0.00 | 0.00 | 70 | 1009.7 |
| 20260830151724 | 91 | 238 | 2.0 | 0.0 | 0.00 | 0.00 | 0.00 | 70 | 1009.7 |
| 20260830151605 | 91 | 220 | 2.0 | 0.0 | 0.00 | 0.00 | 0.00 | 70 | 1009.7 |
| 20260830151502 | 91 | 196 | 2.0 | 0.0 | 0.00 | 0.00 | 0.00 | 70 | 1009.7 |
| 20260830151354 | 91 | 214 | 2.0 | 0.0 | 0.00 | 0.00 | 0.00 | 70 | 1009.7 |
| 20260830151255 | 91 | 185 | 2.0 | 0.0 | 0.00 | 0.00 | 0.00 | 70 | 1009.7 |
| 20260830151152 | 91 | 147 | 2.0 | 0.0 | 0.00 | 0.00 | 0.00 | 70 | 1009.7 |
| 20260830151047 | 91 | 178 | 2.0 | 0.0 | 0.00 | 0.00 | 0.00 | 70 | 1009.7 |
| 20260830150950 | 91 | 218 | 1.0 | 0.0 | 0.00 | 0.00 | 0.00 | 70 | 1009.7 |
| 20260830150912 | 91 | 218 | 1.0 | 0.0 | 0.00 | 0.00 | 0.00 | 70 | 1009.7 |
| 20260830150752 | 91 | 153 | 1.0 | 0.0 | 0.00 | 0.00 | 0.00 | 70 | 1009.7 |
| 20260830150703 | 91 | 196 | 1.0 | 0.0 | 0.00 | 0.00 | 0.00 | 70 | 1009.7 |
| 20260830150605 | 91 | 175 | 1.0 | 0.0 | 0.00 | 0.00 | 0.00 | 71 | 1009.7 |
| 20260830150517 | 91 | 242 | 1.0 | 0.0 | 0.00 | 0.00 | 0.00 | 71 | 1009.6 |
| 20260830150402 | 91 | 232 | 1.0 | 0.0 | 0.00 | 0.00 | 0.00 | 71 | 1009.6 |
| 20260830150257 | 91 | 184 | 1.0 | 0.0 | 0.00 | 0.00 | 0.00 | 71 | 1009.6 |
| 20260830150219 | 90 | 149 | 1.0 | 0.0 | 0.00 | 0.00 | 0.00 | 72 | 1009.6 |
| 20260830150049 | 90 | 155 | 1.0 | 0.0 | 0.00 | 0.00 | 0.00 | 72 | 1009.6 |
| 20260830150014 | 90 | 144 | 1.0 | 0.0 | 0.00 | 0.00 | 0.00 | 72 | 1009.6 |
| 20260830145848 | 90 | 244 | 1.0 | 0.0 | 0.00 | 0.00 | 0.00 | 72 | 1009.6 |
| 20260830145810 | 90 | 277 | 1.0 | 0.0 | 0.00 | 0.00 | 0.00 | 72 | 1009.6 |
| 20260830145704 | 90 | 217 | 2.0 | 0.0 | 0.00 | 0.00 | 0.00 | 72 | 1009.6 |
| 20260830145600 | 90 | 199 | 2.0 | 0.0 | 0.00 | 0.00 | 0.00 | 73 | 1009.6 |
| 20260830145451 | 90 | 202 | 2.0 | 0.0 | 0.00 | 0.00 | 0.00 | 73 | 1009.6 |
| 20260830145352 | 90 | 196 | 3.0 | 0.0 | 0.00 | 0.00 | 0.00 | 73 | 1009.6 |
| 20260830145256 | 89 | 177 | 3.0 | 0.0 | 0.00 | 0.00 | 0.00 | 73 | 1009.6 |
| 20260830145149 | 89 | 204 | 3.0 | 0.0 | 0.00 | 0.00 | 0.00 | 73 | 1009.6 |
| 20260830145112 | 89 | 207 | 3.0 | 0.0 | 0.00 | 0.00 | 0.00 | 73 | 1009.6 |
| 20260830145004 | 89 | 174 | 3.0 | 0.0 | 0.00 | 0.00 | 0.00 | 73 | 1009.4 |
| 20260830144908 | 89 | 195 | 3.0 | 0.0 | 0.00 | 0.00 | 0.00 | 73 | 1009.4 |
| 20260830144826 | 89 | 202 | 3.0 | 0.0 | 0.00 | 0.00 | 0.00 | 73 | 1009.4 |
| 20260830144707 | 89 | 184 | 3.0 | 0.0 | 0.00 | 0.00 | 0.00 | 73 | 1009.4 |
| 20260830144601 | 89 | 207 | 3.0 | 0.0 | 0.00 | 0.00 | 0.00 | 73 | 1009.4 |
| 20260830144502 | 89 | 220 | 3.0 | 0.0 | 0.00 | 0.00 | 0.00 | 74 | 1009.4 |
| 20260830144409 | 89 | 223 | 2.0 | 0.0 | 0.00 | 0.00 | 0.00 | 74 | 1009.4 |
| 20260830144309 | 89 | 219 | 3.0 | 0.0 | 0.00 | 0.00 | 0.00 | 74 | 1009.4 |
| 20260830144205 | 89 | 209 | 3.0 | 0.0 | 0.00 | 0.00 | 0.00 | 74 | 1009.4 |
| 20260830144104 | 89 | 226 | 3.0 | 0.0 | 0.00 | 0.00 | 0.00 | 74 | 1009.4 |
| 20260830144001 | 89 | 216 | 3.0 | 0.0 | 0.00 | 0.00 | 0.00 | 74 | 1009.4 |
| 20260830143853 | 89 | 221 | 3.0 | 0.0 | 0.00 | 0.00 | 0.00 | 74 | 1009.4 |
| 20260830143757 | 89 | 159 | 2.0 | 0.0 | 0.00 | 0.00 | 0.00 | 74 | 1009.4 |
| 20260830143708 | 89 | 209 | 2.0 | 0.0 | 0.00 | 0.00 | 0.00 | 74 | 1009.4 |
| 20260830143558 | 89 | 166 | 2.0 | 0.0 | 0.00 | 0.00 | 0.00 | 74 | 1009.4 |
| 20260830143450 | 89 | 221 | 2.0 | 0.0 | 0.00 | 0.00 | 0.00 | 74 | 1009.2 |
| 20260830143413 | 89 | 219 | 2.0 | 0.0 | 0.00 | 0.00 | 0.00 | 74 | 1009.2 |
| 20260830143244 | 89 | 176 | 2.0 | 0.0 | 0.00 | 0.00 | 0.00 | 75 | 1009.2 |
| 20260830143211 | 89 | 219 | 1.0 | 0.0 | 0.00 | 0.00 | 0.00 | 75 | 1009.2 |
| 20260830143045 | 88 | 215 | 1.0 | 0.0 | 0.00 | 0.00 | 0.00 | 75 | 1009.2 |
| 20260830142957 | 88 | 184 | 2.0 | 0.0 | 0.00 | 0.00 | 0.00 | 75 | 1009.2 |
| 20260830142901 | 88 | 165 | 2.0 | 0.0 | 0.00 | 0.00 | 0.00 | 75 | 1009.2 |
| 20260830142756 | 88 | 174 | 2.0 | 0.0 | 0.00 | 0.00 | 0.00 | 75 | 1009.2 |
| 20260830142652 | 88 | 240 | 2.0 | 0.0 | 0.00 | 0.00 | 0.00 | 76 | 1009.2 |
| 20260830142554 | 88 | 201 | 2.0 | 0.0 | 0.00 | 0.00 | 0.00 | 76 | 1009.2 |
| 20260830142506 | 88 | 178 | 1.0 | 0.0 | 0.00 | 0.00 | 0.00 | 75 | 1009.2 |
| 20260830142408 | 88 | 194 | 1.0 | 0.0 | 0.00 | 0.00 | 0.00 | 75 | 1009.2 |
| 20260830142241 | 88 | 184 | 1.0 | 0.0 | 0.00 | 0.00 | 0.00 | 75 | 1009.2 |
| 20260830142200 | 88 | 242 | 2.0 | 0.0 | 0.00 | 0.00 | 0.00 | 76 | 1009.2 |
| 20260830142104 | 88 | 154 | 1.0 | 0.0 | 0.00 | 0.00 | 0.00 | 76 | 1009.2 |
| 20260830141957 | 88 | 176 | 1.0 | 0.0 | 0.00 | 0.00 | 0.00 | 76 | 1009.2 |
| 20260830141851 | 88 | 157 | 1.0 | 0.0 | 0.00 | 0.00 | 0.00 | 76 | 1009.2 |
| 20260830141756 | 87 | 245 | 2.0 | 0.0 | 0.00 | 0.00 | 0.00 | 77 | 1009.2 |
| 20260830141707 | 87 | 178 | 2.0 | 0.0 | 0.00 | 0.00 | 0.00 | 77 | 1009.2 |
| 20260830141550 | 87 | 207 | 2.0 | 0.0 | 0.00 | 0.00 | 0.00 | 77 | 1009.2 |
| 20260830141445 | 87 | 159 | 2.0 | 0.0 | 0.00 | 0.00 | 0.00 | 77 | 1009.2 |
| 20260830141348 | 87 | 103 | 1.0 | 0.0 | 0.00 | 0.00 | 0.00 | 77 | 1009.2 |
| 20260830141309 | 87 | 157 | 1.0 | 0.0 | 0.00 | 0.00 | 0.00 | 77 | 1009.2 |
| 20260830141143 | 87 | 273 | 1.0 | 0.0 | 0.00 | 0.00 | 0.00 | 77 | 1009.2 |
| 20260830141111 | 87 | 223 | 1.0 | 0.0 | 0.00 | 0.00 | 0.00 | 77 | 1009.2 |
| 20260830140947 | 87 | 152 | 1.0 | 0.0 | 0.00 | 0.00 | 0.00 | 77 | 1009.2 |
| 20260830140859 | 87 | 186 | 1.0 | 0.0 | 0.00 | 0.00 | 0.00 | 77 | 1009.2 |
| 20260830140804 | 87 | 179 | 1.0 | 0.0 | 0.00 | 0.00 | 0.00 | 78 | 1009.2 |
| 20260830140700 | 87 | 155 | 1.0 | 0.0 | 0.00 | 0.00 | 0.00 | 78 | 1009.2 |
| 20260830140553 | 86 | 198 | 1.0 | 0.0 | 0.00 | 0.00 | 0.00 | 78 | 1009.2 |
| 20260830140453 | 86 | 203 | 1.0 | 0.0 | 0.00 | 0.00 | 0.00 | 78 | 1009.2 |
| 20260830140347 | 86 | 212 | 1.0 | 0.0 | 0.00 | 0.00 | 0.00 | 78 | 1009.2 |
| 20260830140312 | 86 | 198 | 1.0 | 0.0 | 0.00 | 0.00 | 0.00 | 78 | 1009.2 |
| 20260830140207 | 86 | 221 | 1.0 | 0.0 | 0.00 | 0.00 | 0.00 | 79 | 1009.2 |
| 20260830140112 | 86 | 90 | 1.0 | 0.0 | 0.00 | 0.00 | 0.00 | 79 | 1009.2 |
| 20260830140028 | 86 | 193 | 0.0 | 0.0 | 0.00 | 0.00 | 0.00 | 79 | 1009.2 |
| 20260830135913 | 86 | 183 | 0.0 | 0.0 | 0.00 | 0.00 | 0.00 | 79 | 1009.2 |
| 20260830135824 | 86 | 217 | 1.0 | 0.0 | 0.00 | 0.00 | 0.00 | 79 | 1009.2 |
| 20260830135706 | 86 | 170 | 1.0 | 0.0 | 0.00 | 0.00 | 0.00 | 79 | 1009.2 |
| 20260830135602 | 86 | 213 | 1.0 | 0.0 | 0.00 | 0.00 | 0.00 | 79 | 1009.2 |
| 20260830135455 | 86 | 180 | 1.0 | 0.0 | 0.00 | 0.00 | 0.00 | 79 | 1009.2 |
| 20260830135354 | 85 | 198 | 1.0 | 0.0 | 0.00 | 0.00 | 0.00 | 80 | 1009.2 |
| 20260830135322 | 85 | 185 | 1.0 | 0.0 | 0.00 | 0.00 | 0.00 | 80 | 1009.2 |
| 20260830135153 | 85 | 202 | 1.0 | 0.0 | 0.00 | 0.00 | 0.00 | 80 | 1009.2 |
| 20260830135052 | 85 | 164 | 1.0 | 0.0 | 0.00 | 0.00 | 0.00 | 80 | 1009.2 |
| 20260830134948 | 85 | 154 | 1.0 | 0.0 | 0.00 | 0.00 | 0.00 | 80 | 1009.0 |
| 20260830134910 | 85 | 219 | 1.0 | 0.0 | 0.00 | 0.00 | 0.00 | 80 | 1009.0 |
| 20260830134743 | 85 | 207 | 1.0 | 0.0 | 0.00 | 0.00 | 0.00 | 80 | 1009.0 |
| 20260830134710 | 85 | 186 | 1.0 | 0.0 | 0.00 | 0.00 | 0.00 | 80 | 1009.0 |
| 20260830134625 | 85 | 229 | 1.0 | 0.0 | 0.00 | 0.00 | 0.00 | 80 | 1009.0 |
| 20260830134506 | 85 | 166 | 1.0 | 0.0 | 0.00 | 0.00 | 0.00 | 80 | 1009.0 |
| 20260830134400 | 85 | 209 | 1.0 | 0.0 | 0.00 | 0.00 | 0.00 | 80 | 1009.0 |
| 20260830134322 | 85 | 186 | 1.0 | 0.0 | 0.00 | 0.00 | 0.00 | 80 | 1009.0 |
| 20260830134153 | 85 | 150 | 1.0 | 0.0 | 0.00 | 0.00 | 0.00 | 80 | 1009.0 |
| 20260830134119 | 85 | 233 | 0.0 | 0.0 | 0.00 | 0.00 | 0.00 | 80 | 1009.0 |
| 20260830133959 | 85 | 214 | 0.0 | 0.0 | 0.00 | 0.00 | 0.00 | 80 | 1009.0 |
| 20260830133913 | 84 | 202 | 0.0 | 0.0 | 0.00 | 0.00 | 0.00 | 81 | 1009.0 |
| 20260830133753 | 84 | 207 | 0.0 | 0.0 | 0.00 | 0.00 | 0.00 | 81 | 1009.0 |
| 20260830133706 | 84 | 236 | 0.0 | 0.0 | 0.00 | 0.00 | 0.00 | 81 | 1009.0 |
| 20260830133608 | 84 | 201 | 0.0 | 0.0 | 0.00 | 0.00 | 0.00 | 81 | 1009.0 |
| 20260830133500 | 84 | 178 | 0.0 | 0.0 | 0.00 | 0.00 | 0.00 | 81 | 1009.1 |
| 20260830133353 | 84 | 160 | 0.0 | 0.0 | 0.00 | 0.00 | 0.00 | 81 | 1009.1 |
| 20260830133258 | 84 | 258 | 0.0 | 0.0 | 0.00 | 0.00 | 0.00 | 81 | 1009.1 |
| 20260830133214 | 84 | 181 | 0.0 | 0.0 | 0.00 | 0.00 | 0.00 | 81 | 1009.1 |
| 20260830133055 | 84 | 180 | 0.0 | 0.0 | 0.00 | 0.00 | 0.00 | 81 | 1009.1 |
| 20260830132947 | 84 | 196 | 0.0 | 0.0 | 0.00 | 0.00 | 0.00 | 81 | 1009.1 |
| 20260830132911 | 84 | 167 | 0.0 | 0.0 | 0.00 | 0.00 | 0.00 | 81 | 1009.1 |
| 20260830132745 | 84 | 178 | 0.0 | 0.0 | 0.00 | 0.00 | 0.00 | 81 | 1009.1 |
| 20260830132657 | 84 | 173 | 0.0 | 0.0 | 0.00 | 0.00 | 0.00 | 81 | 1009.1 |
| 20260830132601 | 83 | 223 | 0.0 | 0.0 | 0.00 | 0.00 | 0.00 | 81 | 1009.1 |
| 20260830132452 | 83 | 175 | 0.0 | 0.0 | 0.00 | 0.00 | 0.00 | 82 | 1009.1 |
| 20260830132353 | 83 | 207 | 0.0 | 0.0 | 0.00 | 0.00 | 0.00 | 82 | 1009.1 |
| 20260830132251 | 83 | 207 | 0.0 | 0.0 | 0.00 | 0.00 | 0.00 | 82 | 1009.1 |
| 20260830132213 | 83 | 199 | 0.0 | 0.0 | 0.00 | 0.00 | 0.00 | 82 | 1009.1 |
| 20260830132047 | 83 | 190 | 0.0 | 0.0 | 0.00 | 0.00 | 0.00 | 82 | 1009.1 |
| 20260830132003 | 83 | 220 | 0.0 | 0.0 | 0.00 | 0.00 | 0.00 | 82 | 1009.0 |
| 20260830131905 | 83 | 220 | 0.0 | 0.0 | 0.00 | 0.00 | 0.00 | 82 | 1009.0 |
| 20260830131801 | 83 | 80 | 0.0 | 0.0 | 0.00 | 0.00 | 0.00 | 82 | 1009.0 |
| 20260830131701 | 82 | 217 | 0.0 | 0.0 | 0.00 | 0.00 | 0.00 | 82 | 1009.0 |
| 20260830131553 | 82 | 217 | 0.0 | 0.0 | 0.00 | 0.00 | 0.00 | 82 | 1009.0 |
| 20260830131515 | 82 | 217 | 0.0 | 0.0 | 0.00 | 0.00 | 0.00 | 82 | 1009.0 |
| 20260830131347 | 82 | 194 | 0.0 | 0.0 | 0.00 | 0.00 | 0.00 | 82 | 1009.0 |
| 20260830131303 | 82 | 198 | 0.0 | 0.0 | 0.00 | 0.00 | 0.00 | 82 | 1009.0 |
| 20260830131225 | 82 | 204 | 0.0 | 0.0 | 0.00 | 0.00 | 0.00 | 83 | 1009.0 |
| 20260830131056 | 82 | 144 | 0.0 | 0.0 | 0.00 | 0.00 | 0.00 | 83 | 1009.0 |
| 20260830131001 | 82 | 214 | 0.0 | 0.0 | 0.00 | 0.00 | 0.00 | 83 | 1009.0 |
| 20260830130854 | 82 | 209 | 0.0 | 0.0 | 0.00 | 0.00 | 0.00 | 83 | 1009.0 |
| 20260830130755 | 82 | 218 | 0.0 | 0.0 | 0.00 | 0.00 | 0.00 | 83 | 1009.0 |
| 20260830130706 | 82 | 267 | 0.0 | 0.0 | 0.00 | 0.00 | 0.00 | 83 | 1009.0 |
| 20260830130552 | 82 | 92 | 0.0 | 0.0 | 0.00 | 0.00 | 0.00 | 83 | 1009.0 |
| 20260830130449 | 81 | 229 | 0.0 | 0.0 | 0.00 | 0.00 | 0.00 | 83 | 1008.8 |
| 20260830130411 | 81 | 192 | 0.0 | 0.0 | 0.00 | 0.00 | 0.00 | 83 | 1008.8 |
| 20260830130310 | 81 | 142 | 0.0 | 0.0 | 0.00 | 0.00 | 0.00 | 83 | 1008.8 |
| 20260830130235 | 81 | 180 | 0.0 | 0.0 | 0.00 | 0.00 | 0.00 | 83 | 1008.8 |
| 20260830130047 | 81 | 124 | 0.0 | 0.0 | 0.00 | 0.00 | 0.00 | 83 | 1008.8 |
| 20260830125959 | 81 | 282 | 0.0 | 0.0 | 0.00 | 0.00 | 0.00 | 83 | 1008.8 |
| 20260830125901 | 81 | 227 | 0.0 | 0.0 | 0.00 | 0.00 | 0.00 | 83 | 1008.8 |
| 20260830125753 | 81 | 177 | 0.0 | 0.0 | 0.00 | 0.00 | 0.00 | 83 | 1008.8 |
| 20260830125715 | 81 | 170 | 0.0 | 0.0 | 0.00 | 0.00 | 0.00 | 83 | 1008.8 |
| 20260830125551 | 81 | 132 | 0.0 | 0.0 | 0.00 | 0.00 | 0.00 | 83 | 1008.8 |
| 20260830125503 | 81 | 132 | 0.0 | 0.0 | 0.00 | 0.00 | 0.00 | 83 | 1008.8 |
| 20260830125408 | 81 | 163 | 0.0 | 0.0 | 0.00 | 0.00 | 0.00 | 83 | 1008.8 |
| 20260830125320 | 81 | 163 | 0.0 | 0.0 | 0.00 | 0.00 | 0.00 | 83 | 1008.8 |
| 20260830125201 | 81 | 198 | 0.0 | 0.0 | 0.00 | 0.00 | 0.00 | 83 | 1008.8 |
| 20260830125115 | 81 | 188 | 0.0 | 0.0 | 0.00 | 0.00 | 0.00 | 83 | 1008.8 |
| 20260830124956 | 81 | 185 | 0.0 | 0.0 | 0.00 | 0.00 | 0.00 | 83 | 1008.8 |
| 20260830124848 | 81 | 184 | 0.0 | 0.0 | 0.00 | 0.00 | 0.00 | 83 | 1008.8 |
| 20260830124810 | 81 | 182 | 0.0 | 0.0 | 0.00 | 0.00 | 0.00 | 83 | 1008.8 |
| 20260830124645 | 81 | 114 | 0.0 | 0.0 | 0.00 | 0.00 | 0.00 | 83 | 1008.8 |
| 20260830124558 | 81 | 114 | 0.0 | 0.0 | 0.00 | 0.00 | 0.00 | 83 | 1008.8 |
| 20260830124501 | 81 | 215 | 0.0 | 0.0 | 0.00 | 0.00 | 0.00 | 83 | 1008.8 |
| 20260830124352 | 81 | 215 | 0.0 | 0.0 | 0.00 | 0.00 | 0.00 | 83 | 1008.8 |
| 20260830124316 | 81 | 213 | 0.0 | 0.0 | 0.00 | 0.00 | 0.00 | 83 | 1008.8 |
| 20260830124146 | 81 | 193 | 0.0 | 0.0 | 0.00 | 0.00 | 0.00 | 83 | 1008.8 |
| 20260830124111 | 81 | 198 | 0.0 | 0.0 | 0.00 | 0.00 | 0.00 | 83 | 1008.8 |
| 20260830123949 | 81 | 177 | 0.0 | 0.0 | 0.00 | 0.00 | 0.00 | 83 | 1008.8 |
| 20260830123903 | 81 | 175 | 0.0 | 0.0 | 0.00 | 0.00 | 0.00 | 83 | 1008.8 |
| 20260830123807 | 81 | 187 | 0.0 | 0.0 | 0.00 | 0.00 | 0.00 | 83 | 1008.8 |
| 20260830123657 | 81 | 186 | 0.0 | 0.0 | 0.00 | 0.00 | 0.00 | 83 | 1008.8 |
| 20260830123600 | 81 | 99 | 0.0 | 0.0 | 0.00 | 0.00 | 0.00 | 83 | 1008.8 |
| 20260830123453 | 81 | 183 | 0.0 | 0.0 | 0.00 | 0.00 | 0.00 | 83 | 1008.7 |
| 20260830123413 | 81 | 234 | 0.0 | 0.0 | 0.00 | 0.00 | 0.00 | 83 | 1008.7 |
| 20260830123252 | 81 | 183 | 0.0 | 0.0 | 0.00 | 0.00 | 0.00 | 83 | 1008.7 |
| 20260830123146 | 81 | 146 | 0.0 | 0.0 | 0.00 | 0.00 | 0.00 | 83 | 1008.7 |
| 20260830123045 | 81 | 190 | 0.0 | 0.0 | 0.00 | 0.00 | 0.00 | 83 | 1008.7 |
| 20260830122950 | 81 | 190 | 0.0 | 0.0 | 0.00 | 0.00 | 0.00 | 83 | 1008.7 |
| 20260830122845 | 81 | 221 | 0.0 | 0.0 | 0.00 | 0.00 | 0.00 | 83 | 1008.7 |
| 20260830122812 | 81 | 221 | 0.0 | 0.0 | 0.00 | 0.00 | 0.00 | 83 | 1008.7 |
| 20260830122646 | 81 | 223 | 0.0 | 0.0 | 0.00 | 0.00 | 0.00 | 83 | 1008.7 |
| 20260830122604 | 81 | 153 | 0.0 | 0.0 | 0.00 | 0.00 | 0.00 | 83 | 1008.7 |
| 20260830122450 | 81 | 186 | 0.0 | 0.0 | 0.00 | 0.00 | 0.00 | 83 | 1008.7 |
| 20260830122415 | 81 | 186 | 0.0 | 0.0 | 0.00 | 0.00 | 0.00 | 83 | 1008.7 |
| 20260830122306 | 81 | 186 | 0.0 | 0.0 | 0.00 | 0.00 | 0.00 | 83 | 1008.7 |
| 20260830122200 | 81 | 146 | 0.0 | 0.0 | 0.00 | 0.00 | 0.00 | 83 | 1008.7 |
| 20260830122120 | 81 | 146 | 0.0 | 0.0 | 0.00 | 0.00 | 0.00 | 83 | 1008.7 |
| 20260830122002 | 81 | 201 | 0.0 | 0.0 | 0.00 | 0.00 | 0.00 | 83 | 1008.5 |
| 20260830121854 | 81 | 232 | 0.0 | 0.0 | 0.00 | 0.00 | 0.00 | 83 | 1008.5 |
| 20260830121750 | 81 | 224 | 0.0 | 0.0 | 0.00 | 0.00 | 0.00 | 83 | 1008.5 |
| 20260830121650 | 81 | 202 | 0.0 | 0.0 | 0.00 | 0.00 | 0.00 | 83 | 1008.5 |
| 20260830121612 | 81 | 202 | 0.0 | 0.0 | 0.00 | 0.00 | 0.00 | 83 | 1008.5 |
| 20260830121504 | 81 | 202 | 0.0 | 0.0 | 0.00 | 0.00 | 0.00 | 83 | 1008.5 |
| 20260830121356 | 81 | 202 | 0.0 | 0.0 | 0.00 | 0.00 | 0.00 | 83 | 1008.5 |
| 20260830121300 | 81 | 202 | 0.0 | 0.0 | 0.00 | 0.00 | 0.00 | 83 | 1008.5 |
| 20260830121158 | 81 | 219 | 0.0 | 0.0 | 0.00 | 0.00 | 0.00 | 83 | 1008.5 |
| 20260830121053 | 81 | 219 | 0.0 | 0.0 | 0.00 | 0.00 | 0.00 | 83 | 1008.5 |
| 20260830121018 | 81 | 219 | 0.0 | 0.0 | 0.00 | 0.00 | 0.00 | 83 | 1008.5 |
| 20260830120852 | 81 | 219 | 0.0 | 0.0 | 0.00 | 0.00 | 0.00 | 83 | 1008.5 |
| 20260830120753 | 81 | 219 | 0.0 | 0.0 | 0.00 | 0.00 | 0.00 | 83 | 1008.5 |
| 20260830120645 | 81 | 207 | 0.0 | 0.0 | 0.00 | 0.00 | 0.00 | 83 | 1008.5 |
| 20260830120612 | 81 | 207 | 0.0 | 0.0 | 0.00 | 0.00 | 0.00 | 83 | 1008.5 |
| 20260830120442 | 81 | 220 | 0.0 | 0.0 | 0.00 | 0.00 | 0.00 | 83 | 1008.3 |
| 20260830120401 | 81 | 173 | 0.0 | 0.0 | 0.00 | 0.00 | 0.00 | 83 | 1008.3 |
| 20260830120305 | 81 | 109 | 0.0 | 0.0 | 0.00 | 0.00 | 0.00 | 83 | 1008.3 |
| 20260830120200 | 81 | 109 | 0.0 | 0.0 | 0.00 | 0.00 | 0.00 | 83 | 1008.3 |
| 20260830120120 | 81 | 101 | 0.0 | 0.0 | 0.00 | 0.00 | 0.00 | 83 | 1008.3 |
| 20260830115955 | 81 | 101 | 0.0 | 0.0 | 0.00 | 0.00 | 0.00 | 83 | 1008.3 |
| 20260830115916 | 81 | 101 | 0.0 | 0.0 | 0.00 | 0.00 | 0.00 | 83 | 1008.3 |
| 20260830115749 | 81 | 236 | 0.0 | 0.0 | 0.00 | 0.00 | 0.00 | 83 | 1008.3 |
| 20260830115701 | 81 | 237 | 0.0 | 0.0 | 0.00 | 0.00 | 0.00 | 83 | 1008.3 |
| 20260830115600 | 81 | 182 | 0.0 | 0.0 | 0.00 | 0.00 | 0.00 | 83 | 1008.3 |
| 20260830115458 | 81 | 182 | 0.0 | 0.0 | 0.00 | 0.00 | 0.00 | 83 | 1008.3 |
| 20260830115402 | 81 | 182 | 0.0 | 0.0 | 0.00 | 0.00 | 0.00 | 83 | 1008.3 |
| 20260830115257 | 81 | 182 | 0.0 | 0.0 | 0.00 | 0.00 | 0.00 | 83 | 1008.3 |
| 20260830115151 | 81 | 182 | 0.0 | 0.0 | 0.00 | 0.00 | 0.00 | 83 | 1008.3 |
| 20260830115051 | 81 | 182 | 0.0 | 0.0 | 0.00 | 0.00 | 0.00 | 83 | 1008.3 |
| 20260830115003 | 81 | 182 | 0.0 | 0.0 | 0.00 | 0.00 | 0.00 | 83 | 1008.2 |
| 20260830114908 | 81 | 182 | 0.0 | 0.0 | 0.00 | 0.00 | 0.00 | 83 | 1008.2 |
| 20260830114747 | 81 | 107 | 0.0 | 0.0 | 0.00 | 0.00 | 0.00 | 83 | 1008.2 |
| 20260830114701 | 81 | 107 | 0.0 | 0.0 | 0.00 | 0.00 | 0.00 | 83 | 1008.2 |
| 20260830114604 | 81 | 207 | 0.0 | 0.0 | 0.00 | 0.00 | 0.00 | 83 | 1008.2 |
| 20260830114456 | 81 | 207 | 0.0 | 0.0 | 0.00 | 0.00 | 0.00 | 83 | 1008.2 |
| 20260830114359 | 81 | 225 | 0.0 | 0.0 | 0.00 | 0.00 | 0.00 | 83 | 1008.2 |
| 20260830114254 | 81 | 216 | 0.0 | 0.0 | 0.00 | 0.00 | 0.00 | 83 | 1008.2 |
| 20260830114147 | 81 | 216 | 0.0 | 0.0 | 0.00 | 0.00 | 0.00 | 83 | 1008.2 |
| 20260830114054 | 81 | 216 | 0.0 | 0.0 | 0.00 | 0.00 | 0.00 | 82 | 1008.2 |
| 20260830113946 | 81 | 205 | 0.0 | 0.0 | 0.00 | 0.00 | 0.00 | 82 | 1008.2 |
| 20260830113911 | 81 | 205 | 0.0 | 0.0 | 0.00 | 0.00 | 0.00 | 82 | 1008.2 |
| 20260830113746 | 81 | 205 | 0.0 | 0.0 | 0.00 | 0.00 | 0.00 | 82 | 1008.2 |
| 20260830113658 | 81 | 205 | 0.0 | 0.0 | 0.00 | 0.00 | 0.00 | 82 | 1008.2 |
| 20260830113558 | 81 | 205 | 0.0 | 0.0 | 0.00 | 0.00 | 0.00 | 82 | 1008.2 |
| 20260830113452 | 82 | 205 | 0.0 | 0.0 | 0.00 | 0.00 | 0.00 | 82 | 1008.2 |
| 20260830113347 | 81 | 149 | 0.0 | 0.0 | 0.00 | 0.00 | 0.00 | 82 | 1008.2 |
| 20260830113254 | 82 | 130 | 0.0 | 0.0 | 0.00 | 0.00 | 0.00 | 82 | 1008.2 |
| 20260830113149 | 82 | 186 | 0.0 | 0.0 | 0.00 | 0.00 | 0.00 | 82 | 1008.2 |
| 20260830113055 | 82 | 186 | 0.0 | 0.0 | 0.00 | 0.00 | 0.00 | 82 | 1008.2 |
| 20260830112947 | 82 | 186 | 0.0 | 0.0 | 0.00 | 0.00 | 0.00 | 82 | 1008.2 |
| 20260830112912 | 82 | 186 | 0.0 | 0.0 | 0.00 | 0.00 | 0.00 | 82 | 1008.2 |
| 20260830112812 | 82 | 186 | 0.0 | 0.0 | 0.00 | 0.00 | 0.00 | 82 | 1008.2 |
| 20260830112704 | 82 | 137 | 0.0 | 0.0 | 0.00 | 0.00 | 0.00 | 82 | 1008.2 |
| 20260830112601 | 82 | 252 | 0.0 | 0.0 | 0.00 | 0.00 | 0.00 | 82 | 1008.2 |
| 20260830112501 | 82 | 252 | 0.0 | 0.0 | 0.00 | 0.00 | 0.00 | 82 | 1008.2 |
| 20260830112413 | 82 | 252 | 0.0 | 0.0 | 0.00 | 0.00 | 0.00 | 82 | 1008.2 |
| 20260830112253 | 82 | 131 | 0.0 | 0.0 | 0.00 | 0.00 | 0.00 | 82 | 1008.2 |
| 20260830112149 | 82 | 11 | 0.0 | 0.0 | 0.00 | 0.00 | 0.00 | 82 | 1008.2 |
| 20260830112113 | 82 | 241 | 0.0 | 0.0 | 0.00 | 0.00 | 0.00 | 82 | 1008.2 |
| 20260830112004 | 82 | 241 | 0.0 | 0.0 | 0.00 | 0.00 | 0.00 | 82 | 1008.2 |
| 20260830111905 | 82 | 241 | 0.0 | 0.0 | 0.00 | 0.00 | 0.00 | 82 | 1008.2 |
| 20260830111801 | 82 | 187 | 0.0 | 0.0 | 0.00 | 0.00 | 0.00 | 82 | 1008.2 |
| 20260830111654 | 82 | 164 | 0.0 | 0.0 | 0.00 | 0.00 | 0.00 | 82 | 1008.2 |
| 20260830111555 | 82 | 164 | 0.0 | 0.0 | 0.00 | 0.00 | 0.00 | 82 | 1008.2 |
| 20260830111448 | 82 | 235 | 0.0 | 0.0 | 0.00 | 0.00 | 0.00 | 82 | 1008.2 |
| 20260830111410 | 82 | 202 | 0.0 | 0.0 | 0.00 | 0.00 | 0.00 | 82 | 1008.2 |
| 20260830111244 | 82 | 202 | 0.0 | 0.0 | 0.00 | 0.00 | 0.00 | 82 | 1008.2 |
| 20260830111210 | 82 | 202 | 0.0 | 0.0 | 0.00 | 0.00 | 0.00 | 82 | 1008.2 |
| 20260830111051 | 82 | 202 | 0.0 | 0.0 | 0.00 | 0.00 | 0.00 | 82 | 1008.2 |
| 20260830110944 | 82 | 202 | 0.0 | 0.0 | 0.00 | 0.00 | 0.00 | 82 | 1008.2 |
| 20260830110908 | 82 | 202 | 0.0 | 0.0 | 0.00 | 0.00 | 0.00 | 82 | 1008.2 |
| 20260830110805 | 82 | 205 | 0.0 | 0.0 | 0.00 | 0.00 | 0.00 | 82 | 1008.2 |
| 20260830110711 | 82 | 205 | 0.0 | 0.0 | 0.00 | 0.00 | 0.00 | 82 | 1008.2 |
| 20260830110626 | 82 | 57 | 0.0 | 0.0 | 0.00 | 0.00 | 0.00 | 82 | 1008.2 |
| 20260830110505 | 82 | 244 | 0.0 | 0.0 | 0.00 | 0.00 | 0.00 | 82 | 1008.4 |
| 20260830110400 | 82 | 240 | 0.0 | 0.0 | 0.00 | 0.00 | 0.00 | 82 | 1008.4 |
| 20260830110256 | 82 | 164 | 0.0 | 0.0 | 0.00 | 0.00 | 0.00 | 82 | 1008.4 |
| 20260830110157 | 82 | 211 | 0.0 | 0.0 | 0.00 | 0.00 | 0.00 | 82 | 1008.4 |
| 20260830110048 | 82 | 211 | 0.0 | 0.0 | 0.00 | 0.00 | 0.00 | 82 | 1008.4 |
| 20260830110013 | 82 | 163 | 0.0 | 0.0 | 0.00 | 0.00 | 0.00 | 82 | 1008.4 |
| 20260830105906 | 82 | 163 | 0.0 | 0.0 | 0.00 | 0.00 | 0.00 | 82 | 1008.4 |
| 20260830105833 | 82 | 163 | 0.0 | 0.0 | 0.00 | 0.00 | 0.00 | 82 | 1008.4 |
| 20260830105737 | 82 | 163 | 0.0 | 0.0 | 0.00 | 0.00 | 0.00 | 82 | 1008.4 |
| 20260830105548 | 82 | 163 | 0.0 | 0.0 | 0.00 | 0.00 | 0.00 | 82 | 1008.4 |
| 20260830105445 | 82 | 163 | 0.0 | 0.0 | 0.00 | 0.00 | 0.00 | 82 | 1008.4 |
| 20260830105410 | 82 | 162 | 0.0 | 0.0 | 0.00 | 0.00 | 0.00 | 82 | 1008.4 |
| 20260830105307 | 82 | 163 | 0.0 | 0.0 | 0.00 | 0.00 | 0.00 | 82 | 1008.4 |
| 20260830105232 | 82 | 163 | 0.0 | 0.0 | 0.00 | 0.00 | 0.00 | 82 | 1008.4 |
| 20260830105102 | 82 | 163 | 0.0 | 0.0 | 0.00 | 0.00 | 0.00 | 82 | 1008.4 |
| 20260830104956 | 82 | 156 | 0.0 | 0.0 | 0.00 | 0.00 | 0.00 | 82 | 1008.2 |
| 20260830104856 | 82 | 123 | 0.0 | 0.0 | 0.00 | 0.00 | 0.00 | 82 | 1008.2 |
| 20260830104752 | 82 | 198 | 0.0 | 0.0 | 0.00 | 0.00 | 0.00 | 82 | 1008.2 |
| 20260830104717 | 82 | 198 | 0.0 | 0.0 | 0.00 | 0.00 | 0.00 | 82 | 1008.2 |
| 20260830104548 | 82 | 185 | 0.0 | 0.0 | 0.00 | 0.00 | 0.00 | 82 | 1008.2 |
| 20260830104449 | 82 | 185 | 0.0 | 0.0 | 0.00 | 0.00 | 0.00 | 82 | 1008.2 |
| 20260830104401 | 82 | 185 | 0.0 | 0.0 | 0.00 | 0.00 | 0.00 | 82 | 1008.2 |
| 20260830104302 | 82 | 185 | 0.0 | 0.0 | 0.00 | 0.00 | 0.00 | 82 | 1008.2 |
| 20260830104156 | 82 | 185 | 0.0 | 0.0 | 0.00 | 0.00 | 0.00 | 82 | 1008.2 |
| 20260830104123 | 82 | 185 | 0.0 | 0.0 | 0.00 | 0.00 | 0.00 | 82 | 1008.2 |
| 20260830103954 | 82 | 185 | 0.0 | 0.0 | 0.00 | 0.00 | 0.00 | 82 | 1008.2 |
| 20260830103851 | 82 | 181 | 0.0 | 0.0 | 0.00 | 0.00 | 0.00 | 82 | 1008.2 |
| 20260830103752 | 82 | 128 | 0.0 | 0.0 | 0.00 | 0.00 | 0.00 | 82 | 1008.2 |
| 20260830103657 | 82 | 128 | 0.0 | 0.0 | 0.00 | 0.00 | 0.00 | 82 | 1008.2 |
| 20260830103601 | 82 | 128 | 0.0 | 0.0 | 0.00 | 0.00 | 0.00 | 82 | 1008.2 |
| 20260830103500 | 82 | 128 | 0.0 | 0.0 | 0.00 | 0.00 | 0.00 | 82 | 1008.2 |
| 20260830103355 | 82 | 182 | 0.0 | 0.0 | 0.00 | 0.00 | 0.00 | 82 | 1008.2 |
| 20260830103257 | 82 | 168 | 0.0 | 0.0 | 0.00 | 0.00 | 0.00 | 82 | 1008.2 |
| 20260830103153 | 82 | 149 | 0.0 | 0.0 | 0.00 | 0.00 | 0.00 | 82 | 1008.2 |
| 20260830103115 | 82 | 149 | 0.0 | 0.0 | 0.00 | 0.00 | 0.00 | 82 | 1008.2 |
| 20260830102948 | 82 | 213 | 0.0 | 0.0 | 0.00 | 0.00 | 0.00 | 82 | 1008.2 |
| 20260830102904 | 82 | 213 | 0.0 | 0.0 | 0.00 | 0.00 | 0.00 | 82 | 1008.2 |
| 20260830102825 | 82 | 213 | 0.0 | 0.0 | 0.00 | 0.00 | 0.00 | 82 | 1008.2 |
| 20260830102659 | 82 | 146 | 0.0 | 0.0 | 0.00 | 0.00 | 0.00 | 82 | 1008.2 |
| 20260830102604 | 82 | 146 | 0.0 | 0.0 | 0.00 | 0.00 | 0.00 | 82 | 1008.2 |
| 20260830102500 | 82 | 217 | 0.0 | 0.0 | 0.00 | 0.00 | 0.00 | 82 | 1008.2 |
| 20260830102352 | 82 | 204 | 0.0 | 0.0 | 0.00 | 0.00 | 0.00 | 82 | 1008.2 |
| 20260830102256 | 82 | 204 | 0.0 | 0.0 | 0.00 | 0.00 | 0.00 | 82 | 1008.2 |
| 20260830102208 | 82 | 204 | 0.0 | 0.0 | 0.00 | 0.00 | 0.00 | 82 | 1008.2 |
| 20260830102108 | 82 | 204 | 0.0 | 0.0 | 0.00 | 0.00 | 0.00 | 82 | 1008.2 |
| 20260830102022 | 82 | 191 | 0.0 | 0.0 | 0.00 | 0.00 | 0.00 | 82 | 1008.3 |
| 20260830101900 | 82 | 191 | 0.0 | 0.0 | 0.00 | 0.00 | 0.00 | 82 | 1008.3 |
| 20260830101801 | 82 | 191 | 0.0 | 0.0 | 0.00 | 0.00 | 0.00 | 82 | 1008.3 |
| 20260830101730 | 82 | 113 | 0.0 | 0.0 | 0.00 | 0.00 | 0.00 | 82 | 1008.3 |
| 20260830101601 | 82 | 202 | 0.0 | 0.0 | 0.00 | 0.00 | 0.00 | 82 | 1008.3 |
| 20260830101520 | 82 | 202 | 0.0 | 0.0 | 0.00 | 0.00 | 0.00 | 82 | 1008.3 |
| 20260830101424 | 82 | 202 | 0.0 | 0.0 | 0.00 | 0.00 | 0.00 | 82 | 1008.3 |
| 20260830101253 | 82 | 202 | 0.0 | 0.0 | 0.00 | 0.00 | 0.00 | 82 | 1008.3 |
| 20260830101149 | 82 | 202 | 0.0 | 0.0 | 0.00 | 0.00 | 0.00 | 82 | 1008.3 |
| 20260830101047 | 82 | 197 | 0.0 | 0.0 | 0.00 | 0.00 | 0.00 | 82 | 1008.3 |
| 20260830100951 | 82 | 237 | 0.0 | 0.0 | 0.00 | 0.00 | 0.00 | 82 | 1008.3 |
| 20260830100916 | 82 | 244 | 0.0 | 0.0 | 0.00 | 0.00 | 0.00 | 82 | 1008.3 |
| 20260830100747 | 82 | 125 | 0.0 | 0.0 | 0.00 | 0.00 | 0.00 | 82 | 1008.3 |
| 20260830100712 | 82 | 203 | 0.0 | 0.0 | 0.00 | 0.00 | 0.00 | 82 | 1008.3 |
| 20260830100606 | 82 | 185 | 0.0 | 0.0 | 0.00 | 0.00 | 0.00 | 82 | 1008.3 |
| 20260830100507 | 82 | 175 | 0.0 | 0.0 | 0.00 | 0.00 | 0.00 | 82 | 1008.3 |
| 20260830100400 | 82 | 172 | 0.0 | 0.0 | 0.00 | 0.00 | 0.00 | 82 | 1008.3 |
| 20260830100252 | 82 | 172 | 0.0 | 0.0 | 0.00 | 0.00 | 0.00 | 82 | 1008.3 |
| 20260830100213 | 82 | 172 | 0.0 | 0.0 | 0.00 | 0.00 | 0.00 | 82 | 1008.3 |
| 20260830100051 | 82 | 221 | 0.0 | 0.0 | 0.00 | 0.00 | 0.00 | 82 | 1008.3 |
| 20260830095956 | 82 | 188 | 0.0 | 0.0 | 0.00 | 0.00 | 0.00 | 82 | 1008.3 |
| 20260830095906 | 82 | 196 | 0.0 | 0.0 | 0.00 | 0.00 | 0.00 | 81 | 1008.3 |
| 20260830095812 | 82 | 217 | 0.0 | 0.0 | 0.00 | 0.00 | 0.00 | 82 | 1008.3 |
| 20260830095737 | 82 | 163 | 0.0 | 0.0 | 0.00 | 0.00 | 0.00 | 81 | 1008.3 |
| 20260830095548 | 82 | 190 | 0.0 | 0.0 | 0.00 | 0.00 | 0.00 | 81 | 1008.3 |
| 20260830095501 | 82 | 193 | 0.0 | 0.0 | 0.00 | 0.00 | 0.00 | 81 | 1008.3 |
| 20260830095403 | 82 | 193 | 0.0 | 0.0 | 0.00 | 0.00 | 0.00 | 81 | 1008.3 |
| 20260830095306 | 82 | 198 | 0.0 | 0.0 | 0.00 | 0.00 | 0.00 | 81 | 1008.3 |
| 20260830095227 | 82 | 196 | 0.0 | 0.0 | 0.00 | 0.00 | 0.00 | 81 | 1008.3 |
| 20260830095117 | 82 | 196 | 0.0 | 0.0 | 0.00 | 0.00 | 0.00 | 81 | 1008.3 |
| 20260830094957 | 82 | 167 | 0.0 | 0.0 | 0.00 | 0.00 | 0.00 | 81 | 1008.4 |
| 20260830094848 | 82 | 212 | 0.0 | 0.0 | 0.00 | 0.00 | 0.00 | 81 | 1008.4 |
| 20260830094809 | 82 | 169 | 0.0 | 0.0 | 0.00 | 0.00 | 0.00 | 81 | 1008.4 |
| 20260830094702 | 82 | 164 | 0.0 | 0.0 | 0.00 | 0.00 | 0.00 | 81 | 1008.4 |
| 20260830094624 | 82 | 164 | 0.0 | 0.0 | 0.00 | 0.00 | 0.00 | 81 | 1008.4 |
| 20260830094501 | 82 | 169 | 0.0 | 0.0 | 0.00 | 0.00 | 0.00 | 81 | 1008.4 |
| 20260830094405 | 82 | 173 | 0.0 | 0.0 | 0.00 | 0.00 | 0.00 | 81 | 1008.4 |
| 20260830094326 | 82 | 184 | 0.0 | 0.0 | 0.00 | 0.00 | 0.00 | 81 | 1008.4 |
| 20260830094200 | 82 | 179 | 0.0 | 0.0 | 0.00 | 0.00 | 0.00 | 81 | 1008.4 |
| 20260830094053 | 82 | 183 | 0.0 | 0.0 | 0.00 | 0.00 | 0.00 | 81 | 1008.4 |
| 20260830093953 | 82 | 168 | 0.0 | 0.0 | 0.00 | 0.00 | 0.00 | 81 | 1008.4 |
| 20260830093846 | 82 | 168 | 0.0 | 0.0 | 0.00 | 0.00 | 0.00 | 81 | 1008.4 |
| 20260830093745 | 82 | 167 | 0.0 | 0.0 | 0.00 | 0.00 | 0.00 | 81 | 1008.4 |
| 20260830093653 | 82 | 190 | 1.0 | 0.0 | 0.00 | 0.00 | 0.00 | 81 | 1008.4 |
| 20260830093544 | 82 | 215 | 1.0 | 0.0 | 0.00 | 0.00 | 0.00 | 81 | 1008.4 |
| 20260830093512 | 82 | 182 | 1.0 | 0.0 | 0.00 | 0.00 | 0.00 | 81 | 1008.5 |
| 20260830093406 | 82 | 211 | 1.0 | 0.0 | 0.00 | 0.00 | 0.00 | 81 | 1008.5 |
| 20260830093305 | 83 | 194 | 1.0 | 0.0 | 0.00 | 0.00 | 0.00 | 81 | 1008.5 |
| 20260830093201 | 83 | 204 | 1.0 | 0.0 | 0.00 | 0.00 | 0.00 | 81 | 1008.5 |
| 20260830093054 | 83 | 205 | 1.0 | 0.0 | 0.00 | 0.00 | 0.00 | 81 | 1008.5 |
| 20260830093015 | 83 | 140 | 1.0 | 0.0 | 0.00 | 0.00 | 0.00 | 81 | 1008.5 |
| 20260830092849 | 83 | 140 | 1.0 | 0.0 | 0.00 | 0.00 | 0.00 | 81 | 1008.5 |
| 20260830092757 | 83 | 213 | 1.0 | 0.0 | 0.00 | 0.00 | 0.00 | 81 | 1008.5 |
| 20260830092651 | 83 | 218 | 0.0 | 0.0 | 0.00 | 0.00 | 0.00 | 81 | 1008.5 |
| 20260830092546 | 83 | 201 | 0.0 | 0.0 | 0.00 | 0.00 | 0.00 | 81 | 1008.5 |
| 20260830092509 | 83 | 189 | 0.0 | 0.0 | 0.00 | 0.00 | 0.00 | 81 | 1008.5 |
| 20260830092436 | 83 | 234 | 0.0 | 0.0 | 0.00 | 0.00 | 0.00 | 81 | 1008.5 |
| 20260830092248 | 83 | 179 | 0.0 | 0.0 | 0.00 | 0.00 | 0.00 | 81 | 1008.5 |
| 20260830092201 | 82 | 169 | 0.0 | 0.0 | 0.00 | 0.00 | 0.00 | 81 | 1008.5 |
| 20260830092104 | 83 | 229 | 0.0 | 0.0 | 0.00 | 0.00 | 0.00 | 81 | 1008.5 |
| 20260830091958 | 83 | 180 | 0.0 | 0.0 | 0.00 | 0.00 | 0.00 | 81 | 1008.6 |
| 20260830091918 | 83 | 175 | 0.0 | 0.0 | 0.00 | 0.00 | 0.00 | 81 | 1008.6 |
| 20260830091755 | 83 | 182 | 0.0 | 0.0 | 0.00 | 0.00 | 0.00 | 81 | 1008.6 |
| 20260830091717 | 83 | 187 | 0.0 | 0.0 | 0.00 | 0.00 | 0.00 | 81 | 1008.6 |
| 20260830091549 | 83 | 194 | 1.0 | 0.0 | 0.00 | 0.00 | 0.00 | 81 | 1008.6 |
| 20260830091451 | 83 | 213 | 1.0 | 0.0 | 0.00 | 0.00 | 0.00 | 81 | 1008.6 |
| 20260830091403 | 83 | 213 | 1.0 | 0.0 | 0.00 | 0.00 | 0.00 | 81 | 1008.6 |
| 20260830091311 | 83 | 159 | 1.0 | 0.0 | 0.00 | 0.00 | 0.00 | 81 | 1008.6 |
| 20260830091204 | 83 | 194 | 1.0 | 0.0 | 0.00 | 0.00 | 0.00 | 81 | 1008.6 |
| 20260830091055 | 83 | 170 | 0.0 | 0.0 | 0.00 | 0.00 | 0.00 | 81 | 1008.6 |
| 20260830091000 | 83 | 175 | 0.0 | 0.0 | 0.00 | 0.00 | 0.00 | 81 | 1008.6 |
| 20260830090852 | 83 | 170 | 0.0 | 0.0 | 0.00 | 0.00 | 0.00 | 81 | 1008.6 |
| 20260830090813 | 83 | 213 | 0.0 | 0.0 | 0.00 | 0.00 | 0.00 | 81 | 1008.6 |
| 20260830090646 | 83 | 192 | 0.0 | 0.0 | 0.00 | 0.00 | 0.00 | 81 | 1008.6 |
| 20260830090605 | 83 | 198 | 0.0 | 0.0 | 0.00 | 0.00 | 0.00 | 81 | 1008.6 |
| 20260830090506 | 83 | 172 | 0.0 | 0.0 | 0.00 | 0.00 | 0.00 | 81 | 1008.7 |
| 20260830090359 | 83 | 193 | 0.0 | 0.0 | 0.00 | 0.00 | 0.00 | 81 | 1008.7 |
| 20260830090254 | 83 | 211 | 0.0 | 0.0 | 0.00 | 0.00 | 0.00 | 81 | 1008.7 |
| 20260830090215 | 83 | 202 | 0.0 | 0.0 | 0.00 | 0.00 | 0.00 | 81 | 1008.7 |
| 20260830090056 | 83 | 166 | 0.0 | 0.0 | 0.00 | 0.00 | 0.00 | 81 | 1008.7 |
| 20260830085948 | 83 | 171 | 0.0 | 0.0 | 0.00 | 0.00 | 0.00 | 81 | 1008.7 |
| 20260830085847 | 83 | 170 | 0.0 | 0.0 | 0.00 | 0.00 | 0.00 | 81 | 1008.7 |
| 20260830085752 | 83 | 184 | 0.0 | 0.0 | 0.00 | 0.00 | 0.00 | 81 | 1008.7 |
| 20260830085704 | 83 | 184 | 0.0 | 0.0 | 0.00 | 0.00 | 0.00 | 81 | 1008.7 |
| 20260830085604 | 83 | 200 | 0.0 | 0.0 | 0.00 | 0.00 | 0.00 | 81 | 1008.7 |
| 20260830085457 | 83 | 181 | 0.0 | 0.0 | 0.00 | 0.00 | 0.00 | 81 | 1008.7 |
| 20260830085353 | 83 | 200 | 0.0 | 0.0 | 0.00 | 0.00 | 0.00 | 81 | 1008.7 |
| 20260830085253 | 83 | 213 | 0.0 | 0.0 | 0.00 | 0.00 | 0.00 | 81 | 1008.7 |
| 20260830085204 | 83 | 209 | 0.0 | 0.0 | 0.00 | 0.00 | 0.00 | 81 | 1008.7 |
| 20260830085114 | 83 | 200 | 0.0 | 0.0 | 0.00 | 0.00 | 0.00 | 81 | 1008.7 |
| 20260830084944 | 83 | 214 | 0.0 | 0.0 | 0.00 | 0.00 | 0.00 | 81 | 1009.0 |
| 20260830084849 | 83 | 221 | 0.0 | 0.0 | 0.00 | 0.00 | 0.00 | 81 | 1009.0 |
| 20260830084802 | 83 | 176 | 0.0 | 0.0 | 0.00 | 0.00 | 0.00 | 81 | 1009.0 |
| 20260830084724 | 83 | 190 | 0.0 | 0.0 | 0.00 | 0.00 | 0.00 | 81 | 1009.0 |
| 20260830084554 | 83 | 188 | 0.0 | 0.0 | 0.00 | 0.00 | 0.00 | 81 | 1009.0 |
| 20260830084458 | 83 | 230 | 0.0 | 0.0 | 0.00 | 0.00 | 0.00 | 81 | 1009.0 |
| 20260830084356 | 83 | 221 | 0.0 | 0.0 | 0.00 | 0.00 | 0.00 | 81 | 1009.0 |
| 20260830084255 | 83 | 209 | 0.0 | 0.0 | 0.00 | 0.00 | 0.00 | 81 | 1009.0 |
| 20260830084157 | 83 | 182 | 0.0 | 0.0 | 0.00 | 0.00 | 0.00 | 81 | 1009.0 |
| 20260830084048 | 83 | 202 | 0.0 | 0.0 | 0.00 | 0.00 | 0.00 | 81 | 1009.0 |
| 20260830084016 | 83 | 202 | 0.0 | 0.0 | 0.00 | 0.00 | 0.00 | 81 | 1009.0 |
| 20260830083848 | 83 | 199 | 0.0 | 0.0 | 0.00 | 0.00 | 0.00 | 81 | 1009.0 |
| 20260830083803 | 83 | 199 | 0.0 | 0.0 | 0.00 | 0.00 | 0.00 | 81 | 1009.0 |
| 20260830083725 | 83 | 165 | 0.0 | 0.0 | 0.00 | 0.00 | 0.00 | 81 | 1009.0 |
| 20260830083626 | 83 | 208 | 0.0 | 0.0 | 0.00 | 0.00 | 0.00 | 81 | 1009.0 |
| 20260830083500 | 83 | 227 | 0.0 | 0.0 | 0.00 | 0.00 | 0.00 | 81 | 1008.9 |
| 20260830083403 | 83 | 196 | 0.0 | 0.0 | 0.00 | 0.00 | 0.00 | 81 | 1008.9 |
| 20260830083258 | 83 | 225 | 0.0 | 0.0 | 0.00 | 0.00 | 0.00 | 81 | 1008.9 |
| 20260830083150 | 83 | 195 | 0.0 | 0.0 | 0.00 | 0.00 | 0.00 | 81 | 1008.9 |
| 20260830083051 | 83 | 174 | 0.0 | 0.0 | 0.00 | 0.00 | 0.00 | 81 | 1008.9 |
| 20260830083004 | 83 | 206 | 0.0 | 0.0 | 0.00 | 0.00 | 0.00 | 81 | 1008.9 |
| 20260830082910 | 83 | 193 | 0.0 | 0.0 | 0.00 | 0.00 | 0.00 | 80 | 1008.9 |
| 20260830082809 | 83 | 184 | 0.0 | 0.0 | 0.00 | 0.00 | 0.00 | 81 | 1008.9 |
| 20260830082646 | 83 | 207 | 0.0 | 0.0 | 0.00 | 0.00 | 0.00 | 80 | 1008.9 |
| 20260830082614 | 83 | 207 | 0.0 | 0.0 | 0.00 | 0.00 | 0.00 | 80 | 1008.9 |
| 20260830082514 | 83 | 213 | 0.0 | 0.0 | 0.00 | 0.00 | 0.00 | 80 | 1008.9 |
| 20260830082425 | 83 | 182 | 0.0 | 0.0 | 0.00 | 0.00 | 0.00 | 80 | 1008.9 |
| 20260830082306 | 83 | 173 | 0.0 | 0.0 | 0.00 | 0.00 | 0.00 | 80 | 1008.9 |
| 20260830082158 | 83 | 201 | 0.0 | 0.0 | 0.00 | 0.00 | 0.00 | 80 | 1008.9 |
| 20260830082052 | 83 | 195 | 0.0 | 0.0 | 0.00 | 0.00 | 0.00 | 80 | 1008.9 |
| 20260830081956 | 83 | 181 | 0.0 | 0.0 | 0.00 | 0.00 | 0.00 | 80 | 1009.0 |
| 20260830081855 | 83 | 191 | 0.0 | 0.0 | 0.00 | 0.00 | 0.00 | 80 | 1009.0 |
| 20260830081757 | 83 | 182 | 0.0 | 0.0 | 0.00 | 0.00 | 0.00 | 80 | 1009.0 |
| 20260830081649 | 83 | 186 | 1.0 | 0.0 | 0.00 | 0.00 | 0.00 | 80 | 1009.0 |
| 20260830081613 | 83 | 186 | 1.0 | 0.0 | 0.00 | 0.00 | 0.00 | 80 | 1009.0 |
| 20260830081529 | 83 | 185 | 1.0 | 0.0 | 0.00 | 0.00 | 0.00 | 80 | 1009.0 |
| 20260830081409 | 83 | 205 | 1.0 | 0.0 | 0.00 | 0.00 | 0.00 | 80 | 1009.0 |
| 20260830081244 | 83 | 198 | 1.0 | 0.0 | 0.00 | 0.00 | 0.00 | 80 | 1009.0 |
| 20260830081156 | 83 | 212 | 1.0 | 0.0 | 0.00 | 0.00 | 0.00 | 80 | 1009.0 |
| 20260830081059 | 83 | 217 | 1.0 | 0.0 | 0.00 | 0.00 | 0.00 | 80 | 1009.0 |
| 20260830081025 | 83 | 207 | 1.0 | 0.0 | 0.00 | 0.00 | 0.00 | 80 | 1009.0 |
| 20260830080856 | 83 | 176 | 1.0 | 0.0 | 0.00 | 0.00 | 0.00 | 80 | 1009.0 |
| 20260830080818 | 83 | 205 | 1.0 | 0.0 | 0.00 | 0.00 | 0.00 | 80 | 1009.0 |
| 20260830080649 | 83 | 216 | 0.0 | 0.0 | 0.00 | 0.00 | 0.00 | 80 | 1009.0 |
| 20260830080550 | 83 | 216 | 0.0 | 0.0 | 0.00 | 0.00 | 0.00 | 80 | 1009.0 |
| 20260830080456 | 83 | 216 | 0.0 | 0.0 | 0.00 | 0.00 | 0.00 | 80 | 1009.2 |
| 20260830080352 | 83 | 216 | 0.0 | 0.0 | 0.00 | 0.00 | 0.00 | 80 | 1009.2 |
| 20260830080314 | 83 | 203 | 0.0 | 0.0 | 0.00 | 0.00 | 0.00 | 80 | 1009.2 |
| 20260830080149 | 83 | 216 | 0.0 | 0.0 | 0.00 | 0.00 | 0.00 | 80 | 1009.2 |
| 20260830080114 | 83 | 273 | 0.0 | 0.0 | 0.00 | 0.00 | 0.00 | 80 | 1009.2 |
| 20260830075946 | 83 | 288 | 0.0 | 0.0 | 0.00 | 0.00 | 0.00 | 80 | 1009.2 |
| 20260830075857 | 83 | 178 | 0.0 | 0.0 | 0.00 | 0.00 | 0.00 | 80 | 1009.2 |
| 20260830075824 | 83 | 185 | 0.0 | 0.0 | 0.00 | 0.00 | 0.00 | 80 | 1009.2 |
| 20260830075723 | 83 | 205 | 0.0 | 0.0 | 0.00 | 0.00 | 0.00 | 80 | 1009.2 |
| 20260830075556 | 83 | 187 | 0.0 | 0.0 | 0.00 | 0.00 | 0.00 | 80 | 1009.2 |
| 20260830075451 | 83 | 200 | 0.0 | 0.0 | 0.00 | 0.00 | 0.00 | 80 | 1009.2 |
| 20260830075417 | 83 | 190 | 1.0 | 0.0 | 0.00 | 0.00 | 0.00 | 80 | 1009.2 |
| 20260830075259 | 83 | 197 | 1.0 | 0.0 | 0.00 | 0.00 | 0.00 | 80 | 1009.2 |
| 20260830075155 | 83 | 196 | 1.0 | 0.0 | 0.00 | 0.00 | 0.00 | 80 | 1009.2 |
| 20260830075115 | 83 | 196 | 1.0 | 0.0 | 0.00 | 0.00 | 0.00 | 80 | 1009.2 |
| 20260830074946 | 83 | 212 | 1.0 | 0.0 | 0.00 | 0.00 | 0.00 | 80 | 1009.2 |
| 20260830074905 | 83 | 211 | 1.0 | 0.0 | 0.00 | 0.00 | 0.00 | 80 | 1009.2 |
| 20260830074826 | 83 | 206 | 1.0 | 0.0 | 0.00 | 0.00 | 0.00 | 80 | 1009.2 |
| 20260830074657 | 83 | 184 | 1.0 | 0.0 | 0.00 | 0.00 | 0.00 | 80 | 1009.2 |
| 20260830074622 | 83 | 173 | 1.0 | 0.0 | 0.00 | 0.00 | 0.00 | 80 | 1009.2 |
| 20260830074453 | 83 | 174 | 1.0 | 0.0 | 0.00 | 0.00 | 0.00 | 80 | 1009.2 |
| 20260830074354 | 83 | 205 | 1.0 | 0.0 | 0.00 | 0.00 | 0.00 | 80 | 1009.2 |
| 20260830074249 | 83 | 189 | 1.0 | 0.0 | 0.00 | 0.00 | 0.00 | 80 | 1009.2 |
| 20260830074149 | 83 | 176 | 1.0 | 0.0 | 0.00 | 0.00 | 0.00 | 80 | 1009.2 |
| 20260830074101 | 83 | 184 | 1.0 | 0.0 | 0.00 | 0.00 | 0.00 | 80 | 1009.2 |
| 20260830074005 | 83 | 171 | 1.0 | 0.0 | 0.00 | 0.00 | 0.00 | 80 | 1009.2 |
| 20260830073857 | 83 | 216 | 1.0 | 0.0 | 0.00 | 0.00 | 0.00 | 80 | 1009.2 |
| 20260830073800 | 83 | 234 | 1.0 | 0.0 | 0.00 | 0.00 | 0.00 | 80 | 1009.2 |
| 20260830073654 | 84 | 184 | 1.0 | 0.0 | 0.00 | 0.00 | 0.00 | 80 | 1009.2 |
| 20260830073616 | 83 | 200 | 1.0 | 0.0 | 0.00 | 0.00 | 0.00 | 80 | 1009.2 |
| 20260830073448 | 83 | 210 | 1.0 | 0.0 | 0.00 | 0.00 | 0.00 | 80 | 1009.4 |
| 20260830073403 | 84 | 219 | 0.0 | 0.0 | 0.00 | 0.00 | 0.00 | 80 | 1009.4 |
| 20260830073304 | 84 | 227 | 0.0 | 0.0 | 0.00 | 0.00 | 0.00 | 80 | 1009.4 |
| 20260830073156 | 83 | 189 | 0.0 | 0.0 | 0.00 | 0.00 | 0.00 | 80 | 1009.4 |
| 20260830073051 | 84 | 182 | 0.0 | 0.0 | 0.00 | 0.00 | 0.00 | 80 | 1009.4 |
| 20260830072955 | 84 | 188 | 0.0 | 0.0 | 0.00 | 0.00 | 0.00 | 80 | 1009.4 |
| 20260830072850 | 84 | 213 | 0.0 | 0.0 | 0.00 | 0.00 | 0.00 | 80 | 1009.4 |
| 20260830072812 | 84 | 175 | 0.0 | 0.0 | 0.00 | 0.00 | 0.00 | 80 | 1009.4 |
| 20260830072708 | 84 | 210 | 0.0 | 0.0 | 0.00 | 0.00 | 0.00 | 80 | 1009.4 |
| 20260830072628 | 84 | 173 | 0.0 | 0.0 | 0.00 | 0.00 | 0.00 | 80 | 1009.4 |
| 20260830072502 | 84 | 170 | 0.0 | 0.0 | 0.00 | 0.00 | 0.00 | 80 | 1009.4 |
| 20260830072402 | 84 | 177 | 0.0 | 0.0 | 0.00 | 0.00 | 0.00 | 80 | 1009.4 |
| 20260830072313 | 84 | 140 | 0.0 | 0.0 | 0.00 | 0.00 | 0.00 | 80 | 1009.4 |
| 20260830072201 | 84 | 178 | 0.0 | 0.0 | 0.00 | 0.00 | 0.00 | 80 | 1009.4 |
| 20260830072055 | 84 | 199 | 0.0 | 0.0 | 0.00 | 0.00 | 0.00 | 80 | 1009.4 |
| 20260830072016 | 84 | 171 | 0.0 | 0.0 | 0.00 | 0.00 | 0.00 | 80 | 1009.4 |
| 20260830071922 | 84 | 207 | 0.0 | 0.0 | 0.00 | 0.00 | 0.00 | 80 | 1009.4 |
| 20260830071754 | 84 | 204 | 0.0 | 0.0 | 0.00 | 0.00 | 0.00 | 80 | 1009.4 |
| 20260830071715 | 84 | 226 | 0.0 | 0.0 | 0.00 | 0.00 | 0.00 | 80 | 1009.4 |
| 20260830071548 | 84 | 188 | 0.0 | 0.0 | 0.00 | 0.00 | 0.00 | 80 | 1009.4 |
| 20260830071500 | 84 | 179 | 0.0 | 0.0 | 0.00 | 0.00 | 0.00 | 80 | 1009.4 |
| 20260830071405 | 84 | 195 | 0.0 | 0.0 | 0.00 | 0.00 | 0.00 | 80 | 1009.4 |
| 20260830071255 | 84 | 195 | 0.0 | 0.0 | 0.00 | 0.00 | 0.00 | 80 | 1009.4 |
| 20260830071200 | 84 | 252 | 0.0 | 0.0 | 0.00 | 0.00 | 0.00 | 80 | 1009.4 |
| 20260830071056 | 84 | 179 | 0.0 | 0.0 | 0.00 | 0.00 | 0.00 | 80 | 1009.4 |
| 20260830070948 | 84 | 169 | 0.0 | 0.0 | 0.00 | 0.00 | 0.00 | 80 | 1009.4 |
| 20260830070849 | 84 | 215 | 0.0 | 0.0 | 0.00 | 0.00 | 0.00 | 80 | 1009.4 |
| 20260830070802 | 84 | 215 | 0.0 | 0.0 | 0.00 | 0.00 | 0.00 | 80 | 1009.4 |
| 20260830070706 | 84 | 213 | 0.0 | 0.0 | 0.00 | 0.00 | 0.00 | 80 | 1009.4 |
| 20260830070600 | 84 | 195 | 0.0 | 0.0 | 0.00 | 0.00 | 0.00 | 80 | 1009.4 |
| 20260830070455 | 84 | 165 | 0.0 | 0.0 | 0.00 | 0.00 | 0.00 | 80 | 1009.5 |
| 20260830070356 | 84 | 189 | 0.0 | 0.0 | 0.00 | 0.00 | 0.00 | 80 | 1009.5 |
| 20260830070308 | 84 | 195 | 0.0 | 0.0 | 0.00 | 0.00 | 0.00 | 80 | 1009.5 |
| 20260830070212 | 84 | 195 | 0.0 | 0.0 | 0.00 | 0.00 | 0.00 | 80 | 1009.5 |
| 20260830070134 | 84 | 175 | 0.0 | 0.0 | 0.00 | 0.00 | 0.00 | 80 | 1009.5 |
| 20260830065947 | 84 | 169 | 0.0 | 0.0 | 0.00 | 0.00 | 0.00 | 80 | 1009.5 |
| 20260830065904 | 84 | 198 | 0.0 | 0.0 | 0.00 | 0.00 | 0.00 | 80 | 1009.5 |
| 20260830065804 | 84 | 215 | 0.0 | 0.0 | 0.00 | 0.00 | 0.00 | 80 | 1009.5 |
| 20260830065658 | 84 | 196 | 0.0 | 0.0 | 0.00 | 0.00 | 0.00 | 80 | 1009.5 |
| 20260830065603 | 84 | 223 | 0.0 | 0.0 | 0.00 | 0.00 | 0.00 | 80 | 1009.5 |
| 20260830065529 | 84 | 218 | 0.0 | 0.0 | 0.00 | 0.00 | 0.00 | 80 | 1009.5 |
| 20260830065357 | 84 | 169 | 0.0 | 0.0 | 0.00 | 0.00 | 0.00 | 80 | 1009.5 |
| 20260830065252 | 84 | 236 | 0.0 | 0.0 | 0.00 | 0.00 | 0.00 | 80 | 1009.5 |
| 20260830065153 | 84 | 188 | 0.0 | 0.0 | 0.00 | 0.00 | 0.00 | 80 | 1009.5 |
| 20260830065114 | 84 | 180 | 0.0 | 0.0 | 0.00 | 0.00 | 0.00 | 80 | 1009.5 |
| 20260830064951 | 84 | 199 | 0.0 | 0.0 | 0.00 | 0.00 | 0.00 | 80 | 1009.6 |
| 20260830064913 | 84 | 202 | 0.0 | 0.0 | 0.00 | 0.00 | 0.00 | 80 | 1009.6 |
| 20260830064809 | 84 | 207 | 0.0 | 0.0 | 0.00 | 0.00 | 0.00 | 80 | 1009.6 |
| 20260830064709 | 84 | 207 | 0.0 | 0.0 | 0.00 | 0.00 | 0.00 | 80 | 1009.6 |
| 20260830064603 | 84 | 207 | 0.0 | 0.0 | 0.00 | 0.00 | 0.00 | 80 | 1009.6 |
| 20260830064509 | 84 | 209 | 0.0 | 0.0 | 0.00 | 0.00 | 0.00 | 80 | 1009.6 |
| 20260830064344 | 84 | 177 | 0.0 | 0.0 | 0.00 | 0.00 | 0.00 | 80 | 1009.6 |
| 20260830064257 | 84 | 173 | 0.0 | 0.0 | 0.00 | 0.00 | 0.00 | 80 | 1009.6 |
| 20260830064205 | 84 | 188 | 0.0 | 0.0 | 0.00 | 0.00 | 0.00 | 80 | 1009.6 |
| 20260830064100 | 84 | 171 | 0.0 | 0.0 | 0.00 | 0.00 | 0.00 | 80 | 1009.6 |
| 20260830063951 | 84 | 190 | 1.0 | 0.0 | 0.00 | 0.00 | 0.00 | 80 | 1009.6 |
| 20260830063856 | 84 | 178 | 1.0 | 0.0 | 0.00 | 0.00 | 0.00 | 80 | 1009.6 |
| 20260830063749 | 84 | 225 | 1.0 | 0.0 | 0.00 | 0.00 | 0.00 | 80 | 1009.6 |
| 20260830063649 | 84 | 229 | 1.0 | 0.0 | 0.00 | 0.00 | 0.00 | 80 | 1009.6 |
| 20260830063603 | 84 | 193 | 1.0 | 0.0 | 0.00 | 0.00 | 0.00 | 80 | 1009.6 |
| 20260830063510 | 84 | 213 | 1.0 | 0.0 | 0.00 | 0.00 | 0.00 | 80 | 1009.8 |
| 20260830063435 | 84 | 217 | 1.0 | 0.0 | 0.00 | 0.00 | 0.00 | 80 | 1009.8 |
| 20260830063306 | 84 | 159 | 0.0 | 0.0 | 0.00 | 0.00 | 0.00 | 80 | 1009.8 |
| 20260830063210 | 84 | 209 | 0.0 | 0.0 | 0.00 | 0.00 | 0.00 | 80 | 1009.8 |
| 20260830063110 | 84 | 209 | 0.0 | 0.0 | 0.00 | 0.00 | 0.00 | 80 | 1009.8 |
| 20260830063004 | 84 | 160 | 0.0 | 0.0 | 0.00 | 0.00 | 0.00 | 80 | 1009.8 |
| 20260830062856 | 84 | 219 | 0.0 | 0.0 | 0.00 | 0.00 | 0.00 | 80 | 1009.8 |
| 20260830062801 | 84 | 206 | 0.0 | 0.0 | 0.00 | 0.00 | 0.00 | 80 | 1009.8 |
| 20260830062652 | 84 | 227 | 0.0 | 0.0 | 0.00 | 0.00 | 0.00 | 80 | 1009.8 |
| 20260830062548 | 84 | 221 | 1.0 | 0.0 | 0.00 | 0.00 | 0.00 | 80 | 1009.8 |
| 20260830062448 | 84 | 187 | 0.0 | 0.0 | 0.00 | 0.00 | 0.00 | 80 | 1009.8 |
| 20260830062403 | 84 | 186 | 0.0 | 0.0 | 0.00 | 0.00 | 0.00 | 80 | 1009.8 |
| 20260830062325 | 84 | 181 | 0.0 | 0.0 | 0.00 | 0.00 | 0.00 | 80 | 1009.8 |
| 20260830062200 | 84 | 202 | 0.0 | 0.0 | 0.00 | 0.00 | 0.00 | 80 | 1009.8 |
| 20260830062120 | 84 | 200 | 1.0 | 0.0 | 0.00 | 0.00 | 0.00 | 80 | 1009.8 |
| 20260830062020 | 84 | 195 | 1.0 | 0.0 | 0.00 | 0.00 | 0.00 | 80 | 1009.8 |
| 20260830061851 | 84 | 196 | 1.0 | 0.0 | 0.00 | 0.00 | 0.00 | 80 | 1009.8 |
| 20260830061750 | 84 | 212 | 1.0 | 0.0 | 0.00 | 0.00 | 0.00 | 80 | 1009.8 |
| 20260830061711 | 84 | 195 | 0.0 | 0.0 | 0.00 | 0.00 | 0.00 | 80 | 1009.8 |
| 20260830061612 | 84 | 180 | 0.0 | 0.0 | 0.00 | 0.00 | 0.00 | 80 | 1009.8 |
| 20260830061504 | 84 | 168 | 1.0 | 0.0 | 0.00 | 0.00 | 0.00 | 80 | 1009.8 |
| 20260830061406 | 84 | 180 | 1.0 | 0.0 | 0.00 | 0.00 | 0.00 | 80 | 1009.8 |
| 20260830061257 | 84 | 215 | 1.0 | 0.0 | 0.00 | 0.00 | 0.00 | 80 | 1009.8 |
| 20260830061219 | 84 | 165 | 0.0 | 0.0 | 0.00 | 0.00 | 0.00 | 80 | 1009.8 |
| 20260830061048 | 84 | 194 | 0.0 | 0.0 | 0.00 | 0.00 | 0.00 | 80 | 1009.8 |
| 20260830060949 | 84 | 209 | 0.0 | 0.0 | 0.00 | 0.00 | 0.00 | 80 | 1009.8 |
| 20260830060912 | 84 | 209 | 0.0 | 0.0 | 0.00 | 0.00 | 0.00 | 80 | 1009.8 |
| 20260830060749 | 84 | 209 | 0.0 | 0.0 | 0.00 | 0.00 | 0.00 | 80 | 1009.8 |
| 20260830060704 | 84 | 173 | 1.0 | 0.0 | 0.00 | 0.00 | 0.00 | 80 | 1009.8 |
| 20260830060604 | 84 | 205 | 0.0 | 0.0 | 0.00 | 0.00 | 0.00 | 80 | 1009.8 |
| 20260830060456 | 84 | 160 | 0.0 | 0.0 | 0.00 | 0.00 | 0.00 | 80 | 1009.8 |
| 20260830060351 | 84 | 232 | 0.0 | 0.0 | 0.00 | 0.00 | 0.00 | 79 | 1009.8 |
| 20260830060253 | 84 | 155 | 0.0 | 0.0 | 0.00 | 0.00 | 0.00 | 79 | 1009.8 |
| 20260830060151 | 84 | 201 | 1.0 | 0.0 | 0.00 | 0.00 | 0.00 | 79 | 1009.8 |
| 20260830060045 | 84 | 205 | 1.0 | 0.0 | 0.00 | 0.00 | 0.00 | 79 | 1009.8 |
| 20260830060010 | 84 | 205 | 1.0 | 0.0 | 0.00 | 0.00 | 0.00 | 79 | 1009.8 |
| 20260830055932 | 84 | 205 | 1.0 | 0.0 | 0.00 | 0.00 | 0.00 | 79 | 1009.8 |
| 20260830055802 | 84 | 206 | 1.0 | 0.0 | 0.00 | 0.00 | 0.00 | 79 | 1009.8 |
| 20260830055703 | 84 | 166 | 0.0 | 0.0 | 0.00 | 0.00 | 0.00 | 79 | 1009.8 |
| 20260830055554 | 84 | 156 | 0.0 | 0.0 | 0.00 | 0.00 | 0.00 | 79 | 1009.8 |
| 20260830055456 | 84 | 211 | 0.0 | 0.0 | 0.00 | 0.00 | 0.00 | 79 | 1009.8 |
| 20260830055348 | 84 | 245 | 0.0 | 0.0 | 0.00 | 0.00 | 0.00 | 79 | 1009.8 |
| 20260830055316 | 84 | 99 | 0.0 | 0.0 | 0.00 | 0.00 | 0.00 | 79 | 1009.8 |
| 20260830055148 | 84 | 217 | 0.0 | 0.0 | 0.00 | 0.00 | 0.00 | 79 | 1009.8 |
| 20260830055059 | 85 | 180 | 0.0 | 0.0 | 0.00 | 0.00 | 0.00 | 79 | 1009.8 |
| 20260830055001 | 84 | 171 | 0.0 | 0.0 | 0.00 | 0.00 | 0.00 | 79 | 1009.9 |
| 20260830054853 | 85 | 211 | 0.0 | 0.0 | 0.00 | 0.00 | 0.00 | 79 | 1009.9 |
| 20260830054748 | 85 | 178 | 0.0 | 0.0 | 0.00 | 0.00 | 0.00 | 79 | 1009.9 |
| 20260830054650 | 85 | 172 | 1.0 | 0.0 | 0.00 | 0.00 | 0.00 | 79 | 1009.9 |
| 20260830054609 | 85 | 193 | 1.0 | 0.0 | 0.00 | 0.00 | 0.00 | 79 | 1009.9 |
| 20260830054452 | 85 | 177 | 1.0 | 0.0 | 0.00 | 0.00 | 0.00 | 79 | 1009.9 |
| 20260830054347 | 85 | 320 | 1.0 | 0.0 | 0.00 | 0.00 | 0.00 | 79 | 1009.9 |
| 20260830054311 | 85 | 135 | 1.0 | 0.0 | 0.00 | 0.00 | 0.00 | 79 | 1009.9 |
| 20260830054203 | 85 | 180 | 2.0 | 0.0 | 0.00 | 0.00 | 0.00 | 79 | 1009.9 |
| 20260830054059 | 85 | 194 | 2.0 | 0.0 | 0.00 | 0.00 | 0.00 | 79 | 1009.9 |
| 20260830054004 | 85 | 213 | 1.0 | 0.0 | 0.00 | 0.00 | 0.00 | 79 | 1009.9 |
| 20260830053926 | 85 | 178 | 2.0 | 0.0 | 0.00 | 0.00 | 0.00 | 79 | 1009.9 |
| 20260830053802 | 85 | 194 | 1.0 | 0.0 | 0.00 | 0.00 | 0.00 | 79 | 1009.9 |
| 20260830053654 | 85 | 180 | 1.0 | 0.0 | 0.00 | 0.00 | 0.00 | 79 | 1009.9 |
| 20260830053555 | 85 | 181 | 1.0 | 0.0 | 0.00 | 0.00 | 0.00 | 79 | 1009.9 |
| 20260830053454 | 85 | 146 | 1.0 | 0.0 | 0.00 | 0.00 | 0.00 | 79 | 1010.0 |
| 20260830053416 | 85 | 213 | 1.0 | 0.0 | 0.00 | 0.00 | 0.00 | 79 | 1010.0 |
| 20260830053247 | 85 | 216 | 1.0 | 0.0 | 0.00 | 0.00 | 0.00 | 79 | 1010.0 |
| 20260830053202 | 85 | 200 | 1.0 | 0.0 | 0.00 | 0.00 | 0.00 | 79 | 1010.0 |
| 20260830053106 | 85 | 221 | 1.0 | 0.0 | 0.00 | 0.00 | 0.00 | 79 | 1010.0 |
| 20260830053026 | 85 | 197 | 1.0 | 0.0 | 0.00 | 0.00 | 0.00 | 78 | 1010.0 |
| 20260830052902 | 85 | 225 | 1.0 | 0.0 | 0.00 | 0.00 | 0.00 | 78 | 1010.0 |
| 20260830052759 | 85 | 196 | 2.0 | 0.0 | 0.00 | 0.00 | 0.00 | 78 | 1010.0 |
| 20260830052703 | 85 | 169 | 2.0 | 0.0 | 0.00 | 0.00 | 0.00 | 78 | 1010.0 |
| 20260830052556 | 85 | 221 | 2.0 | 0.0 | 0.00 | 0.00 | 0.00 | 78 | 1010.0 |
| 20260830052448 | 85 | 225 | 2.0 | 0.0 | 0.00 | 0.00 | 0.00 | 78 | 1010.0 |
| 20260830052354 | 85 | 199 | 2.0 | 0.0 | 0.00 | 0.00 | 0.00 | 78 | 1010.0 |
| 20260830052247 | 85 | 221 | 2.0 | 0.0 | 0.00 | 0.00 | 0.00 | 78 | 1010.0 |
| 20260830052211 | 85 | 222 | 2.0 | 0.0 | 0.00 | 0.00 | 0.00 | 78 | 1010.0 |
| 20260830052103 | 85 | 192 | 2.0 | 0.0 | 0.00 | 0.00 | 0.00 | 78 | 1010.0 |
| 20260830051955 | 85 | 237 | 2.0 | 0.0 | 0.00 | 0.00 | 0.00 | 78 | 1009.9 |
| 20260830051856 | 85 | 185 | 2.0 | 0.0 | 0.00 | 0.00 | 0.00 | 78 | 1009.9 |
| 20260830051748 | 85 | 206 | 2.0 | 0.0 | 0.00 | 0.00 | 0.00 | 78 | 1009.9 |
| 20260830051647 | 85 | 246 | 2.0 | 0.0 | 0.00 | 0.00 | 0.00 | 78 | 1009.9 |
| 20260830051612 | 85 | 209 | 2.0 | 0.0 | 0.00 | 0.00 | 0.00 | 78 | 1009.9 |
| 20260830051534 | 85 | 167 | 2.0 | 0.0 | 0.00 | 0.00 | 0.00 | 78 | 1009.9 |
| 20260830051414 | 85 | 169 | 2.0 | 0.0 | 0.00 | 0.00 | 0.00 | 77 | 1009.9 |
| 20260830051304 | 85 | 213 | 3.0 | 0.0 | 0.00 | 0.00 | 0.00 | 77 | 1009.9 |
| 20260830051157 | 85 | 199 | 3.0 | 0.0 | 0.00 | 0.00 | 0.00 | 77 | 1009.9 |
| 20260830051059 | 85 | 199 | 3.0 | 0.0 | 0.00 | 0.00 | 0.00 | 77 | 1009.9 |
| 20260830050950 | 85 | 221 | 3.0 | 0.0 | 0.00 | 0.00 | 0.00 | 77 | 1009.9 |
| 20260830050911 | 85 | 219 | 2.0 | 0.0 | 0.00 | 0.00 | 0.00 | 77 | 1009.9 |
| 20260830050744 | 85 | 169 | 2.0 | 0.0 | 0.00 | 0.00 | 0.00 | 77 | 1009.9 |
| 20260830050708 | 85 | 190 | 2.0 | 0.0 | 0.00 | 0.00 | 0.00 | 77 | 1009.9 |
| 20260830050606 | 85 | 196 | 2.0 | 0.0 | 0.00 | 0.00 | 0.00 | 77 | 1009.9 |
| 20260830050506 | 85 | 202 | 2.0 | 0.0 | 0.00 | 0.00 | 0.00 | 77 | 1010.2 |
| 20260830050358 | 85 | 147 | 2.0 | 0.0 | 0.00 | 0.00 | 0.00 | 77 | 1010.2 |
| 20260830050250 | 85 | 204 | 2.0 | 0.0 | 0.00 | 0.00 | 0.00 | 77 | 1010.2 |
| 20260830050151 | 85 | 180 | 2.0 | 0.0 | 0.00 | 0.00 | 0.00 | 77 | 1010.2 |
| 20260830050051 | 85 | 161 | 2.0 | 0.0 | 0.00 | 0.00 | 0.00 | 77 | 1010.2 |
| 20260830050013 | 85 | 195 | 2.0 | 0.0 | 0.00 | 0.00 | 0.00 | 77 | 1010.2 |
| 20260830045908 | 85 | 191 | 2.0 | 0.0 | 0.00 | 0.00 | 0.00 | 77 | 1010.2 |
| 20260830045830 | 85 | 219 | 2.0 | 0.0 | 0.00 | 0.00 | 0.00 | 77 | 1010.2 |
| 20260830045645 | 85 | 188 | 2.0 | 0.0 | 0.00 | 0.00 | 0.00 | 76 | 1010.2 |
| 20260830045600 | 85 | 232 | 1.0 | 0.0 | 0.00 | 0.00 | 0.00 | 76 | 1010.2 |
| 20260830045527 | 85 | 211 | 1.0 | 0.0 | 0.00 | 0.00 | 0.00 | 76 | 1010.2 |
| 20260830045427 | 85 | 170 | 1.0 | 0.0 | 0.00 | 0.00 | 0.00 | 76 | 1010.2 |
| 20260830045316 | 85 | 162 | 1.0 | 0.0 | 0.00 | 0.00 | 0.00 | 76 | 1010.2 |
| 20260830045201 | 85 | 156 | 1.0 | 0.0 | 0.00 | 0.00 | 0.00 | 76 | 1010.2 |
| 20260830045055 | 85 | 190 | 1.0 | 0.0 | 0.00 | 0.00 | 0.00 | 76 | 1010.2 |
| 20260830045022 | 85 | 145 | 1.0 | 0.0 | 0.00 | 0.00 | 0.00 | 76 | 1010.1 |
| 20260830044921 | 85 | 227 | 1.0 | 0.0 | 0.00 | 0.00 | 0.00 | 76 | 1010.1 |
| 20260830044754 | 85 | 183 | 1.0 | 0.0 | 0.00 | 0.00 | 0.00 | 76 | 1010.1 |
| 20260830044649 | 85 | 190 | 1.0 | 0.0 | 0.00 | 0.00 | 0.00 | 75 | 1010.1 |
| 20260830044610 | 85 | 210 | 1.0 | 0.0 | 0.00 | 0.00 | 0.00 | 75 | 1010.1 |
| 20260830044452 | 85 | 211 | 1.0 | 0.0 | 0.00 | 0.00 | 0.00 | 75 | 1010.1 |
| 20260830044402 | 85 | 155 | 1.0 | 0.0 | 0.00 | 0.00 | 0.00 | 75 | 1010.1 |
| 20260830044307 | 85 | 168 | 1.0 | 0.0 | 0.00 | 0.00 | 0.00 | 75 | 1010.1 |
| 20260830044201 | 85 | 171 | 1.0 | 0.0 | 0.00 | 0.00 | 0.00 | 75 | 1010.1 |
| 20260830044103 | 85 | 235 | 1.0 | 0.0 | 0.00 | 0.00 | 0.00 | 75 | 1010.1 |
| 20260830043955 | 85 | 170 | 1.0 | 0.0 | 0.00 | 0.00 | 0.00 | 75 | 1010.1 |
| 20260830043847 | 85 | 216 | 1.0 | 0.0 | 0.00 | 0.00 | 0.00 | 75 | 1010.1 |
| 20260830043815 | 85 | 214 | 1.0 | 0.0 | 0.00 | 0.00 | 0.00 | 75 | 1010.1 |
| 20260830043737 | 85 | 200 | 1.0 | 0.0 | 0.00 | 0.00 | 0.00 | 75 | 1010.1 |
| 20260830043547 | 86 | 207 | 1.0 | 0.0 | 0.00 | 0.00 | 0.00 | 75 | 1010.1 |
| 20260830043506 | 86 | 194 | 1.0 | 0.0 | 0.00 | 0.00 | 0.00 | 75 | 1009.9 |
| 20260830043410 | 86 | 151 | 1.0 | 0.0 | 0.00 | 0.00 | 0.00 | 75 | 1009.9 |
| 20260830043332 | 86 | 185 | 1.0 | 0.0 | 0.00 | 0.00 | 0.00 | 75 | 1009.9 |
| 20260830043203 | 86 | 195 | 1.0 | 0.0 | 0.00 | 0.00 | 0.00 | 75 | 1009.9 |
| 20260830043124 | 86 | 173 | 1.0 | 0.0 | 0.00 | 0.00 | 0.00 | 74 | 1009.9 |
| 20260830043001 | 86 | 195 | 1.0 | 0.0 | 0.00 | 0.00 | 0.00 | 74 | 1009.9 |
| 20260830042856 | 86 | 161 | 1.0 | 0.0 | 0.00 | 0.00 | 0.00 | 74 | 1009.9 |
| 20260830042756 | 86 | 180 | 1.0 | 0.0 | 0.00 | 0.00 | 0.00 | 74 | 1009.9 |
| 20260830042647 | 86 | 166 | 1.0 | 0.0 | 0.00 | 0.00 | 0.00 | 74 | 1009.9 |
| 20260830042616 | 86 | 188 | 1.0 | 0.0 | 0.00 | 0.00 | 0.00 | 74 | 1009.9 |
| 20260830042516 | 86 | 213 | 1.0 | 0.0 | 0.00 | 0.00 | 0.00 | 74 | 1009.9 |
| 20260830042349 | 86 | 166 | 1.0 | 0.0 | 0.00 | 0.00 | 0.00 | 74 | 1009.9 |
| 20260830042310 | 86 | 227 | 1.0 | 0.0 | 0.00 | 0.00 | 0.00 | 74 | 1009.9 |
| 20260830042204 | 86 | 186 | 1.0 | 0.0 | 0.00 | 0.00 | 0.00 | 74 | 1009.9 |
| 20260830042055 | 86 | 257 | 1.0 | 0.0 | 0.00 | 0.00 | 0.00 | 74 | 1009.8 |
| 20260830041947 | 86 | 210 | 1.0 | 0.0 | 0.00 | 0.00 | 0.00 | 74 | 1009.9 |
| 20260830041857 | 86 | 221 | 1.0 | 0.0 | 0.00 | 0.00 | 0.00 | 74 | 1009.9 |
| 20260830041753 | 86 | 198 | 1.0 | 0.0 | 0.00 | 0.00 | 0.00 | 74 | 1009.9 |
| 20260830041714 | 86 | 198 | 2.0 | 0.0 | 0.00 | 0.00 | 0.00 | 74 | 1009.9 |
| 20260830041548 | 86 | 194 | 2.0 | 0.0 | 0.00 | 0.00 | 0.00 | 74 | 1009.9 |
| 20260830041510 | 86 | 190 | 2.0 | 0.0 | 0.00 | 0.00 | 0.00 | 74 | 1009.9 |
| 20260830041414 | 86 | 168 | 2.0 | 0.0 | 0.00 | 0.00 | 0.00 | 74 | 1009.9 |
| 20260830041305 | 86 | 193 | 3.0 | 0.0 | 0.00 | 0.00 | 0.00 | 74 | 1009.9 |
| 20260830041207 | 86 | 221 | 3.0 | 0.0 | 0.00 | 0.00 | 0.00 | 74 | 1009.9 |
| 20260830041120 | 86 | 201 | 3.0 | 0.0 | 0.00 | 0.00 | 0.00 | 74 | 1009.9 |
| 20260830041008 | 86 | 164 | 3.0 | 0.0 | 0.00 | 0.00 | 0.00 | 74 | 1009.9 |
| 20260830040900 | 86 | 194 | 2.0 | 0.0 | 0.00 | 0.00 | 0.00 | 74 | 1009.9 |
| 20260830040756 | 86 | 213 | 3.0 | 0.0 | 0.00 | 0.00 | 0.00 | 74 | 1009.9 |
| 20260830040656 | 86 | 177 | 2.0 | 0.0 | 0.00 | 0.00 | 0.00 | 74 | 1009.9 |
| 20260830040551 | 86 | 161 | 2.0 | 0.0 | 0.00 | 0.00 | 0.00 | 74 | 1009.9 |
| 20260830040513 | 86 | 186 | 2.0 | 0.0 | 0.00 | 0.00 | 0.00 | 74 | 1009.8 |
| 20260830040404 | 86 | 273 | 1.0 | 0.0 | 0.00 | 0.00 | 0.00 | 74 | 1009.8 |
| 20260830040308 | 86 | 190 | 1.0 | 0.0 | 0.00 | 0.00 | 0.00 | 74 | 1009.8 |
| 20260830040226 | 86 | 184 | 1.0 | 0.0 | 0.00 | 0.00 | 0.00 | 74 | 1009.8 |
| 20260830040106 | 86 | 207 | 1.0 | 0.0 | 0.00 | 0.00 | 0.00 | 74 | 1009.8 |
| 20260830035958 | 86 | 206 | 1.0 | 0.0 | 0.00 | 0.00 | 0.00 | 74 | 1009.8 |
| 20260830035853 | 86 | 56 | 1.0 | 0.0 | 0.00 | 0.00 | 0.00 | 74 | 1009.8 |
| 20260830035813 | 86 | 179 | 1.0 | 0.0 | 0.00 | 0.00 | 0.00 | 74 | 1009.8 |
| 20260830035646 | 86 | 211 | 1.0 | 0.0 | 0.00 | 0.00 | 0.00 | 74 | 1009.8 |
| 20260830035549 | 86 | 121 | 2.0 | 0.0 | 0.00 | 0.00 | 0.00 | 74 | 1009.8 |
| 20260830035451 | 86 | 194 | 2.0 | 0.0 | 0.00 | 0.00 | 0.00 | 74 | 1009.8 |
| 20260830035412 | 86 | 181 | 2.0 | 0.0 | 0.00 | 0.00 | 0.00 | 74 | 1009.8 |
| 20260830035306 | 86 | 203 | 2.0 | 0.0 | 0.00 | 0.00 | 0.00 | 74 | 1009.8 |
| 20260830035201 | 87 | 190 | 2.0 | 0.0 | 0.00 | 0.00 | 0.00 | 74 | 1009.8 |
| 20260830035101 | 87 | 192 | 2.0 | 0.0 | 0.00 | 0.00 | 0.00 | 74 | 1009.8 |
| 20260830034953 | 87 | 202 | 2.0 | 0.0 | 0.00 | 0.00 | 0.00 | 73 | 1009.4 |
| 20260830034848 | 87 | 198 | 2.0 | 0.0 | 0.00 | 0.00 | 0.00 | 73 | 1009.4 |
| 20260830034752 | 87 | 188 | 2.0 | 0.0 | 0.00 | 0.00 | 0.00 | 73 | 1009.4 |
| 20260830034646 | 87 | 194 | 2.0 | 0.0 | 0.00 | 0.00 | 0.00 | 73 | 1009.4 |
| 20260830034610 | 87 | 181 | 2.0 | 0.0 | 0.00 | 0.00 | 0.00 | 73 | 1009.4 |
| 20260830034505 | 87 | 177 | 2.0 | 0.0 | 0.00 | 0.00 | 0.00 | 73 | 1009.4 |
| 20260830034426 | 87 | 157 | 2.0 | 0.0 | 0.00 | 0.00 | 0.00 | 73 | 1009.4 |
| 20260830034258 | 87 | 180 | 3.0 | 0.0 | 0.00 | 0.00 | 0.00 | 73 | 1009.4 |
| 20260830034200 | 87 | 167 | 3.0 | 0.0 | 0.00 | 0.00 | 0.00 | 73 | 1009.4 |
| 20260830034049 | 87 | 207 | 3.0 | 0.0 | 0.00 | 0.00 | 0.00 | 73 | 1009.4 |
| 20260830034009 | 87 | 184 | 3.0 | 0.0 | 0.00 | 0.00 | 0.00 | 73 | 1009.4 |
| 20260830033916 | 87 | 229 | 3.0 | 0.0 | 0.00 | 0.00 | 0.00 | 73 | 1009.4 |
| 20260830033748 | 87 | 205 | 3.0 | 0.0 | 0.00 | 0.00 | 0.00 | 73 | 1009.4 |
| 20260830033701 | 87 | 170 | 3.0 | 0.0 | 0.00 | 0.00 | 0.00 | 73 | 1009.4 |
| 20260830033602 | 87 | 153 | 3.0 | 0.0 | 0.00 | 0.00 | 0.00 | 73 | 1009.4 |
| 20260830033453 | 87 | 210 | 3.0 | 0.0 | 0.00 | 0.00 | 0.00 | 73 | 1009.3 |
| 20260830033348 | 87 | 210 | 3.0 | 0.0 | 0.00 | 0.00 | 0.00 | 72 | 1009.3 |
| 20260830033250 | 87 | 169 | 2.0 | 0.0 | 0.00 | 0.00 | 0.00 | 72 | 1009.3 |
| 20260830033206 | 87 | 214 | 2.0 | 0.0 | 0.00 | 0.00 | 0.00 | 72 | 1009.3 |
| 20260830033108 | 87 | 148 | 2.0 | 0.0 | 0.00 | 0.00 | 0.00 | 72 | 1009.3 |
| 20260830033021 | 87 | 155 | 1.0 | 0.0 | 0.00 | 0.00 | 0.00 | 72 | 1009.3 |
| 20260830032901 | 87 | 173 | 1.0 | 0.0 | 0.00 | 0.00 | 0.00 | 72 | 1009.3 |
| 20260830032753 | 87 | 165 | 1.0 | 0.0 | 0.00 | 0.00 | 0.00 | 72 | 1009.3 |
| 20260830032647 | 87 | 128 | 1.0 | 0.0 | 0.00 | 0.00 | 0.00 | 72 | 1009.3 |
| 20260830032551 | 87 | 193 | 1.0 | 0.0 | 0.00 | 0.00 | 0.00 | 72 | 1009.3 |
| 20260830032503 | 87 | 153 | 0.0 | 0.0 | 0.00 | 0.00 | 0.00 | 72 | 1009.3 |
| 20260830032409 | 87 | 248 | 1.0 | 0.0 | 0.00 | 0.00 | 0.00 | 72 | 1009.3 |
| 20260830032306 | 87 | 182 | 1.0 | 0.0 | 0.00 | 0.00 | 0.00 | 71 | 1009.3 |
| 20260830032156 | 87 | 190 | 1.0 | 0.0 | 0.00 | 0.00 | 0.00 | 71 | 1009.3 |
| 20260830032057 | 87 | 160 | 1.0 | 0.0 | 0.00 | 0.00 | 0.00 | 71 | 1009.3 |
| 20260830031949 | 87 | 165 | 1.0 | 0.0 | 0.00 | 0.00 | 0.00 | 71 | 1009.2 |
| 20260830031849 | 87 | 217 | 1.0 | 0.0 | 0.00 | 0.00 | 0.00 | 71 | 1009.2 |
| 20260830031801 | 87 | 194 | 1.0 | 0.0 | 0.00 | 0.00 | 0.00 | 71 | 1009.2 |
| 20260830031707 | 87 | 213 | 1.0 | 0.0 | 0.00 | 0.00 | 0.00 | 71 | 1009.2 |
| 20260830031558 | 87 | 226 | 1.0 | 0.0 | 0.00 | 0.00 | 0.00 | 71 | 1009.2 |
| 20260830031501 | 88 | 163 | 1.0 | 0.0 | 0.00 | 0.00 | 0.00 | 71 | 1009.2 |
| 20260830031351 | 88 | 182 | 1.0 | 0.0 | 0.00 | 0.00 | 0.00 | 71 | 1009.2 |
| 20260830031312 | 88 | 238 | 1.0 | 0.0 | 0.00 | 0.00 | 0.00 | 71 | 1009.2 |
| 20260830031203 | 88 | 194 | 1.0 | 0.0 | 0.00 | 0.00 | 0.00 | 71 | 1009.2 |
| 20260830031058 | 88 | 185 | 1.0 | 0.0 | 0.00 | 0.00 | 0.00 | 71 | 1009.2 |
| 20260830031003 | 88 | 215 | 1.0 | 0.0 | 0.00 | 0.00 | 0.00 | 71 | 1009.2 |
| 20260830030855 | 88 | 174 | 1.0 | 0.0 | 0.00 | 0.00 | 0.00 | 71 | 1009.2 |
| 20260830030816 | 88 | 199 | 1.0 | 0.0 | 0.00 | 0.00 | 0.00 | 71 | 1009.2 |
| 20260830030649 | 88 | 207 | 1.0 | 0.0 | 0.00 | 0.00 | 0.00 | 71 | 1009.2 |
| 20260830030543 | 88 | 207 | 1.0 | 0.0 | 0.00 | 0.00 | 0.00 | 70 | 1008.9 |
| 20260830030511 | 88 | 149 | 1.0 | 0.0 | 0.00 | 0.00 | 0.00 | 70 | 1008.9 |
| 20260830030343 | 88 | 199 | 2.0 | 0.0 | 0.00 | 0.00 | 0.00 | 70 | 1008.9 |
| 20260830030303 | 88 | 219 | 2.0 | 0.0 | 0.00 | 0.00 | 0.00 | 70 | 1008.9 |
| 20260830030205 | 88 | 275 | 1.0 | 0.0 | 0.00 | 0.00 | 0.00 | 70 | 1008.9 |
| 20260830030100 | 88 | 167 | 1.0 | 0.0 | 0.00 | 0.00 | 0.00 | 70 | 1008.9 |
| 20260830025952 | 88 | 145 | 1.0 | 0.0 | 0.00 | 0.00 | 0.00 | 70 | 1008.9 |
| 20260830025856 | 88 | 84 | 1.0 | 0.0 | 0.00 | 0.00 | 0.00 | 70 | 1008.9 |
| 20260830025751 | 88 | 187 | 1.0 | 0.0 | 0.00 | 0.00 | 0.00 | 70 | 1008.9 |
| 20260830025713 | 88 | 214 | 1.0 | 0.0 | 0.00 | 0.00 | 0.00 | 70 | 1008.9 |
| 20260830025551 | 88 | 173 | 1.0 | 0.0 | 0.00 | 0.00 | 0.00 | 70 | 1008.9 |
| 20260830025508 | 88 | 229 | 1.0 | 0.0 | 0.00 | 0.00 | 0.00 | 70 | 1008.9 |
| 20260830025411 | 88 | 225 | 1.0 | 0.0 | 0.00 | 0.00 | 0.00 | 70 | 1008.9 |
| 20260830025331 | 88 | 189 | 1.0 | 0.0 | 0.00 | 0.00 | 0.00 | 70 | 1008.9 |
| 20260830025209 | 88 | 223 | 1.0 | 0.0 | 0.00 | 0.00 | 0.00 | 70 | 1008.9 |
| 20260830025130 | 88 | 256 | 0.0 | 0.0 | 0.00 | 0.00 | 0.00 | 70 | 1008.9 |
| 20260830025003 | 88 | 212 | 0.0 | 0.0 | 0.00 | 0.00 | 0.00 | 70 | 1008.7 |
| 20260830024909 | 88 | 172 | 0.0 | 0.0 | 0.00 | 0.00 | 0.00 | 70 | 1008.7 |
| 20260830024745 | 88 | 227 | 0.0 | 0.0 | 0.00 | 0.00 | 0.00 | 69 | 1008.7 |
| 20260830024703 | 88 | 219 | 1.0 | 0.0 | 0.00 | 0.00 | 0.00 | 69 | 1008.7 |
| 20260830024625 | 88 | 169 | 1.0 | 0.0 | 0.00 | 0.00 | 0.00 | 69 | 1008.7 |
| 20260830024504 | 88 | 157 | 1.0 | 0.0 | 0.00 | 0.00 | 0.00 | 69 | 1008.7 |
| 20260830024358 | 88 | 204 | 1.0 | 0.0 | 0.00 | 0.00 | 0.00 | 69 | 1008.7 |
| 20260830024318 | 88 | 204 | 1.0 | 0.0 | 0.00 | 0.00 | 0.00 | 69 | 1008.7 |
| 20260830024155 | 88 | 204 | 1.0 | 0.0 | 0.00 | 0.00 | 0.00 | 69 | 1008.7 |
| 20260830024047 | 89 | 170 | 1.0 | 0.0 | 0.00 | 0.00 | 0.00 | 69 | 1008.7 |
| 20260830023953 | 89 | 205 | 1.0 | 0.0 | 0.00 | 0.00 | 0.00 | 69 | 1008.7 |
| 20260830023859 | 89 | 277 | 1.0 | 0.0 | 0.00 | 0.00 | 0.00 | 69 | 1008.7 |
| 20260830023809 | 89 | 146 | 1.0 | 0.0 | 0.00 | 0.00 | 0.00 | 69 | 1008.7 |
| 20260830023652 | 89 | 93 | 1.0 | 0.0 | 0.00 | 0.00 | 0.00 | 69 | 1008.7 |
| 20260830023606 | 89 | 78 | 1.0 | 0.0 | 0.00 | 0.00 | 0.00 | 69 | 1008.7 |